[[{"header":{"parameterUnit":"m.s-1","parameterCategory":1,"la1":30.6,"la2":29.2853,"lo1":-89.7004,"lo2":-87.6739,"dy":0.0162,"dx":0.0183,"nx":112,"ny":82,"refTime":"2023-03-16T18:00:00:Z","depth":0,"parameterNumber":2,"parameterNumberName":"U-component_of_WINDS"},"data":[0.0,0.0,0.0,0.0,0.0,0.0,0.0,0.0,0.0,0.0,0.0,0.0,0.0,0.0,0.0,0.0,0.0,0.0,0.0,0.0,0.0,0.0,0.0,0.0,0.0,0.0,0.0,0.0,0.0,0.0,0.0,0.0,0.0,0.0,0.0,0.0,0.0,0.0,0.0,0.0,0.0,0.0,0.0,0.0,0.0,0.0,0.0,0.0,0.0,0.0,0.0,0.0,0.0,0.0,0.0,0.0,0.0,0.0,0.0,0.0,0.0,0.0,0.0,0.0,0.0,0.0,0.0,0.0,0.0,0.0,0.0,0.0,0.0,0.0,0.0,0.0,0.0,0.0,0.0,0.0,0.0,0.0,0.0,0.0,0.0,0.0,0.0,0.0,0.0,0.0,0.0,5.8962,5.8957,5.8957,5.8957,5.8957,5.8988,5.9075,0.0,0.0,0.0,0.0,0.0,0.0,0.0,0.0,0.0,0.0,0.0,0.0,0.0,0.0,0.0,0.0,0.0,0.0,0.0,0.0,0.0,0.0,0.0,0.0,0.0,0.0,0.0,0.0,0.0,0.0,0.0,0.0,0.0,0.0,0.0,0.0,0.0,0.0,0.0,0.0,0.0,0.0,0.0,0.0,0.0,0.0,0.0,0.0,0.0,0.0,0.0,0.0,0.0,0.0,0.0,0.0,0.0,0.0,0.0,0.0,0.0,0.0,0.0,0.0,0.0,0.0,0.0,0.0,0.0,0.0,0.0,0.0,0.0,0.0,0.0,0.0,0.0,0.0,0.0,0.0,0.0,0.0,0.0,0.0,0.0,0.0,0.0,0.0,0.0,0.0,0.0,0.0,0.0,0.0,0.0,0.0,0.0,0.0,0.0,0.0,0.0,0.0,0.0,0.0,5.9844,6.0093,6.0151,6.0151,6.0151,6.0151,6.0328,6.0699,0.0,0.0,0.0,0.0,0.0,0.0,0.0,0.0,0.0,0.0,0.0,0.0,0.0,0.0,0.0,0.0,0.0,0.0,0.0,0.0,0.0,0.0,0.0,0.0,0.0,0.0,0.0,0.0,0.0,0.0,0.0,0.0,0.0,0.0,0.0,0.0,0.0,0.0,0.0,0.0,0.0,0.0,0.0,0.0,0.0,0.0,0.0,0.0,0.0,0.0,0.0,0.0,0.0,0.0,0.0,0.0,0.0,0.0,0.0,0.0,0.0,0.0,0.0,0.0,0.0,0.0,0.0,0.0,0.0,0.0,0.0,0.0,0.0,0.0,0.0,0.0,0.0,0.0,0.0,0.0,0.0,0.0,0.0,0.0,0.0,0.0,0.0,0.0,0.0,0.0,0.0,0.0,0.0,0.0,0.0,0.0,0.0,0.0,0.0,0.0,0.0,0.0,0.0,6.0316,6.0539,6.0411,6.0413,6.0413,6.0413,6.0413,6.0496,6.0694,6.0021,0.0,0.0,0.0,0.0,0.0,0.0,0.0,0.0,0.0,0.0,0.0,0.0,0.0,0.0,0.0,0.0,0.0,0.0,0.0,0.0,0.0,0.0,0.0,0.0,0.0,0.0,0.0,0.0,0.0,0.0,0.0,0.0,0.0,0.0,0.0,0.0,0.0,0.0,0.0,0.0,0.0,0.0,0.0,0.0,0.0,0.0,0.0,0.0,0.0,0.0,0.0,0.0,0.0,0.0,0.0,0.0,0.0,0.0,0.0,0.0,0.0,0.0,0.0,0.0,0.0,0.0,0.0,0.0,0.0,0.0,0.0,0.0,0.0,0.0,0.0,0.0,0.0,0.0,0.0,0.0,0.0,0.0,0.0,0.0,0.0,0.0,0.0,0.0,0.0,0.0,0.0,0.0,0.0,0.0,0.0,0.0,0.0,0.0,0.0,0.0,0.0,0.0,6.1035,6.1217,6.0981,6.0964,6.0964,6.0964,6.0964,6.0964,6.0964,6.078,0.0,0.0,0.0,0.0,0.0,0.0,0.0,0.0,0.0,0.0,0.0,0.0,0.0,0.0,0.0,0.0,0.0,0.0,0.0,0.0,0.0,0.0,0.0,0.0,0.0,0.0,0.0,0.0,0.0,0.0,0.0,0.0,0.0,0.0,0.0,0.0,0.0,0.0,0.0,0.0,0.0,0.0,0.0,0.0,0.0,0.0,0.0,0.0,0.0,0.0,0.0,0.0,0.0,0.0,0.0,0.0,0.0,0.0,0.0,0.0,0.0,0.0,0.0,0.0,0.0,0.0,0.0,0.0,0.0,0.0,0.0,0.0,0.0,0.0,0.0,0.0,0.0,0.0,0.0,0.0,0.0,0.0,0.0,0.0,0.0,0.0,0.0,0.0,0.0,0.0,0.0,0.0,0.0,0.0,0.0,0.0,0.0,0.0,0.0,0.0,0.0,0.0,6.1563,6.1826,6.2542,6.2646,6.2646,6.2646,6.2646,6.2646,6.2646,6.1924,0.0,0.0,0.0,0.0,0.0,0.0,0.0,0.0,0.0,0.0,0.0,0.0,0.0,0.0,0.0,0.0,0.0,0.0,0.0,0.0,0.0,0.0,0.0,0.0,0.0,0.0,0.0,0.0,0.0,0.0,0.0,0.0,0.0,0.0,0.0,0.0,0.0,0.0,0.0,0.0,0.0,0.0,0.0,0.0,0.0,0.0,0.0,0.0,0.0,0.0,0.0,0.0,0.0,0.0,0.0,0.0,0.0,0.0,0.0,0.0,0.0,0.0,0.0,0.0,0.0,0.0,0.0,0.0,0.0,0.0,0.0,0.0,0.0,0.0,0.0,0.0,0.0,0.0,0.0,0.0,0.0,0.0,0.0,0.0,0.0,0.0,0.0,0.0,0.0,0.0,0.0,0.0,0.0,0.0,0.0,0.0,0.0,0.0,0.0,0.0,0.0,0.0,6.2642,6.3026,0.0,6.3613,6.3796,6.434,6.39,6.3613,6.3613,0.0,0.0,0.0,0.0,0.0,0.0,0.0,0.0,0.0,0.0,0.0,0.0,0.0,0.0,0.0,0.0,0.0,0.0,0.0,0.0,0.0,0.0,0.0,0.0,0.0,0.0,0.0,0.0,0.0,0.0,0.0,0.0,0.0,0.0,0.0,0.0,0.0,0.0,0.0,0.0,0.0,0.0,0.0,0.0,0.0,0.0,0.0,0.0,0.0,0.0,0.0,0.0,0.0,0.0,0.0,0.0,0.0,0.0,0.0,0.0,0.0,0.0,0.0,0.0,0.0,0.0,0.0,0.0,0.0,0.0,0.0,0.0,0.0,0.0,0.0,0.0,0.0,0.0,0.0,0.0,0.0,0.0,0.0,0.0,0.0,0.0,0.0,0.0,0.0,0.0,0.0,0.0,0.0,0.0,0.0,0.0,0.0,0.0,0.0,0.0,0.0,0.0,6.3547,6.3915,6.4239,0.0,6.4494,6.4714,6.5251,6.4787,6.4494,6.4494,0.0,0.0,0.0,0.0,0.0,0.0,0.0,0.0,0.0,0.0,0.0,0.0,0.0,0.0,0.0,0.0,0.0,0.0,0.0,0.0,0.0,0.0,0.0,0.0,0.0,0.0,0.0,0.0,0.0,0.0,0.0,0.0,0.0,0.0,0.0,0.0,0.0,0.0,0.0,0.0,0.0,0.0,0.0,0.0,0.0,0.0,0.0,0.0,0.0,0.0,0.0,0.0,0.0,0.0,0.0,0.0,0.0,0.0,0.0,0.0,0.0,0.0,0.0,0.0,0.0,0.0,0.0,0.0,0.0,0.0,0.0,0.0,0.0,0.0,0.0,0.0,0.0,0.0,0.0,0.0,0.0,0.0,0.0,0.0,0.0,0.0,0.0,0.0,0.0,0.0,0.0,0.0,0.0,0.0,0.0,0.0,0.0,0.0,0.0,0.0,0.0,0.0,6.5185,6.5288,6.5288,6.5295,6.5295,6.5325,6.5325,6.5325,6.5295,0.0,0.0,0.0,0.0,0.0,0.0,0.0,0.0,0.0,0.0,0.0,0.0,0.0,0.0,0.0,0.0,0.0,0.0,0.0,0.0,0.0,0.0,0.0,0.0,0.0,0.0,0.0,0.0,0.0,0.0,0.0,0.0,0.0,0.0,0.0,0.0,0.0,0.0,0.0,0.0,0.0,0.0,0.0,0.0,0.0,0.0,0.0,0.0,0.0,0.0,0.0,0.0,0.0,0.0,0.0,0.0,0.0,0.0,0.0,0.0,0.0,0.0,0.0,0.0,0.0,0.0,0.0,0.0,0.0,0.0,0.0,0.0,0.0,0.0,0.0,0.0,0.0,0.0,0.0,0.0,0.0,0.0,0.0,0.0,0.0,0.0,0.0,0.0,0.0,0.0,0.0,0.0,0.0,0.0,0.0,0.0,0.0,0.0,0.0,0.0,0.0,0.0,0.0,6.5251,6.5288,6.5515,6.6109,6.6145,6.6366,6.696,6.6476,6.6145,6.6145,0.0,0.0,0.0,0.0,0.0,0.0,0.0,0.0,0.0,0.0,0.0,0.0,0.0,0.0,0.0,0.0,0.0,0.0,0.0,0.0,0.0,0.0,0.0,0.0,0.0,0.0,0.0,0.0,0.0,0.0,0.0,0.0,0.0,0.0,0.0,0.0,0.0,0.0,0.0,0.0,0.0,0.0,0.0,0.0,0.0,0.0,0.0,0.0,0.0,0.0,0.0,0.0,0.0,0.0,0.0,0.0,0.0,0.0,0.0,0.0,0.0,0.0,0.0,0.0,0.0,0.0,0.0,0.0,0.0,0.0,0.0,0.0,0.0,0.0,0.0,0.0,0.0,0.0,0.0,0.0,0.0,0.0,0.0,0.0,0.0,0.0,0.0,0.0,0.0,0.0,0.0,0.0,0.0,0.0,0.0,0.0,0.0,0.0,0.0,0.0,0.0,0.0,6.6219,6.6256,6.6439,6.6923,6.6996,6.718,6.7664,6.7253,6.6996,6.6996,0.0,0.0,0.0,0.0,0.0,0.0,0.0,0.0,0.0,0.0,0.0,0.0,0.0,0.0,0.0,0.0,0.0,0.0,0.0,0.0,0.0,0.0,0.0,0.0,0.0,0.0,0.0,0.0,0.0,0.0,0.0,0.0,0.0,0.0,0.0,0.0,0.0,0.0,0.0,0.0,0.0,0.0,0.0,0.0,0.0,0.0,0.0,0.0,0.0,0.0,0.0,0.0,0.0,0.0,0.0,0.0,0.0,0.0,0.0,0.0,0.0,0.0,0.0,0.0,0.0,0.0,0.0,0.0,0.0,0.0,0.0,0.0,0.0,0.0,0.0,0.0,0.0,0.0,0.0,0.0,0.0,0.0,0.0,0.0,0.0,0.0,0.0,0.0,0.0,0.0,0.0,0.0,0.0,0.0,0.0,0.0,0.0,0.0,0.0,0.0,0.0,0.0,6.77,6.7804,6.7847,6.7921,6.7921,6.7921,6.7921,6.7921,6.7921,6.7921,0.0,0.0,0.0,0.0,0.0,0.0,0.0,0.0,0.0,0.0,0.0,0.0,0.0,0.0,0.0,0.0,0.0,0.0,0.0,0.0,0.0,0.0,0.0,0.0,0.0,0.0,0.0,0.0,0.0,0.0,0.0,0.0,0.0,0.0,0.0,0.0,0.0,0.0,0.0,0.0,0.0,0.0,0.0,0.0,0.0,0.0,0.0,0.0,0.0,0.0,0.0,0.0,0.0,0.0,0.0,0.0,0.0,0.0,0.0,0.0,5.9722,0.0,0.0,0.0,0.0,0.0,0.0,0.0,0.0,0.0,0.0,0.0,0.0,0.0,0.0,0.0,0.0,0.0,0.0,0.0,0.0,0.0,0.0,0.0,0.0,0.0,0.0,0.0,0.0,0.0,0.0,0.0,0.0,0.0,0.0,0.0,0.0,0.0,0.0,0.0,0.0,0.0,6.8531,6.8641,6.8898,6.9529,6.9603,6.9603,6.9603,6.9603,6.9603,6.9603,0.0,0.0,0.0,0.0,0.0,0.0,0.0,0.0,0.0,0.0,0.0,0.0,0.0,0.0,0.0,0.0,0.0,0.0,0.0,0.0,0.0,0.0,0.0,0.0,0.0,0.0,0.0,0.0,0.0,0.0,0.0,0.0,0.0,0.0,0.0,0.0,0.0,0.0,0.0,0.0,0.0,0.0,0.0,0.0,0.0,0.0,0.0,0.0,0.0,0.0,0.0,0.0,0.0,0.0,0.0,0.0,0.0,0.0,0.0,0.0,0.0,6.0413,0.0,0.0,0.0,0.0,0.0,0.0,0.0,0.0,0.0,0.0,0.0,0.0,0.0,0.0,0.0,0.0,0.0,0.0,0.0,0.0,0.0,0.0,0.0,0.0,0.0,0.0,0.0,0.0,0.0,0.0,0.0,0.0,0.0,0.0,0.0,0.0,0.0,0.0,0.0,0.0,6.9412,6.9486,6.9633,7.0073,7.0117,7.0117,7.0117,7.0117,7.0117,7.0117,6.9706,0.0,0.0,0.0,0.0,0.0,0.0,0.0,0.0,0.0,0.0,0.0,0.0,0.0,0.0,0.0,0.0,0.0,0.0,0.0,0.0,0.0,0.0,0.0,0.0,0.0,0.0,0.0,0.0,0.0,0.0,0.0,0.0,0.0,0.0,0.0,0.0,0.0,0.0,0.0,0.0,0.0,0.0,0.0,0.0,0.0,0.0,0.0,0.0,0.0,0.0,0.0,0.0,0.0,6.0868,6.0768,6.0805,6.1474,6.1843,6.1957,6.1292,6.1031,6.108,0.0,0.0,0.0,0.0,0.0,0.0,0.0,0.0,0.0,0.0,0.0,0.0,0.0,0.0,0.0,0.0,0.0,0.0,0.0,0.0,0.0,0.0,0.0,0.0,0.0,6.5515,6.5588,0.0,0.0,0.0,0.0,0.0,0.0,0.0,0.0,0.0,0.0,0.0,0.0,7.0293,7.0293,7.0367,7.0513,7.0513,7.0513,7.0513,7.0513,7.0513,7.0513,7.0403,7.0293,0.0,0.0,0.0,0.0,0.0,0.0,0.0,0.0,0.0,0.0,0.0,0.0,0.0,0.0,0.0,0.0,0.0,0.0,0.0,0.0,0.0,0.0,0.0,0.0,0.0,0.0,0.0,0.0,0.0,0.0,0.0,0.0,5.4844,5.3599,0.0,0.0,0.0,0.0,0.0,0.0,0.0,0.0,0.0,0.0,0.0,0.0,0.0,6.076,6.143,6.1376,6.2041,6.3429,6.2683,6.2303,6.2295,6.241,6.2886,6.3588,6.3472,0.0,6.3656,6.4377,0.0,0.0,0.0,0.0,0.0,0.0,0.0,0.0,0.0,0.0,0.0,0.0,0.0,0.0,0.0,0.0,0.0,0.0,0.0,0.0,0.0,0.0,6.5478,6.6182,6.6329,6.6733,0.0,6.6763,6.5515,6.6219,0.0,0.0,0.0,0.0,0.0,0.0,0.0,0.0,7.105,7.1123,7.1424,7.2121,7.2165,7.2165,7.2165,7.2165,7.2165,7.2165,7.1534,7.1123,7.1123,7.0477,0.0,0.0,0.0,0.0,0.0,0.0,0.0,0.0,0.0,0.0,0.0,0.0,0.0,0.0,0.0,0.0,0.0,0.0,0.0,0.0,0.0,0.0,0.0,0.0,0.0,0.0,0.0,0.0,0.0,5.5014,5.522,5.5859,5.6164,5.6722,0.0,0.0,0.0,0.0,0.0,0.0,0.0,0.0,0.0,6.0487,6.125,6.1803,6.2164,6.2134,6.2483,6.3176,6.2766,6.2583,6.2583,6.2583,6.2825,6.3183,6.3647,6.3862,6.4014,6.4914,6.5288,6.5288,0.0,0.0,0.0,0.0,0.0,6.5288,6.5288,0.0,0.0,0.0,0.0,0.0,0.0,0.0,0.0,0.0,0.0,0.0,0.0,0.0,0.0,6.8348,6.8531,6.8722,6.9412,6.8752,6.8091,0.0,6.8795,6.9162,6.9522,0.0,0.0,0.0,0.0,0.0,7.1938,7.1975,7.2121,7.2452,7.2488,7.2488,7.2488,7.2488,7.2488,7.2488,7.2158,7.1975,7.1975,7.1651,7.1248,0.0,0.0,0.0,0.0,0.0,0.0,0.0,0.0,0.0,0.0,0.0,0.0,0.0,0.0,0.0,0.0,0.0,0.0,0.0,0.0,0.0,0.0,0.0,0.0,0.0,0.0,0.0,0.0,5.5607,5.6068,5.7843,5.7558,5.7873,0.0,0.0,0.0,0.0,0.0,0.0,6.0032,6.0595,6.1058,6.1474,6.2196,6.2584,6.2591,6.2575,6.2778,6.3165,6.2921,6.2951,6.3117,6.3117,6.3245,6.3464,6.4079,6.4469,6.4722,6.5084,6.5206,6.5206,6.5206,6.536,6.5566,6.5566,6.5723,6.5955,6.6139,6.6212,6.6249,6.6469,0.0,6.6543,6.6543,0.0,0.0,0.0,0.0,6.754,6.8171,0.0,6.9376,6.997,7.0117,7.0153,7.0367,7.0403,7.033,0.0,7.0257,7.0403,7.0403,0.0,0.0,0.0,0.0,7.2488,7.2488,7.2488,7.2488,7.2488,7.2488,7.2488,7.2488,7.2488,7.2488,7.2488,7.2488,7.2488,7.2488,7.2488,7.2232,7.1637,0.0,0.0,0.0,0.0,0.0,0.0,0.0,0.0,0.0,0.0,0.0,0.0,0.0,0.0,0.0,0.0,0.0,0.0,0.0,0.0,0.0,0.0,0.0,0.0,0.0,0.0,0.0,0.0,0.0,5.8153,5.8048,0.0,0.0,0.0,0.0,6.0174,6.0917,6.1652,6.237,6.2477,6.2139,6.1441,6.2195,6.2604,6.2613,6.2542,6.3243,6.4682,6.3859,6.384,6.4484,6.4484,6.4942,6.5754,6.5789,6.6288,6.7019,6.5605,6.5024,6.5024,6.5024,6.5558,6.6355,6.6355,6.6865,6.7694,6.8458,6.8708,6.8855,6.9596,6.986,6.986,6.986,6.986,0.0,0.0,6.9896,6.9933,6.997,7.0007,7.0043,7.0073,7.0117,7.0293,7.1087,7.1233,7.1013,0.0,7.0727,7.1233,7.1233,0.0,7.2452,7.2452,7.2452,7.2488,7.2488,7.2488,7.2488,7.2488,7.2488,7.2488,7.2488,7.2488,7.2488,7.2488,7.2488,7.2488,7.2488,7.2488,7.2496,7.2452,7.1674,0.0,0.0,0.0,0.0,0.0,0.0,0.0,0.0,0.0,0.0,0.0,0.0,0.0,0.0,0.0,0.0,0.0,0.0,0.0,0.0,0.0,0.0,0.0,0.0,0.0,0.0,0.0,0.0,5.871,5.8765,0.0,6.0171,6.0488,6.0729,6.1,6.0756,6.0715,6.0991,6.1945,6.2338,6.2061,6.3252,6.3888,6.3889,6.385,6.4123,6.4688,6.4345,6.4343,6.4613,6.4613,6.4782,6.5053,6.5053,6.526,6.5531,6.4956,6.5424,6.653,6.7161,6.7596,6.795,6.8575,6.8977,6.9272,6.9559,6.9669,6.9706,7.0007,7.0117,7.0117,7.0117,7.0117,7.0117,7.0117,7.0117,7.022,7.0727,7.0874,7.0984,7.1505,7.1651,7.1725,7.2011,7.2085,7.2121,7.2349,7.2239,7.2085,7.2085,7.2753,7.3266,7.3266,7.37,7.403,7.403,7.403,7.403,7.403,7.403,7.403,7.403,7.403,7.381,7.3303,7.3266,7.3046,7.2525,7.2488,7.2488,7.2488,7.2232,7.2085,0.0,0.0,0.0,0.0,0.0,0.0,0.0,0.0,0.0,0.0,0.0,0.0,0.0,0.0,0.0,0.0,0.0,0.0,0.0,0.0,0.0,0.0,0.0,0.0,0.0,0.0,5.8167,5.9799,5.9665,5.9987,6.1313,6.1146,6.1185,6.17,6.1185,6.1095,6.1603,6.2594,6.3135,6.3135,6.4072,6.4613,6.4613,6.4613,6.4715,6.4952,6.4952,6.5087,6.5347,6.5347,6.5347,6.5347,6.5347,6.5347,6.5347,6.5347,6.6053,6.7131,6.7271,6.7499,6.786,6.8798,6.9354,6.9719,7.0312,7.0697,7.0917,7.0917,7.0917,7.0917,7.0917,7.0917,7.0917,7.0917,7.0917,7.1027,7.1571,7.1901,7.2232,7.2789,7.312,7.3296,7.3296,7.3296,7.3479,7.4001,7.345,7.2973,7.3259,7.3744,7.4111,7.4111,7.4544,7.4903,7.4903,7.4903,7.4903,7.4903,7.4903,7.4903,7.4903,7.4903,7.4691,7.4147,7.4111,7.3744,7.2936,7.2899,7.2789,7.2496,7.2488,7.2488,7.2488,0.0,0.0,0.0,0.0,0.0,0.0,0.0,0.0,0.0,0.0,0.0,0.0,0.0,0.0,0.0,0.0,0.0,0.0,0.0,0.0,0.0,0.0,0.0,5.9243,5.92,5.9693,6.1274,6.0693,6.048,6.1352,6.0699,6.0825,6.2357,6.2458,6.3101,6.4512,6.4613,6.4647,6.4647,6.4647,6.4681,6.4681,6.4681,6.5063,6.5774,6.5774,6.617,6.6869,6.6869,6.6869,6.6869,6.6869,6.6869,6.6869,6.6869,6.6869,6.6734,6.5287,6.523,6.6087,6.7042,6.7937,6.8969,7.0705,7.1785,7.246,7.2481,7.2488,7.2488,7.2488,7.2525,7.2532,7.2532,7.2569,7.2562,7.2562,7.3156,7.3751,7.3751,7.4331,7.4903,7.4903,7.4903,7.494,7.4977,7.4368,7.4081,7.4801,7.494,7.4977,7.5014,7.505,0.0,7.5058,7.5058,7.5058,7.5058,7.5058,7.5058,7.5058,7.5014,7.5014,7.4977,7.494,7.4581,7.3788,7.3751,7.334,7.2562,7.2532,7.2525,7.2488,0.0,0.0,0.0,0.0,0.0,0.0,0.0,0.0,0.0,0.0,0.0,0.0,0.0,0.0,0.0,0.0,0.0,0.0,0.0,0.0,0.0,0.0,6.0757,6.0804,6.0233,5.9977,6.0421,6.0774,6.1269,6.2046,6.2402,6.2946,6.3903,6.4005,6.4174,6.458,6.5121,6.5402,6.5402,6.5933,6.6193,6.6193,6.6745,6.7083,6.7286,6.7895,6.8267,6.847,6.847,6.847,6.847,6.847,6.847,6.847,6.847,6.847,6.8376,6.7527,6.7349,6.7705,6.868,6.9184,6.9598,7.0754,7.1306,7.1588,7.2277,7.2488,7.2488,7.2488,7.2899,7.3384,7.3384,7.3773,7.425,7.425,7.4397,7.4581,7.4581,7.4727,7.4903,7.4903,7.5351,7.5939,7.6518,7.6966,7.6937,7.5946,7.6261,7.6848,7.7488,7.8075,0.0,7.845,7.845,7.845,7.845,7.845,7.845,7.845,7.7928,7.7297,7.6665,7.6085,7.5425,7.4581,7.4581,7.4184,7.3384,7.3384,7.3083,0.0,0.0,0.0,0.0,0.0,0.0,0.0,0.0,0.0,0.0,0.0,0.0,0.0,0.0,0.0,0.0,0.0,0.0,0.0,0.0,0.0,0.0,6.157,6.1581,6.218,6.1312,6.0723,6.1037,6.1738,6.2516,6.326,6.37,6.4265,6.503,6.5063,6.5189,6.5527,6.6203,6.662,6.662,6.7354,6.7749,6.7749,6.8199,6.8402,6.8402,6.8876,6.9113,6.9113,6.9113,6.9113,0.0,6.9113,6.9113,6.9113,6.9113,6.9113,0.0,0.0,0.0,0.0,0.0,7.0272,7.0699,7.1254,7.1434,7.1519,7.2062,7.2514,7.289,7.289,7.3506,7.4184,7.4184,7.4544,7.4903,7.4903,7.5417,7.5894,7.5894,7.6452,7.6937,7.6937,7.7312,7.7789,7.8251,0.0,0.0,7.8259,7.8251,7.8516,7.9037,7.9515,7.9644,0.0,7.9139,7.896,7.8459,7.8415,7.8607,7.9105,7.8701,0.0,0.0,0.0,7.7121,7.5968,7.527,0.0,0.0,0.0,7.3964,0.0,0.0,0.0,0.0,7.2386,7.2018,0.0,0.0,0.0,0.0,0.0,0.0,0.0,0.0,0.0,0.0,0.0,0.0,0.0,0.0,0.0,0.0,6.2089,6.2144,6.3453,6.2506,6.1907,6.256,6.3226,6.3927,6.4647,6.4715,6.5053,6.5876,6.5943,6.6271,6.7005,0.0,0.0,0.0,0.0,6.9113,6.9113,6.9271,6.935,6.935,6.9519,6.9586,6.9586,6.9586,6.9586,6.9586,6.9586,6.9586,6.9586,6.9586,6.9586,6.9553,6.9214,6.9113,6.9198,7.0045,7.0867,0.0,0.0,0.0,0.0,7.1871,7.2593,7.3408,7.3516,7.4315,7.5145,7.5121,7.5269,7.5439,7.5297,7.6405,7.7552,7.7422,7.855,7.9628,7.9628,7.9775,7.9885,7.9877,8.0023,8.0357,8.0929,8.0406,7.996,8.0003,8.0023,0.0,7.8666,7.8531,7.8157,7.7126,0.0,0.0,7.8513,7.8521,7.8826,7.969,7.9665,7.9008,7.7648,7.6225,7.5351,7.516,7.516,7.5087,7.4903,7.4903,7.4903,7.4867,7.3443,7.2782,0.0,0.0,0.0,0.0,0.0,0.0,0.0,0.0,0.0,0.0,0.0,0.0,0.0,0.0,0.0,6.3392,6.3685,6.4072,6.4343,6.414,6.4005,6.4174,6.4309,6.4681,6.5402,6.5503,6.6045,6.7354,6.7455,6.7827,6.8605,6.8808,6.8876,6.8876,6.9011,6.9113,6.9113,7.0286,7.0861,7.0894,0.0,0.0,7.2642,7.2642,7.2642,7.2642,7.2642,7.2642,7.2642,7.2642,7.2642,7.2406,7.0026,6.9113,6.9101,6.9283,6.9508,6.9736,7.0505,7.0759,7.0897,7.1657,7.2593,7.3516,7.4165,7.5516,0.0,7.6571,7.7636,7.8652,7.7796,7.8418,7.9112,7.8223,7.826,7.8522,7.8522,7.9545,8.045,8.0369,8.1391,8.2057,8.1295,8.0937,8.0906,8.13,8.1319,8.117,8.0692,8.0613,8.0542,8.0292,8.0272,8.0504,8.099,8.0442,7.9883,7.9508,7.8857,7.8756,7.9299,7.9001,7.8222,7.6848,7.6841,7.6188,7.4903,7.4903,7.4903,7.4903,7.4573,7.4426,0.0,0.0,0.0,0.0,0.0,0.0,0.0,0.0,0.0,0.0,0.0,6.3397,6.2557,0.0,6.4566,6.4119,6.4367,6.4715,6.5097,6.5165,6.5165,6.5165,6.5165,6.5605,6.6688,6.6789,6.7252,6.8402,6.8504,6.8673,6.9079,6.9789,7.0184,7.0184,7.0906,7.1289,7.1289,7.2022,7.2394,7.2428,7.315,7.3488,7.3488,7.3488,7.3488,7.3488,7.3488,7.3488,7.3488,7.3488,7.3488,7.3353,7.1898,7.1289,7.1289,7.1289,7.1289,7.1367,7.1828,7.2013,7.2065,7.2561,7.3392,7.4286,7.4684,7.5778,7.6884,7.6721,7.7388,7.8027,7.7482,7.8755,8.0084,7.953,7.9982,8.0559,8.0559,8.0727,8.088,8.085,8.1513,8.1864,8.1295,8.1126,8.1166,8.1412,8.1441,8.1196,8.0503,8.0397,8.0179,7.9669,7.9612,7.9874,8.0588,8.0768,8.0949,8.1154,8.0036,7.9857,8.0951,8.022,7.9404,7.8581,7.8552,7.8148,7.7341,7.7341,7.7341,7.7341,7.7341,7.6452,0.0,0.0,0.0,0.0,0.0,0.0,0.0,6.3196,6.2924,6.3719,6.3796,6.3714,6.3714,6.4333,6.4816,6.4816,6.4918,6.529,6.6011,6.6112,6.618,6.6349,6.6214,6.6654,6.7996,6.8132,6.847,6.9248,6.9451,6.9586,6.9722,7.0996,7.174,7.174,7.2879,7.3488,7.3488,7.3624,7.3793,7.3928,7.4097,7.4233,7.4368,7.4368,7.4368,7.4368,7.4368,7.4368,7.4368,7.4368,7.4368,7.4368,7.4368,7.4368,7.43,7.3737,7.3488,7.3488,7.3488,7.3488,7.3488,7.3488,7.417,7.5054,7.5377,7.6146,7.6979,7.7077,7.7238,7.7358,7.7148,7.8911,8.0658,8.046,8.1343,8.2275,8.2275,8.1647,8.1123,8.1123,8.1229,8.1271,8.1034,8.0991,8.1032,8.1081,8.1113,8.0775,7.9845,7.9729,7.939,7.8539,7.8428,7.8793,7.9729,8.0456,8.1367,8.2507,8.135,8.1156,8.2291,8.1289,8.0587,8.0249,8.0257,8.011,7.9816,7.9816,7.9816,7.9816,7.9816,7.8376,6.1425,6.193,6.2626,6.3395,6.2999,6.261,0.0,6.3454,6.3589,6.4345,6.4491,6.4478,6.4478,6.5097,6.5571,6.5571,6.6136,6.6802,6.7557,6.7658,6.7929,6.8639,6.8098,6.7996,6.8876,6.8977,6.9282,7.0003,7.0658,7.1334,7.1988,7.2812,7.3251,7.3251,7.3421,7.3488,7.3488,7.4153,7.483,7.5473,7.6183,7.6872,7.7481,7.7481,7.7481,7.7481,7.7481,7.7481,7.7481,7.7481,7.7481,7.7481,7.7481,7.7481,7.7176,7.4469,7.3488,7.3488,7.3488,7.3488,7.3488,7.3488,7.417,7.5273,7.6645,7.7776,7.8735,7.9132,7.9937,8.0442,7.9493,8.0195,8.0892,7.9958,7.9855,7.9959,7.9959,8.0414,8.0821,8.0765,8.1308,8.1516,8.0504,8.0294,8.0402,8.0697,8.0753,8.0593,8.0177,8.0117,8.0101,7.9951,7.9938,8.0109,8.0559,8.0095,8.0258,8.1315,8.1287,8.1694,8.2782,8.3625,8.3398,8.1974,8.1937,8.124,7.9816,7.9816,7.9816,7.9816,7.9816,7.9596,6.3226,6.3463,6.3776,6.4132,6.3951,6.3768,6.4072,6.413,6.4231,6.4546,6.4952,6.5233,6.5233,6.5831,6.6339,6.6339,6.6948,6.7557,6.7861,6.8301,6.8876,6.9654,6.9823,6.9857,6.9755,7.0128,7.0703,7.1413,7.2157,7.2699,7.3015,7.3747,7.4322,7.4774,7.5248,7.5687,7.6093,7.642,7.6724,7.7041,7.7379,7.7718,7.7988,7.7988,7.7988,7.7988,7.7988,7.7988,7.7988,7.7988,7.7988,7.7988,7.7988,7.7988,7.7853,7.6567,7.6127,7.6127,7.6127,7.6127,7.6127,7.6127,7.6393,7.6859,7.7497,7.8018,7.8408,7.863,7.9002,7.9235,7.8801,7.9822,8.0842,8.0384,8.0616,8.0951,8.0951,8.0667,8.0448,8.0424,8.0675,8.0767,8.0276,8.0209,8.0262,8.0373,8.0412,8.0365,8.0217,8.0209,8.0209,8.0209,8.0209,8.0253,8.0409,8.0151,8.0415,8.1539,8.1814,8.243,8.3552,8.4257,8.4278,8.3618,8.3581,8.3251,8.259,8.259,8.259,8.259,8.259,8.259,6.4613,6.4613,6.4613,6.4613,6.4613,6.4647,6.485,6.4884,6.4952,6.5155,6.5628,6.6011,6.6011,6.644,6.6869,6.7072,6.7557,6.803,6.847,6.9214,6.9992,7.0714,7.1447,7.1718,7.1154,7.1582,7.2124,7.2665,7.3375,7.3894,7.4097,7.483,7.5574,7.6318,7.6893,7.7468,7.7988,7.7988,7.809,7.8293,7.8293,7.8428,7.8597,7.8597,7.8597,7.8597,7.8597,7.8597,7.8597,7.8597,7.8597,7.8597,7.8597,7.8597,7.8597,7.8597,7.836,7.7988,7.7988,7.7988,7.7988,7.7988,7.7988,7.8022,7.8259,7.8293,7.836,7.8563,7.8597,7.8597,7.8597,7.9612,8.0647,8.0647,8.106,8.1439,8.1439,8.0792,8.0209,8.0209,8.0209,8.0209,8.0209,8.0209,8.0209,8.0209,8.0209,8.0209,8.0209,8.0209,8.0209,8.0209,8.0209,8.0209,8.0209,8.0209,8.0554,8.1379,8.1946,8.2757,8.3918,8.451,8.483,8.4931,8.4939,8.4829,8.4609,8.4609,8.4609,8.4609,8.4609,8.4609,6.4613,6.4613,6.4613,6.4613,6.4613,6.4783,6.5503,6.5672,6.5876,6.6599,6.6768,6.6768,6.6768,6.6768,6.7039,6.776,6.7895,6.8402,6.9902,7.077,7.1503,7.2259,7.2981,7.3421,0.0,7.3421,7.3454,7.3454,7.4153,7.4886,7.5608,7.6386,7.7176,7.7921,7.7954,7.7988,7.7988,7.7988,7.8348,7.908,7.908,7.9418,8.0141,8.0141,8.0141,8.0141,8.0141,8.0141,8.0141,8.0141,8.0141,8.0141,8.0141,8.0141,8.0141,8.0141,7.9228,7.7988,7.7988,7.7988,7.7988,7.7988,7.7988,7.8124,7.8843,7.908,7.9215,7.9938,8.0141,8.0141,8.0141,8.0166,8.0204,8.0204,8.0238,8.0238,8.0238,8.02,8.0209,8.0209,8.0209,8.0209,8.0209,8.0209,8.0209,8.0209,8.0209,8.0209,8.0209,8.0209,8.0209,8.0209,8.0209,8.0209,8.0209,8.0209,8.0221,8.0238,8.1307,8.2424,8.3585,8.4697,8.5426,8.5775,8.5755,8.5388,8.4609,8.4609,8.4609,8.4609,8.4609,8.4609,6.6058,6.6058,6.6058,6.6058,6.6058,6.6125,6.6373,6.644,6.6497,6.6768,6.6802,6.6937,6.7444,6.7523,6.7793,6.8571,6.9113,6.9766,7.0804,7.1571,7.2293,7.3048,7.3781,7.4424,0.0,0.0,0.0,7.4909,7.5676,7.6454,7.7176,7.7481,7.7988,7.872,7.872,7.8957,7.9431,7.9477,7.9566,7.9837,7.9837,7.9972,8.0209,8.0209,8.0209,8.0209,8.0209,8.0209,8.0209,8.0209,8.0209,8.0209,8.0209,8.0209,8.0209,8.0209,7.987,7.9477,7.9477,7.9477,7.9477,7.9477,7.9477,7.9511,7.9769,7.9837,7.987,8.0141,8.0209,8.0209,8.0209,8.0209,8.0209,8.0209,8.0209,8.0209,8.0209,8.0209,8.0209,8.0209,8.0209,8.0209,8.0209,8.0209,8.0209,8.0209,8.0209,8.0209,8.0209,8.0209,8.0209,8.0209,8.0209,8.0209,8.0209,8.0209,8.0209,8.0209,8.1247,8.2072,8.2448,8.3554,8.4585,8.5444,8.5472,8.5709,8.6179,8.6179,8.6179,8.6179,8.6179,8.6179,6.6802,6.6802,6.6802,6.6802,6.6802,6.6802,6.6802,6.6802,6.6802,6.6802,6.7005,6.7354,6.7793,6.8132,6.8571,6.935,7.0094,7.0838,7.1571,7.2552,7.3375,7.3849,7.4796,7.5596,7.6082,0.0,7.6014,7.6487,7.7007,7.7604,7.8348,7.8382,7.872,7.9452,7.9486,7.9735,8.0209,8.0209,8.0209,8.0209,8.0209,8.0209,8.0209,8.0209,8.0209,8.0209,8.0209,8.0209,8.0209,8.0209,8.0209,8.0209,8.0209,8.0209,8.0209,8.0209,8.0209,8.0209,8.0209,8.0209,8.0209,8.0209,8.0209,8.0209,8.0209,8.0209,8.0209,8.0209,8.0209,8.0209,8.0209,8.0209,8.0209,8.0209,8.0209,8.0209,8.0209,8.0209,8.0209,8.0209,8.0209,8.0209,8.0209,8.0412,8.0682,8.0953,8.0987,8.0784,8.0276,8.0209,8.0209,8.0209,8.0209,8.0209,8.0209,8.0209,8.0209,8.0209,8.088,8.1652,8.2459,8.2828,8.3891,8.5862,8.5515,8.5852,8.6986,8.6986,8.6986,8.6986,8.6986,8.6986,6.6802,6.6802,6.6802,6.6802,6.6802,6.6802,6.6802,6.6802,6.6802,6.6802,6.7377,6.7895,6.7963,6.8605,6.9417,7.0206,7.0906,7.1639,7.2394,7.3702,7.4649,7.4717,7.6002,7.6927,0.0,0.0,0.0,7.809,0.0,7.8382,7.9114,7.9147,7.9486,8.0175,8.0209,8.0209,8.0209,8.0209,8.0209,8.0209,8.0209,8.0209,8.0209,8.0209,8.0209,8.0209,8.0209,8.0209,8.0209,8.0209,8.0209,8.0209,8.0209,8.0209,8.0209,8.0209,8.0209,8.0209,8.0209,8.0209,8.0209,8.0209,8.0209,8.0209,8.0209,8.0209,8.0209,8.0209,8.0209,8.0209,8.0209,8.0209,8.0209,8.0209,8.0209,8.0209,8.0209,8.0242,8.0242,8.0242,8.0276,8.031,8.031,8.0898,8.1608,8.2293,8.2395,8.1887,8.0479,8.031,8.031,8.031,8.031,8.031,8.0242,8.0242,8.0242,8.0209,8.0209,8.1162,8.3342,8.238,8.3382,8.6749,8.5768,8.5806,8.6986,8.6986,8.6986,8.6986,8.6986,8.6986,6.6802,6.6802,6.6802,6.6802,6.6802,6.6802,6.6802,6.6802,6.6802,6.6802,6.7377,6.8098,6.8673,6.9428,7.0342,7.1616,7.1988,7.2563,7.3871,7.4345,7.5021,7.6183,7.6657,7.7333,7.8437,7.8708,0.0,0.0,7.9126,7.916,7.987,7.9938,8.0006,8.0175,8.0209,8.0209,8.0209,8.0209,8.0209,8.0209,8.0209,8.0209,8.0209,8.0209,8.0209,8.0209,8.0209,8.0209,8.0209,8.0209,8.0209,8.0209,8.0209,8.0209,8.0209,8.0209,8.0209,8.0209,8.0209,8.0209,8.0209,8.0209,8.0209,8.0209,8.0209,8.0209,8.0209,8.0209,8.0209,8.0209,8.0209,8.0209,8.0209,8.0209,8.0209,8.0209,8.0209,8.0615,8.1033,8.1033,8.146,8.182,8.182,8.2002,8.2171,8.2361,8.2395,8.2259,8.1887,8.182,8.182,8.182,8.182,8.1629,8.1067,8.1033,8.0796,8.0242,8.0209,8.0442,8.1051,8.0792,8.184,8.4411,8.4196,8.5016,8.6986,8.6986,8.6986,8.6986,8.6986,8.6986,6.6802,6.6802,6.6802,6.6802,6.6802,6.6802,6.6802,6.6802,6.6903,6.7208,6.7884,6.8673,6.9451,7.0195,7.1075,7.2225,7.2665,7.3274,7.4446,7.519,7.5946,7.6792,7.7468,7.82,7.9012,7.9384,7.9756,0.0,7.9837,7.9769,8.0175,8.0209,8.0209,8.0209,8.0209,8.0209,8.0209,8.0209,8.0209,8.0209,8.0209,8.0209,8.0209,8.0209,8.0209,8.0209,0.0,8.0209,8.0209,8.0209,8.0378,8.0695,8.0695,8.0885,8.1156,8.1156,8.1156,8.1156,8.1156,8.1156,8.1054,8.0412,8.0209,8.0209,8.0209,8.0209,8.0209,8.0209,8.0209,8.0276,8.0581,8.0695,8.075,8.1088,8.1156,8.1156,8.1156,8.1494,8.1765,8.1765,8.2137,8.2496,8.2847,8.2881,8.297,8.3308,8.3375,8.3375,8.3375,8.28,8.2395,8.2395,8.2395,8.2238,8.1832,8.1765,8.1596,8.119,8.1156,8.1253,8.1417,8.0964,8.1579,8.3568,8.361,8.4472,8.6265,8.6749,8.6986,8.6986,8.6986,8.6986,6.6802,6.6869,6.6937,6.6937,6.7039,6.7106,6.7106,6.7106,6.7275,6.7929,6.8707,6.9451,7.0071,7.0804,7.1571,7.2428,7.3082,7.3827,7.4784,7.6048,7.6961,7.7164,7.8302,7.9147,7.9249,7.9824,8.0209,8.0209,8.0209,8.0209,8.0209,8.0209,8.0209,8.0209,8.0209,8.0209,8.0209,8.0209,8.0209,8.0209,8.0209,8.0209,8.0209,8.031,8.0344,8.0344,0.0,0.0,8.0479,8.0479,8.0851,8.1439,8.1439,8.1832,8.2395,8.2395,8.2395,8.2395,8.2395,8.2395,8.2192,8.0919,8.0479,8.0479,8.0479,8.0479,8.0479,8.0479,8.0479,8.0648,8.127,8.1439,8.1608,8.2272,8.2395,8.2395,8.2395,8.2462,8.2564,8.2665,8.2699,8.2902,8.3524,8.3659,8.3862,8.4512,8.4614,8.4614,8.4614,8.3477,8.2699,8.2699,8.2699,8.2665,8.253,8.253,8.2496,8.2395,8.2395,8.2547,8.2928,8.1979,8.2146,8.3649,8.3657,8.4221,8.5353,8.6402,8.6932,8.6904,8.6999,8.6986,6.6802,6.7242,6.7726,6.7726,6.8199,6.8707,6.8707,6.8707,6.8741,6.8876,6.9485,7.0037,7.0172,7.0804,7.174,7.3082,7.3421,7.4199,7.6217,7.6724,7.7367,7.8572,7.8945,7.935,7.9938,8.0107,8.0209,8.0209,8.0209,8.0209,8.0209,8.0209,8.0209,8.0209,8.0209,8.0209,8.0209,8.0209,8.0209,8.0209,8.0209,8.0209,8.0209,8.083,8.1101,8.1135,8.1765,0.0,8.2022,8.2022,8.209,8.2192,8.2192,8.2293,8.2395,8.2395,8.2395,8.2395,8.2395,8.2395,8.2361,8.209,8.2022,8.2022,8.2022,8.2022,8.2022,8.2022,8.2022,8.2056,8.2171,8.2192,8.2225,8.2361,8.2395,8.2395,8.2395,8.2881,8.349,8.412,8.4221,8.4242,8.4377,8.4424,8.4444,8.458,8.4614,8.4614,8.4614,8.4377,8.4221,8.4221,8.4221,8.3984,8.3355,8.3321,8.305,8.2428,8.2395,8.243,8.2492,8.2321,8.2762,8.3994,8.403,8.4585,8.5703,8.6261,8.6492,8.6511,8.6855,8.6986,6.6802,6.7354,6.7895,6.7895,6.8504,6.9113,6.9113,6.9113,6.9214,6.9586,6.9969,7.0308,7.0703,7.1379,7.2225,7.3319,7.3827,7.4728,7.6623,7.7232,7.7874,7.8978,7.9418,7.9803,8.0175,8.0209,8.0209,8.0209,8.0209,8.0209,8.0209,8.0209,8.0209,8.0209,8.0209,8.0209,8.0209,8.0209,8.0209,8.0209,8.0593,8.0763,8.0796,8.1541,8.1866,8.19,8.2272,0.0,8.2395,8.2395,8.2644,8.2983,8.2983,8.3206,8.3531,8.3531,8.3531,8.3531,8.3531,8.3531,8.3531,8.3531,8.3037,8.2395,8.2395,8.2395,8.2395,8.2395,8.2395,8.2496,8.2881,8.2983,8.3084,8.3443,8.3531,8.3531,8.3531,8.3815,8.4187,8.4512,8.4614,8.4614,8.4614,8.4614,8.4614,8.4614,8.4614,8.4614,8.4614,8.4614,8.4614,8.4614,8.4614,8.4444,8.4086,8.4052,8.3917,8.3578,8.3531,8.3375,8.2983,8.2983,8.3044,8.3201,8.44,8.5311,8.5867,8.7253,8.7949,8.7958,8.8159,8.8262,6.6802,6.7354,6.7929,6.8098,6.8741,6.935,6.935,6.9451,6.9688,7.0105,7.0342,7.0601,7.1199,7.1909,7.2631,7.3387,7.4119,7.519,7.6893,7.765,7.8314,7.9215,7.987,8.0209,8.0209,8.0209,8.0209,8.0209,8.0209,8.0209,8.0209,8.0209,8.0209,8.0209,8.0209,8.0209,8.0209,8.0209,8.0276,8.0445,8.1033,8.1372,8.1575,8.2306,8.2631,8.2631,8.28,0.0,0.0,8.2868,8.3206,8.3727,8.3727,8.4086,8.4614,8.4614,8.4614,8.4614,8.4614,8.4614,8.4614,8.4614,8.3802,8.2868,8.2868,8.2868,8.2868,8.2868,8.2868,8.3003,8.3592,8.3727,8.3896,8.4444,8.4614,8.4614,8.4614,8.4614,8.4614,8.4614,8.4614,8.4614,8.4614,8.4614,8.4614,8.4614,8.4614,8.4614,8.4614,8.4614,8.4614,8.4614,8.4614,8.4614,8.4614,8.4614,8.4614,8.4614,8.4614,8.4356,8.3761,8.3727,8.3456,8.2868,8.4683,8.561,8.5621,8.7825,8.8871,8.888,8.9239,8.94,6.6802,6.7354,6.8064,6.8808,6.9563,7.0105,7.0105,7.0635,7.0928,7.0308,7.0737,7.1233,7.13,7.1909,7.2631,7.3387,7.4119,7.5359,7.7582,7.7954,7.853,7.9938,8.0175,8.0209,8.0209,8.0209,8.0209,8.0209,8.0209,8.0209,8.0209,8.0209,8.0209,8.0209,8.0209,8.0209,8.0209,8.0209,8.056,8.1202,8.127,8.1642,8.2327,8.305,8.3389,8.3422,8.412,0.0,0.0,8.4411,8.4444,8.4512,8.4512,8.4546,8.4614,8.4614,8.4614,8.4614,8.4614,8.4614,8.4614,8.4614,8.4512,8.4411,8.4411,8.4411,8.4411,8.4411,8.4411,8.4411,8.4478,8.4512,8.4512,8.458,8.4614,8.4614,8.4614,8.4614,8.4614,8.4614,8.4614,8.4614,8.4614,8.4614,8.4614,8.4614,8.4614,8.4614,8.4614,8.4614,8.4614,8.4614,8.4614,8.4614,8.4614,8.4614,8.4614,8.4614,8.4614,8.458,8.4512,8.4512,8.4478,8.4411,8.4595,8.4726,8.4726,8.6394,8.7223,8.7267,8.8736,8.94,6.6802,6.7354,6.7963,6.8301,6.8944,6.9553,6.9553,6.9755,7.0026,7.0172,7.0432,7.077,7.1233,7.1909,7.2631,7.3387,7.4119,7.5405,7.7684,7.7988,7.8563,8.0006,8.0209,8.0209,8.0209,8.0209,8.0209,8.0209,8.0209,8.0209,8.0209,8.0209,8.0209,8.0209,8.0209,8.0412,8.0864,8.0864,8.1236,8.1968,8.2408,8.278,8.3084,8.3815,8.4153,8.4187,8.4478,0.0,0.0,8.4614,8.4614,8.4614,8.4614,8.4614,8.4614,8.4614,8.4614,8.4614,8.4614,8.4614,8.4614,8.4614,8.4614,8.4614,8.4614,8.4614,8.4614,8.4614,8.4614,8.4614,8.4614,8.4614,8.4614,8.4614,8.4614,8.4614,8.4614,8.4614,8.4614,8.4614,8.4614,8.4614,8.4614,8.4614,8.4614,8.4614,8.4614,8.4614,8.4614,8.4614,8.4614,8.4614,8.4614,8.4614,8.4614,8.4614,8.4614,8.4614,8.4614,8.4614,8.4614,8.4614,8.4614,8.4614,8.5318,8.5672,8.5684,8.7095,8.8128,8.8815,8.9468,9.0158,6.6802,6.7174,6.7624,6.7861,6.8335,6.8741,6.8741,6.8944,6.9248,6.9766,7.0037,7.0443,7.1165,7.1909,7.2631,7.3387,7.4119,7.5405,7.7684,7.7988,7.8563,8.0006,8.0209,8.0209,8.0209,8.0209,8.0209,8.0209,8.0209,8.0209,8.0209,8.0209,8.0209,8.0209,8.0412,8.0763,8.1304,8.1507,8.2002,8.2733,8.3253,8.3625,8.3862,8.4356,8.4614,8.4614,0.0,0.0,0.0,8.4614,8.4614,8.4614,8.4614,8.4614,8.4614,8.4614,8.4614,8.4614,8.4614,8.4614,8.4614,8.4614,8.4614,8.4614,8.4614,8.4614,8.4614,8.4614,8.4614,8.4614,8.4614,8.4614,8.4614,8.4614,8.4614,8.4614,8.4614,8.4614,8.4614,8.4614,8.4614,8.4614,8.4614,8.4614,8.4614,8.4614,8.4614,8.4614,8.4614,8.4614,8.4614,8.4614,8.4614,8.4614,8.4614,8.4614,8.4614,8.4614,8.4614,8.4614,8.4614,8.4614,8.4614,8.4614,8.5425,8.5887,8.5887,8.7115,8.8133,8.8949,8.9662,9.0647,6.6802,6.6802,6.7005,6.7726,6.7895,6.7895,6.7895,6.8538,6.9113,6.9113,6.9699,7.0443,7.1165,7.1909,7.2631,7.3387,7.4119,7.5405,7.7684,7.7988,7.8563,8.0006,8.0209,8.0209,8.0209,8.0209,8.0209,8.0209,8.0209,0.0,8.0209,8.0209,8.0209,8.0209,8.0898,8.1304,8.1304,8.2035,8.2767,8.349,8.349,8.3896,8.458,8.4614,8.4614,0.0,0.0,0.0,0.0,8.4614,8.4614,8.4614,8.4614,8.4614,8.4614,8.4614,8.4614,8.4614,8.4614,8.4614,8.4614,8.4614,8.4614,8.4614,8.4614,8.4614,8.4614,8.4614,8.4614,8.4614,8.4614,8.4614,8.4614,8.4614,8.4614,8.4614,8.4614,8.4614,8.4614,8.4614,8.4614,8.4614,8.4614,8.4614,8.4614,8.4614,8.4614,8.4614,8.4614,8.4614,8.4614,8.4614,8.4614,8.4614,8.4614,8.4614,8.4614,8.4614,8.4614,8.4614,8.4614,8.4614,8.4614,8.4614,8.4593,8.4606,8.4606,8.5836,8.6426,8.65,8.8884,9.0647,6.6802,6.6802,6.6869,6.7106,6.714,6.714,6.714,6.7343,6.7817,6.8876,6.9282,6.9823,7.1064,7.1503,7.2056,7.3285,7.3691,7.4808,7.7616,7.7988,7.8563,8.0006,8.0209,8.0209,8.0209,8.0209,8.0209,8.0209,8.0209,8.0209,8.0209,8.0209,8.0412,8.0932,8.1169,8.1778,8.2793,8.305,8.3524,8.4255,8.4255,8.4377,8.4614,8.4614,8.4614,0.0,0.0,0.0,0.0,8.4614,8.4614,8.4614,8.4614,8.4614,8.4614,8.4614,8.4614,8.4614,8.4614,8.4614,8.4614,8.4614,8.4614,8.4614,8.4614,8.4614,8.4614,8.4614,8.4614,8.4614,8.4614,8.4614,8.4614,8.4614,8.4614,8.4614,8.4614,8.4614,8.4614,8.4614,8.4614,8.4614,8.4614,8.4614,8.4614,8.4614,8.4614,8.4614,8.4614,8.4614,8.4614,8.4614,8.4614,8.4614,8.4614,8.4614,8.4614,8.4614,8.4614,8.4614,8.4614,8.4614,8.4614,8.4614,8.4614,8.4614,8.4614,8.4961,8.6003,8.7666,8.9274,9.0178,6.6802,6.6802,6.6802,6.6802,6.6802,6.6802,6.6802,6.6802,6.7242,6.8774,6.9113,6.9542,7.103,7.1537,7.2124,7.3319,7.3725,7.4875,7.7616,7.7988,7.8563,8.0006,8.0209,8.0209,8.0209,8.0209,8.0209,8.0209,8.0209,8.0209,8.0209,8.0209,8.0682,8.1663,8.171,8.2272,8.349,8.3795,8.4153,8.4614,8.4614,8.4614,8.4614,8.4614,8.4614,0.0,0.0,0.0,0.0,8.4614,8.4614,8.4614,8.4614,8.4614,8.4614,8.4614,8.4614,8.4614,8.4614,8.4614,8.4614,8.4614,8.4614,8.4614,8.4614,8.4614,8.4614,8.4614,8.4614,8.4614,8.4614,8.4614,8.4614,8.4614,8.4614,8.4614,8.4614,8.4614,8.4614,8.4614,8.4614,8.4614,8.4614,8.4614,8.4614,8.4614,8.4614,8.4614,8.4614,8.4614,8.4614,8.4614,8.4614,8.4614,8.4614,8.4614,8.4614,8.4614,8.4614,8.4614,8.4614,8.4614,8.4614,8.4614,8.4614,8.4614,8.4614,8.4614,8.5604,8.7538,8.8302,8.8884,0.0,6.6802,6.6802,6.6802,6.6802,6.6802,6.6802,6.6802,0.0,6.8774,6.9113,6.9542,7.103,7.1909,7.2631,7.3387,7.4153,7.5473,7.7684,7.809,7.8665,8.004,8.0209,8.0209,8.0209,8.0209,8.0209,8.0209,8.0209,8.0209,8.0209,8.0209,8.0885,8.2361,8.2395,8.2767,8.3558,8.4255,8.4614,8.4614,8.4614,8.4614,8.4614,8.4614,8.4614,0.0,0.0,0.0,0.0,8.4614,8.4614,8.4614,8.4614,8.4614,8.4614,8.4614,8.4614,8.4614,8.4614,8.4614,8.4614,8.4614,8.4614,8.4614,8.4614,8.4614,8.4614,8.4614,8.4614,8.4614,8.4614,8.4614,8.4614,8.4614,8.4614,8.4614,8.4614,8.4614,8.4614,8.4614,8.4614,8.4614,8.4614,8.4614,8.4614,8.4614,8.4614,8.4614,8.4614,8.4614,8.4614,8.4614,8.4614,8.4614,8.4614,8.4614,8.4614,8.4614,8.4614,8.4614,8.4614,8.4614,8.4614,8.4614,8.4614,8.4614,8.4614,8.4614,8.5201,8.6402,8.6402,8.7008,6.6802,0.0,6.6802,6.6802,6.6802,6.6802,0.0,6.6802,6.7242,6.8774,6.9113,6.9542,7.103,7.1909,7.2631,7.3387,7.4605,7.6048,7.7751,7.8969,7.9803,8.0175,8.0209,8.0209,8.0209,8.0209,8.0209,8.0209,8.0209,8.0209,8.0209,8.0209,8.0885,8.2361,8.2395,8.3037,8.4323,8.4512,8.4614,8.4614,8.4614,8.4614,8.4614,8.4614,8.4614,0.0,0.0,0.0,8.4614,8.4614,8.4614,8.4614,8.4614,8.4614,8.4614,8.4614,8.4614,8.4614,8.4614,8.4614,8.4614,8.4614,8.4614,8.4614,8.4614,8.4614,8.4614,8.4614,8.4614,8.4614,8.4614,8.4614,8.4614,8.4614,8.4614,8.4614,8.4614,8.4614,8.4614,8.4614,8.4614,8.4614,8.4614,8.4614,8.4614,8.4614,8.4614,8.4614,8.4614,8.4614,8.4614,8.4614,8.4614,8.4614,8.4614,8.4614,8.4614,8.4614,8.4614,8.4614,8.4614,8.4614,8.4614,8.4614,8.4614,8.4614,8.4614,8.4614,8.5201,8.6402,8.6402,8.6538,6.6802,6.6802,6.6802,6.6802,6.6802,6.6802,6.6802,6.7072,6.7658,6.8842,6.9383,7.006,7.1548,7.2394,7.3138,7.3883,7.527,7.6792,7.828,7.9464,8.0209,8.0209,8.0209,8.0209,8.0209,8.0209,8.0209,8.0209,8.0209,8.0209,8.0209,8.0209,8.0885,8.2361,8.2395,8.3105,8.458,8.4614,8.4614,8.4614,8.4614,8.4614,8.4614,8.4614,8.4614,0.0,0.0,0.0,8.4614,8.4614,8.4614,8.4614,8.4614,8.4614,8.4614,8.4614,8.4614,8.4614,8.4614,8.4614,8.4614,8.4614,8.4614,8.4614,8.4614,8.4614,8.4614,8.4614,8.4614,8.4614,8.4614,8.4614,8.4614,8.4614,8.4614,8.4614,8.4614,8.4614,8.4614,8.4614,8.4614,8.4614,8.4614,8.4614,8.4614,8.4614,8.4614,8.4614,8.4614,8.4614,8.4614,8.4614,8.4614,8.4614,8.4614,8.4614,8.4614,8.4614,8.4614,8.4614,8.4614,8.4614,8.4614,8.4614,8.4614,8.4614,8.4614,8.4614,8.4943,8.5579,8.5579,8.5579,6.6802,6.6802,6.6802,6.6802,6.6802,6.6802,6.6802,6.7377,6.8132,6.8944,6.9699,7.0646,7.2124,7.3015,7.3725,7.448,7.598,7.757,7.9046,7.9803,8.0209,8.0209,8.0209,8.0209,8.0209,8.0209,8.0209,8.0209,8.0209,8.0209,8.0209,8.031,8.0987,8.2361,8.2496,8.3206,8.458,8.4614,8.4614,8.4614,8.4614,8.4614,8.4614,8.4614,8.4614,0.0,0.0,0.0,8.4614,8.4614,8.4614,8.4614,8.4614,8.4614,8.4614,8.4614,8.4614,8.4614,8.4614,8.4614,8.4614,8.4614,8.4614,8.4614,8.4614,8.4614,8.4614,8.4614,8.4614,8.4614,8.4614,8.4614,8.4614,8.4614,8.4614,8.4614,8.4614,8.4614,8.4614,8.4614,8.4614,8.4614,8.4614,8.4614,8.4614,8.4614,8.4614,8.4614,8.4614,8.4614,8.4614,8.4614,8.4614,8.4614,8.4614,8.4614,8.4614,8.4614,8.4614,8.4614,8.4614,8.4614,8.4614,8.4614,8.4614,8.4614,8.4614,8.4614,8.4614,8.4614,8.4614,8.4614,6.6802,6.6802,6.6802,6.6802,6.6802,6.6802,6.6802,6.7377,6.8132,6.8944,6.9699,7.0646,7.2124,7.3015,7.3725,7.448,7.642,7.836,7.9837,8.0141,8.0209,8.0209,8.0209,8.0209,8.0209,8.0209,8.0209,8.0209,8.0209,8.0209,8.0209,8.0796,8.1541,8.2361,8.3016,8.3761,8.458,8.4614,8.4614,8.4614,8.4614,8.4614,8.4614,8.4614,8.4614,0.0,0.0,8.4614,8.4614,8.4614,8.4614,8.4614,8.4614,8.4614,8.4614,8.4614,8.4614,8.4614,8.4614,8.4614,8.4614,8.4614,8.4614,8.4614,8.4614,8.4614,8.4614,8.4614,8.4614,8.4614,8.4614,8.4614,8.4614,8.4614,8.4614,8.4614,8.4614,8.4614,8.4614,8.4614,8.4614,8.4614,8.4614,8.4614,8.4614,8.4614,8.4614,8.4614,8.4614,8.4614,8.4614,8.4614,8.4614,8.4614,8.4614,8.4614,8.4614,8.4614,8.4614,8.4614,8.4614,8.4614,8.4614,8.4614,8.4614,8.4614,8.4614,8.4614,8.4614,8.4614,8.4614,8.4614,6.6802,6.6802,6.6802,6.6802,6.6802,6.6903,6.7309,6.7996,6.8774,6.953,7.0601,7.1729,7.2812,7.3578,7.4593,7.6183,7.7638,7.8957,8.004,8.0209,8.0209,8.0209,8.0209,8.0209,8.0209,8.0209,8.0209,8.0209,8.0209,8.0209,8.0209,8.0898,8.1642,8.2395,8.3118,8.3849,8.458,8.4614,8.4614,8.4614,8.4614,8.4614,8.4614,8.4614,8.4614,8.4614,0.0,8.4614,8.4614,8.4614,8.4614,8.4614,8.4614,8.4614,8.4614,8.4614,8.4614,8.4614,8.4614,8.4614,8.4614,8.4614,8.4614,8.4614,8.4614,8.4614,8.4614,8.4614,8.4614,8.4614,8.4614,8.4614,8.4614,8.4614,8.4614,8.4614,8.4614,8.4614,8.4614,8.4614,8.4614,8.4614,8.4614,8.4614,8.4614,8.4614,8.4614,8.4614,8.4614,8.4614,8.4614,8.4614,8.4614,8.4614,8.4614,8.4614,8.4614,8.4614,8.4614,8.4614,8.4614,8.4614,8.4614,8.4614,8.4614,8.4614,8.4614,8.4614,8.4614,8.4614,8.4614,8.4614,6.6802,6.6802,6.6802,6.6802,0.0,6.7208,6.776,6.8673,6.9553,7.0308,7.1481,7.2665,7.359,7.4525,7.5777,7.7684,7.8619,7.935,8.0107,8.0209,8.0209,8.0209,8.0209,8.0209,8.0209,8.0209,8.0209,8.0209,8.0209,8.0209,8.0209,8.1054,8.1832,8.2395,8.3274,8.4018,8.458,8.4614,8.4614,8.4614,8.4614,8.4614,8.4614,8.4614,8.4614,8.4614,8.4614,8.4614,8.4614,8.4614,8.4614,8.4614,8.4614,8.4614,8.4614,8.4614,8.4614,8.4614,8.4614,8.4614,8.4614,8.4614,8.4614,8.4614,8.4614,8.4614,8.4614,8.4614,8.4614,8.4614,8.4614,8.4614,8.4614,8.4614,8.4614,8.4614,8.4614,8.4614,8.4614,8.4614,8.4614,8.4614,8.4614,8.4614,8.4614,8.4614,8.4614,8.4614,8.4614,8.4614,8.4614,8.4614,8.4614,8.4614,8.4614,8.4614,8.4614,8.4614,8.4614,8.4614,8.4614,8.4614,8.4614,8.4614,8.4614,8.4614,8.4614,8.4614,8.4614,8.4614,8.4614,8.4614,6.6802,6.6802,6.6802,6.6802,6.7309,6.7827,6.7895,6.9056,0.0,7.1064,0.0,7.2834,7.4243,7.5731,7.6995,7.7853,7.8619,7.935,8.0107,8.0209,8.0209,8.0209,8.0209,8.0209,8.0209,8.0209,8.0209,8.0209,8.0209,8.0209,8.0209,8.1562,8.2361,8.2395,8.3781,8.4546,8.4614,8.4614,8.4614,8.4614,8.4614,8.4614,8.4614,8.4614,8.4614,8.4614,8.4614,8.4614,8.4614,8.4614,8.4614,8.4614,8.4614,8.4614,8.4614,8.4614,8.4614,8.4614,8.4614,8.4614,8.4614,8.4614,8.4614,8.4614,8.4614,8.4614,8.4614,8.4614,8.4614,8.4614,8.4614,8.4614,8.4614,8.4614,8.4614,8.4614,8.4614,8.4614,8.4614,8.4614,8.4614,8.4614,8.4614,8.4614,8.4614,8.4614,8.4614,8.4614,8.4614,8.4614,8.4614,8.4614,8.4614,8.4614,8.4614,8.4614,8.4614,8.4614,8.4614,8.4614,8.4614,8.4614,8.4614,8.4614,8.4614,8.4614,8.4614,8.4614,8.4614,8.4614,8.4614,8.4614,6.6802,6.6802,6.6903,6.7377,6.8064,0.0,0.0,6.9823,7.1097,7.1819,7.2924,0.0,0.0,7.6893,7.7819,7.8551,7.9295,7.987,8.0175,8.0209,8.0209,8.0209,8.0209,8.0209,8.0209,8.0209,8.0209,8.0209,8.0209,8.0209,8.0209,8.1583,8.2395,8.2395,8.3836,8.4614,8.4614,8.4614,8.4614,8.4614,8.4614,8.4614,8.4614,8.4614,8.4614,8.4614,8.4614,8.4614,8.4614,8.4614,8.4614,8.4614,8.4614,8.4614,8.4614,8.4614,8.4614,8.4614,8.4614,8.4614,8.4614,8.4614,8.4614,8.4614,8.4614,8.4614,8.4614,8.4614,8.4614,8.4614,8.4614,8.4614,8.4614,8.4614,8.4614,8.4614,8.4614,8.4614,8.4614,8.4614,8.4614,8.4614,8.4614,8.4614,8.4614,8.4614,8.4614,8.4614,8.4614,8.4614,8.4614,8.4614,8.4614,8.4614,8.4614,8.4614,8.4614,8.4614,8.4614,8.4614,8.4614,8.4614,8.4614,8.4614,8.4614,8.4614,8.4614,8.4614,8.4614,8.4614,8.4614,8.4614,6.6802,6.6802,6.6971,6.7726,0.0,0.0,6.9677,7.0759,7.1853,7.2597,7.4119,7.5642,7.6724,0.0,7.8517,7.9012,7.9735,8.0209,8.0209,8.0209,8.0209,8.0209,8.0209,8.0209,8.0209,8.0209,8.0209,8.0209,8.0209,8.031,8.0513,8.1731,8.2496,8.2733,8.395,8.4614,8.4614,8.4614,8.4614,8.4614,8.4614,8.4614,8.4614,8.4614,8.4614,8.4614,8.4614,8.4614,8.4614,8.4614,8.4614,8.4614,8.4614,8.4614,8.4614,8.4614,8.4614,8.4614,8.4614,8.4614,8.4614,8.4614,8.4614,8.4614,8.4614,8.4614,8.4614,8.4614,8.4614,8.4614,8.4614,8.4614,8.4614,8.4614,8.4614,8.4614,8.4614,8.4614,8.4614,8.4614,8.4614,8.4614,8.4614,8.4614,8.4614,8.4614,8.4614,8.4614,8.4614,8.4614,8.4614,8.4614,8.4614,8.4614,8.4614,8.4614,8.4614,8.4614,8.4614,8.4614,8.4614,8.4614,8.4614,8.4614,8.4614,8.4614,8.4614,8.4614,8.4614,8.4614,8.4614,8.4614,6.6802,6.6802,6.7005,6.7726,6.8504,6.9485,7.0962,7.1875,7.2631,7.3387,7.5337,7.6893,7.6927,7.8099,0.0,7.9114,7.9735,8.0209,8.0209,8.0209,8.0209,8.0209,8.0209,8.0209,8.0209,8.0209,8.0209,8.0209,8.0209,8.0513,8.127,8.2002,8.2746,8.349,8.4221,8.4614,8.4614,8.4614,8.4614,8.4614,8.4614,8.4614,8.4614,8.4614,8.4614,8.4614,8.4614,8.4614,8.4614,8.4614,8.4614,8.4614,8.4614,8.4614,8.4614,8.4614,8.4614,8.4614,8.4614,8.4614,8.4614,8.4614,8.4614,8.4614,8.4614,8.4614,8.4614,8.4614,8.4614,8.4614,8.4614,8.4614,8.4614,8.4614,8.4614,8.4614,8.4614,8.4614,8.4614,8.4614,8.4614,8.4614,8.4614,8.4614,8.4614,8.4614,8.4614,8.4614,8.4614,8.4614,8.4614,8.4614,8.4614,8.4614,8.4614,8.4614,8.4614,8.4614,8.4614,8.4614,8.4614,8.4614,8.4614,8.4614,8.4614,8.4614,8.4614,8.4614,8.4614,8.4614,8.4614,8.4614,6.6802,6.7174,6.776,6.8538,6.9316,7.0274,7.1751,7.2631,7.3691,7.5506,7.642,7.7232,7.8268,7.8809,0.0,7.9803,8.0073,8.0209,8.0209,8.0209,8.0209,8.0209,8.0209,8.0209,8.0209,8.0209,8.0209,8.0209,8.0209,8.0513,8.127,8.2002,8.2746,8.349,8.4221,8.4614,8.4614,8.4614,8.4614,8.4614,8.4614,8.4614,8.4614,8.4614,8.4614,8.4614,8.4614,8.4614,8.4614,8.4614,8.4614,8.4614,8.4614,8.4614,8.4614,8.4614,8.4614,8.4614,8.4614,8.4614,8.4614,8.4614,8.4614,8.4614,8.4614,8.4614,8.4614,8.4614,8.4614,8.4614,8.4614,8.4614,8.4614,8.4614,8.4614,8.4614,8.4614,8.4614,8.4614,8.4614,8.4614,8.4614,8.4614,8.4614,8.4614,8.4614,8.4614,8.4614,8.4614,8.4614,8.4614,8.4614,8.4614,8.4614,8.4614,8.4614,8.4614,8.4614,8.4614,8.4614,8.4614,8.4614,8.4614,8.4614,8.4614,8.4614,8.4614,8.4614,8.4614,8.4614,8.4614,8.4614,6.6802,6.7354,6.8098,6.891,6.9857,7.1109,7.2868,7.3612,7.4492,7.6487,7.713,7.7705,7.8877,7.935,0.0,8.0141,8.0209,8.0209,8.0209,8.0209,8.0209,8.0209,8.0209,8.0209,8.0209,8.0209,8.0209,8.0209,8.0209,8.0648,0.0,8.2171,8.2868,8.3883,8.439,8.4614,8.4614,8.4614,8.4614,8.4614,8.4614,8.4614,8.4614,8.4614,8.4614,8.4614,8.4614,8.4614,8.4614,8.4614,8.4614,8.4614,8.4614,8.4614,8.4614,8.4614,8.4614,8.4614,8.4614,8.4614,8.4614,8.4614,8.4614,8.4614,8.4614,8.4614,8.4614,8.4614,8.4614,8.4614,8.4614,8.4614,8.4614,8.4614,8.4614,8.4614,8.4614,8.4614,8.4614,8.4614,8.4614,8.4614,8.4614,8.4614,8.4614,8.4614,8.4614,8.4614,8.4614,8.4614,8.4614,8.4614,8.4614,8.4614,8.4614,8.4614,8.4614,8.4614,8.4614,8.4614,8.4614,8.4614,8.4614,8.4614,8.4614,8.4614,8.4614,8.4614,8.4614,8.4614,8.4614,8.4614,6.6802,6.7377,6.8199,6.891,7.0319,7.2045,7.4142,7.4717,7.5224,7.669,7.7582,7.8314,7.9046,7.9769,8.0209,8.0209,8.0209,8.0209,8.0209,8.0209,8.0209,8.0209,8.0209,8.0209,8.0209,8.0209,8.0209,8.0209,8.0209,8.0851,8.2327,8.2395,8.3071,8.4546,8.4614,8.4614,8.4614,8.4614,8.4614,8.4614,8.4614,8.4614,8.4614,8.4614,8.4614,8.4614,8.4614,8.4614,8.4614,8.4614,8.4614,8.4614,8.4614,8.4614,8.4614,8.4614,8.4614,8.4614,8.4614,8.4614,8.4614,8.4614,8.4614,8.4614,8.4614,8.4614,8.4614,8.4614,8.4614,8.4614,8.4614,8.4614,8.4614,8.4614,8.4614,8.4614,8.4614,8.4614,8.4614,8.4614,8.4614,8.4614,8.4614,8.4614,8.4614,8.4614,8.4614,8.4614,8.4614,8.4614,8.4614,8.4614,8.4614,8.4614,8.4614,8.4614,8.4614,8.4614,8.4614,8.4614,8.4614,8.4614,8.4614,8.4614,8.4614,8.4614,8.4614,8.4614,8.4614,8.4614,8.4614,8.4614,6.6802,6.7783,6.8876,6.9045,7.1075,7.3308,7.4345,7.5528,7.6657,7.7582,7.8348,7.908,7.9837,8.0073,8.0209,8.0209,8.0209,8.0209,8.0209,8.0209,8.0209,8.0209,8.0209,8.0209,8.0209,8.0209,8.0209,8.0209,8.0209,8.0851,8.2327,8.2395,8.3071,8.4546,8.4614,8.4614,8.4614,8.4614,8.4614,0.0,8.4614,8.4614,8.4614,8.4614,8.4614,8.4614,8.4614,8.4614,8.4614,8.4614,8.4614,8.4614,8.4614,8.4614,8.4614,8.4614,8.4614,8.4614,8.4614,8.4614,8.4614,8.4614,8.4614,8.4614,8.4614,8.4614,8.4614,8.4614,8.4614,8.4614,8.4614,8.4614,8.4614,8.4614,8.4614,8.4614,8.4614,8.4614,8.4614,8.4614,8.4614,8.4614,8.4614,8.4614,8.4614,8.4614,8.4614,8.4614,8.4614,8.4614,8.4614,8.4614,8.4614,8.4614,8.4614,8.4614,8.4614,8.4614,8.4614,8.4614,8.4614,8.4614,8.4614,8.4614,8.4614,8.4614,8.4614,8.4614,8.4614,8.4614,8.4614,8.4614,6.6802,6.7918,6.9451,7.0838,7.2372,7.3793,7.4897,7.6318,7.7548,7.7921,7.8585,7.9317,8.0073,8.0209,8.0209,8.0209,8.0209,8.0209,8.0209,8.0209,8.0209,8.0209,8.0209,8.0209,8.0209,8.0209,8.0209,8.0209,8.0513,8.1224,8.2327,8.2733,8.3443,8.4546,8.4614,8.4614,8.4614,8.4614,8.4614,8.4614,8.4614,8.4614,8.4614,8.4614,8.4614,8.4614,8.4614,8.4614,8.4614,8.4614,8.4614,8.4614,8.4614,8.4614,8.4614,8.4614,8.4614,8.4614,8.4614,8.4614,8.4614,8.4614,8.4614,8.4614,8.4614,8.4614,8.4614,8.4614,8.4614,8.4614,8.4614,8.4614,8.4614,8.4614,8.4614,8.4614,8.4614,8.4614,8.4614,8.4614,8.4614,8.4614,8.4614,8.4614,8.4614,8.4614,8.4614,8.4614,8.4614,8.4614,8.4614,8.4614,8.4614,8.4614,8.4614,8.4614,8.4614,8.4614,8.4614,8.4614,8.4614,8.4614,8.4614,8.4614,8.4614,8.4614,8.4614,8.4614,8.4614,8.4614,8.4614,8.4614,6.6802,6.7918,6.9823,7.2744,7.3488,7.3894,7.5371,7.6906,7.7988,7.7988,7.8686,7.9486,8.0073,8.0209,8.0209,8.0209,8.0209,8.0209,8.0209,8.0209,8.0209,8.0209,8.0209,8.0209,8.0209,8.0209,8.0209,8.0209,8.0898,8.1608,8.2361,8.3084,8.3862,8.458,8.4614,8.4614,8.4614,8.4614,8.4614,8.4614,8.4614,8.4614,8.4614,8.4614,8.4614,8.4614,8.4614,8.4614,8.4614,8.4614,8.4614,8.4614,8.4614,8.4614,8.4614,8.4614,8.4614,8.4614,8.4614,8.4614,8.4614,8.4614,8.4614,8.4614,8.4614,8.4614,8.4614,8.4614,8.4614,8.4614,8.4614,8.4614,8.4614,8.4614,8.4614,8.4614,8.4614,8.4614,8.4614,8.4614,8.4614,8.4614,8.4614,8.4614,8.4614,8.4614,8.4614,8.4614,8.4614,8.4614,8.4614,8.4614,8.4614,8.4614,8.4614,8.4614,8.4614,8.4614,8.4614,8.4614,8.4614,8.4614,8.4614,8.4614,8.4614,8.4614,8.4614,8.4614,8.4614,8.4614,8.4614,8.4614,6.6802,6.7918,6.9823,7.2744,7.3488,7.3894,7.5371,7.6906,7.7988,7.7988,7.9092,8.0073,8.0175,8.0209,8.0209,8.0209,8.0209,8.0209,8.0209,8.0209,8.0209,8.0209,8.0209,8.0209,8.0209,8.0209,8.0209,8.0209,8.0898,8.1608,8.2361,8.3084,8.3862,8.458,8.4614,8.4614,8.4614,8.4614,8.4614,8.4614,8.4614,8.4614,8.4614,8.4614,8.4614,8.4614,8.4614,8.4614,8.4614,8.4614,8.4614,8.4614,8.4614,8.4614,8.4614,8.4614,8.4614,8.4614,8.4614,8.4614,8.4614,8.4614,8.4614,8.4614,8.4614,8.4614,8.4614,8.4614,8.4614,8.4614,8.4614,8.4614,8.4614,8.4614,8.4614,8.4614,8.4614,8.4614,8.4614,8.4614,8.4614,8.4614,8.4614,8.4614,8.4614,8.4614,8.4614,8.4614,8.4614,8.4614,8.4614,8.4614,8.4614,8.4614,8.4614,8.4614,8.4614,8.4614,8.4614,8.4614,8.4614,8.4614,8.4614,8.4614,8.4614,8.4614,8.4614,8.4614,8.4614,8.4614,8.4614,8.4614,6.785,6.8561,6.9823,7.2744,7.3488,7.3894,7.5371,7.6906,7.7988,7.7988,7.9172,8.0209,8.0209,8.0209,8.0209,8.0209,8.0209,8.0209,8.0209,8.0209,8.0209,8.0209,8.0209,8.0209,8.0209,8.0209,8.0209,8.0209,8.1257,8.2069,8.2395,8.3477,8.4255,8.458,8.4614,8.4614,8.4614,8.4614,8.4614,8.4614,8.4614,8.4614,8.4614,8.4614,8.4614,8.4614,8.4614,8.4614,8.4614,8.4614,8.4614,8.4614,8.4614,8.4614,8.4614,8.4614,8.4614,8.4614,8.4614,8.4614,8.4614,8.4614,8.4614,8.4614,8.4614,8.4614,8.4614,8.4614,8.4614,8.4614,8.4614,8.4614,8.4614,8.4614,8.4614,8.4614,8.4614,8.4614,8.4614,8.4614,8.4614,8.4614,8.4614,8.4614,8.4614,8.4614,8.4614,8.4614,8.4614,8.4614,8.4614,8.4614,8.4614,8.4614,8.4614,8.4614,8.4614,8.4614,8.4614,8.4614,8.4614,8.4614,8.4614,8.4614,8.4614,8.4614,8.4614,8.4614,8.4614,8.4614,8.4614,8.4614,6.8673,6.9113,6.9823,7.2744,7.3488,7.3894,7.5371,7.6906,7.7988,7.7988,7.9172,8.0209,8.0209,8.0209,8.0209,8.0209,8.0209,8.0209,8.0209,8.0209,8.0209,8.0209,8.0209,8.0209,8.0209,8.0209,8.0209,8.0209,8.1393,8.2205,8.2395,8.3612,8.4424,8.458,8.4614,8.4614,8.4614,8.4614,8.4614,8.4614,8.4614,8.4614,8.4614,8.4614,8.4614,8.4614,8.4614,8.4614,8.4614,8.4614,8.4614,8.4614,8.4614,8.4614,8.4614,8.4614,8.4614,8.4614,8.4614,8.4614,8.4614,8.4614,8.4614,8.4614,8.4614,8.4614,8.4614,8.4614,8.4614,8.4614,8.4614,8.4614,8.4614,8.4614,8.4614,8.4614,8.4614,8.4614,8.4614,8.4614,8.4614,8.4614,8.4614,8.4614,8.4614,8.4614,8.4614,8.4614,8.4614,8.4614,8.4614,8.4614,8.4614,8.4614,8.4614,8.4614,8.4614,8.4614,8.4614,8.4614,8.4614,8.4614,8.4614,8.4614,8.4614,8.4614,8.4614,8.4614,8.4614,8.4614,8.4614,8.4614,6.8673,6.9113,6.9823,7.2744,7.3488,7.3894,7.5371,7.6906,7.7988,7.7988,7.9172,8.0209,8.0209,8.0209,8.0209,8.0209,8.0209,8.0209,8.0209,8.0209,8.0209,8.0209,8.0209,8.0209,8.0209,8.0209,8.0209,8.0209,8.0932,8.1676,8.2361,8.3152,8.3896,8.458,8.4614,8.4614,8.4614,8.4614,8.4614,8.4614,8.4614,8.4614,8.4614,8.4614,8.4614,8.4614,8.4614,8.4614,8.4614,8.4614,8.4614,8.4614,8.4614,8.4614,8.4614,8.4614,8.4614,8.4614,8.4614,8.4614,8.4614,8.4614,8.4614,8.4614,8.4614,8.4614,8.4614,8.4614,8.4614,8.4614,8.4614,8.4614,8.4614,8.4614,8.4614,8.4614,8.4614,8.4614,8.4614,8.4614,8.4614,8.4614,8.4614,8.4614,8.4614,8.4614,8.4614,8.4614,8.4614,8.4614,8.4614,8.4614,8.4614,8.4614,8.4614,8.4614,8.4614,8.4614,8.4614,8.4614,8.4614,8.4614,8.4614,8.4614,8.4614,8.4614,8.4614,8.4614,8.4614,8.4614,8.4614,8.4614,6.8673,6.9113,6.9823,7.2744,7.3488,7.3894,7.5371,7.6533,7.7447,7.7887,7.8788,7.9634,8.0107,8.0209,8.0209,8.0209,8.0209,8.0209,8.0209,8.0209,8.0209,8.0209,8.0209,8.0209,8.0209,8.0209,8.0209,8.0209,8.0898,8.1608,8.2361,8.3084,8.3862,8.458,8.4614,8.4614,8.4614,8.4614,8.4614,8.4614,8.4614,8.4614,8.4614,8.4614,8.4614,8.4614,8.4614,8.4614,8.4614,8.4614,8.4614,8.4614,8.4614,8.4614,8.4614,8.4614,8.4614,8.4614,8.4614,8.4614,8.4614,8.4614,8.4614,8.4614,8.4614,8.4614,8.4614,8.4614,8.4614,8.4614,8.4614,8.4614,8.4614,8.4614,8.4614,8.4614,8.4614,8.4614,8.4614,8.4614,8.4614,8.4614,8.4614,8.4614,8.4614,8.4614,8.4614,8.4614,8.4614,8.4614,8.4614,8.4614,8.4614,8.4614,8.4614,8.4614,8.4614,8.4614,8.4614,8.4614,8.4614,8.4614,8.4614,8.4614,8.4614,8.4614,8.4614,8.4614,8.4614,8.4614,8.4614,8.4614,6.8741,6.9282,7.006,7.2507,7.3319,7.3827,7.5067,7.6149,7.7096,7.7853,7.8585,7.9317,8.0073,8.0209,8.0209,8.0209,8.0209,8.0209,8.0209,8.0209,8.0209,8.0209,8.0209,8.0209,8.0209,8.0209,8.0209,8.0209,8.0648,0.0,8.2361,8.2881,8.3578,8.458,8.4614,8.4614,8.4614,8.4614,8.4614,8.4614,8.4614,8.4614,8.4614,8.4614,8.4614,8.4614,8.4614,8.4614,8.4614,8.4614,8.4614,8.4614,8.4614,8.4614,8.4614,8.4614,8.4614,8.4614,8.4614,8.4614,8.4614,8.4614,8.4614,8.4614,8.4614,8.4614,8.4614,8.4614,8.4614,8.4614,8.4614,8.4614,8.4614,8.4614,8.4614,8.4614,8.4614,8.4614,8.4614,8.4614,8.4614,8.4614,8.4614,8.4614,8.4614,8.4614,8.4614,8.4614,8.4614,8.4614,8.4614,8.4614,8.4614,8.4614,8.4614,8.4614,8.4614,8.4614,8.4614,8.4614,8.4614,8.4614,8.4614,8.4614,8.4614,8.4614,8.4614,8.4614,8.4614,8.4614,8.4614,8.4614,0.0,0.0,0.0,7.2022,7.2947,7.3691,7.4412,7.5765,7.7063,7.7819,7.8551,7.9283,8.004,8.0175,8.0209,8.0209,8.0209,8.0209,8.0209,8.0209,8.0209,8.0209,8.0209,8.0209,8.0209,8.0209,8.0209,8.0209,8.0209,8.0818,8.2293,8.2395,8.3105,8.4546,8.4614,8.4614,8.4614,8.4614,8.4614,8.4614,8.4614,8.4614,8.4614,8.4614,8.4614,8.4614,8.4614,8.4614,8.4614,8.4614,8.4614,8.4614,8.4614,8.4614,8.4614,8.4614,8.4614,8.4614,8.4614,8.4614,8.4614,8.4614,8.4614,8.4614,8.4614,8.4614,8.4614,8.4614,8.4614,8.4614,8.4614,8.4614,8.4614,8.4614,8.4614,8.4614,8.4614,8.4614,8.4614,8.4614,8.4614,8.4614,8.4614,8.4614,8.4614,8.4614,8.4614,8.4614,8.4614,8.4614,8.4614,8.4614,8.4614,8.4614,8.4614,8.4614,8.4614,8.4614,8.4614,8.4614,8.4614,8.4614,8.4614,8.4614,8.4614,8.4614,8.4614,8.4614,8.4614,8.4614,8.4614,8.4614,6.953,0.0,0.0,0.0,0.0,0.0,7.4412,7.5337,7.6251,7.7029,7.7773,7.8517,7.9261,7.9837,8.0209,8.0209,8.0209,8.0209,8.0209,8.0209,8.0209,8.0209,8.0209,8.0209,8.0209,8.0209,8.0209,0.0,8.0209,8.0615,8.1528,8.2611,8.3612,8.458,8.4614,8.4614,8.4614,8.4614,8.4614,8.4614,8.4614,8.4614,8.4614,8.4614,8.4614,8.4614,8.4614,8.4614,8.4614,8.4614,8.4614,8.4614,8.4614,8.4614,8.4614,8.4614,8.4614,8.4614,8.4614,8.4614,8.4614,8.4614,8.4614,8.4614,8.4614,8.4614,8.4614,8.4614,8.4614,8.4614,8.4614,8.4614,8.4614,8.4614,8.4614,8.4614,8.4614,8.4614,8.4614,8.4614,8.4614,8.4614,8.4614,8.4614,8.4614,8.4614,8.4614,8.4614,8.4614,8.4614,8.4614,8.4614,8.4614,8.4614,8.4614,8.4614,8.4614,8.4614,8.4614,8.4614,8.4614,8.4614,8.4614,8.4614,8.4614,8.4614,8.4614,8.4614,8.4614,8.4614,8.4614,8.4614,0.0,0.0,0.0,0.0,0.0,0.0,7.4052,7.4965,7.5912,7.6724,7.7232,7.7841,7.8911,7.9452,7.9837,8.0141,8.0209,8.0209,8.0209,8.0209,8.0209,8.0209,8.0209,8.0209,8.0209,8.0209,8.0209,8.0209,8.0209,8.0648,8.1697,8.2847,8.3862,8.458,8.4614,8.4614,8.4614,8.4614,8.4614,8.4614,8.4614,8.4614,8.4614,8.4614,8.4614,8.4614,8.4614,8.4614,8.4614,8.4614,8.4614,8.4614,8.4614,8.4614,8.4614,8.4614,8.4614,8.4614,8.4614,8.4614,8.4614,8.4614,8.4614,8.4614,8.4614,8.4614,8.4614,8.4614,8.4614,8.4614,8.4614,8.4614,8.4614,8.4614,8.4614,8.4614,8.4614,8.4614,8.4614,8.4614,8.4614,8.4614,8.4614,8.4614,8.4614,8.4614,8.4614,8.4614,8.4614,8.4614,8.4614,8.4614,8.4614,8.4614,8.4614,8.4614,8.4614,8.4614,8.4614,8.4614,8.4614,8.4614,8.4614,8.4614,8.4614,8.4614,8.4614,8.4614,8.4614,8.4614,8.4614,8.4614,0.0,0.0,0.0,0.0,0.0,0.0,7.3488,7.4639,7.5912,7.6623,7.6826,7.7299,7.8606,7.8978,7.9317,7.9972,8.0141,8.0209,8.0209,8.0209,8.0209,8.0209,8.0209,8.0209,8.0209,8.0209,8.0209,8.0209,8.0209,8.0851,8.2327,8.3016,8.3748,8.458,8.4614,8.4614,8.4614,8.4614,8.4614,8.4614,8.4614,8.4614,8.4614,8.4614,8.4614,8.4614,8.4614,8.4614,8.4614,8.4614,8.4614,8.4614,8.4614,8.4614,8.4614,8.4614,8.4614,8.4614,8.4614,8.4614,8.4614,8.4614,8.4614,8.4614,8.4614,8.4614,8.4614,8.4614,8.4614,8.4614,8.4614,8.4614,8.4614,8.4614,8.4614,8.4614,8.4614,8.4614,8.4614,8.4614,8.4614,8.4614,8.4614,8.4614,8.4614,8.4614,8.4614,8.4614,8.4614,8.4614,8.4614,8.4614,8.4614,8.4614,8.4614,8.4614,8.4614,8.4614,8.4614,8.4614,8.4614,8.4614,8.4614,8.4614,8.4614,8.4614,8.4614,8.4614,8.4614,8.4614,8.4614,8.4614,0.0,0.0,0.0,0.0,0.0,0.0,7.3488,7.4639,7.5743,7.5912,7.6454,7.6995,7.7266,7.8302,7.9147,7.9283,7.9803,8.0209,8.0209,8.0209,8.0209,8.0209,8.0209,8.0209,8.0209,8.0209,8.0209,8.0209,8.0209,8.0851,8.2327,8.253,8.3206,8.4546,8.4614,8.4614,8.4614,8.4614,8.4614,8.4614,8.4614,8.4614,8.4614,8.4614,8.4614,8.4614,8.4614,8.4614,8.4614,8.4614,8.4614,8.4614,8.4614,8.4614,8.4614,8.4614,8.4614,8.4614,8.4614,8.4614,8.4614,8.4614,8.4614,8.4614,8.4614,8.4614,8.4614,8.4614,8.4614,8.4614,8.4614,8.4614,8.4614,8.4614,8.4614,8.4614,8.4614,8.4614,8.4614,8.4614,8.4614,8.4614,8.4614,8.4614,8.4614,8.4614,8.4614,8.4614,8.4614,8.4614,8.4614,8.4614,8.4614,8.4614,8.4614,8.4614,8.4614,8.4614,8.4614,8.4614,8.4614,8.4614,8.4614,8.4614,8.4614,8.4614,8.4614,8.4614,8.4614,8.4614,8.4614,8.4614,0.0,0.0,0.0,7.174,0.0,0.0,0.0,7.4897,7.5709,7.5709,7.6014,7.642,7.6826,7.749,7.8234,7.8978,7.9418,7.9769,8.0141,8.0209,8.0209,8.0209,8.0209,8.0209,8.0209,8.0209,8.0209,8.0209,8.0209,8.0682,8.1799,8.2205,8.2902,8.4018,8.4424,8.4614,8.4614,8.4614,8.4614,8.4614,8.4614,8.4614,8.4614,8.4614,8.4614,8.4614,8.4614,8.4614,8.4614,8.4614,8.4614,8.4614,8.4614,8.4614,8.4614,8.4614,8.4614,8.4614,8.4614,8.4614,8.4614,8.4614,8.4614,8.4614,8.4614,8.4614,8.4614,8.4614,8.4614,8.4614,8.4614,8.4614,8.4614,8.4614,8.4614,8.4614,8.4614,8.4614,8.4614,8.4614,8.4614,8.4614,8.4614,8.4614,8.4614,8.4614,8.4614,8.4614,8.4614,8.4614,8.4614,8.4614,8.4614,8.4614,8.4614,8.4614,8.4614,8.4614,8.4614,8.4614,8.4614,8.4614,8.4614,8.4614,8.4614,8.4614,8.4614,8.4614,8.4614,8.4614,8.4614,8.4614,0.0,0.0,0.0,0.0,0.0,7.386,0.0,0.0,0.0,7.5709,7.5709,7.5912,7.6555,7.6792,7.7186,7.8099,7.8606,7.9058,7.9498,7.9803,8.004,8.0175,8.0209,8.0209,8.0209,8.0209,8.0209,8.0209,8.0209,8.0513,8.127,8.2002,8.2746,8.349,8.4221,8.4614,8.4614,8.4614,8.4614,8.4614,8.4614,8.4614,8.4614,8.4614,8.4614,8.4614,8.4614,8.4614,8.4614,8.4614,8.4614,8.4614,8.4614,8.4614,8.4614,8.4614,8.4614,8.4614,8.4614,8.4614,8.4614,8.4614,8.4614,8.4614,8.4614,8.4614,8.4614,8.4614,8.4614,8.4614,8.4614,8.4614,8.4614,8.4614,8.4614,8.4614,8.4614,8.4614,8.4614,8.4614,8.4614,8.4614,8.4614,8.4614,8.4614,8.4614,8.4614,8.4614,8.4614,8.4614,8.4614,8.4614,8.4614,8.4614,8.4614,8.4614,8.4614,8.4614,8.4614,8.4614,8.4614,8.4614,8.4614,8.4614,8.4614,8.4614,8.4614,8.4614,8.4614,8.4614,8.4614,8.4614,0.0,0.0,0.0,0.0,7.3916,0.0,0.0,0.0,7.5709,7.5709,0.0,7.5743,7.5811,0.0,0.0,7.5292,7.6792,7.7921,7.7367,7.8403,7.9452,8.0107,8.0209,8.0209,8.0209,8.0209,8.0209,8.0209,8.0209,8.0513,8.127,8.2002,8.2746,8.349,8.4221,8.4614,8.4614,8.4614,8.4614,8.4614,8.4614,8.4614,8.4614,8.4614,8.4614,8.4614,8.4614,8.4614,8.4614,8.4614,8.4614,8.4614,8.4614,8.4614,8.4614,8.4614,8.4614,8.4614,8.4614,8.4614,8.4614,8.4614,8.4614,8.4614,8.4614,8.4614,8.4614,8.4614,8.4614,8.4614,8.4614,8.4614,8.4614,8.4614,8.4614,8.4614,8.4614,8.4614,8.4614,8.4614,8.4614,8.4614,8.4614,8.4614,8.4614,8.4614,8.4614,8.4614,8.4614,8.4614,8.4614,8.4614,8.4614,8.4614,8.4614,8.4614,8.4614,8.4614,8.4614,8.4614,8.4614,8.4614,8.4614,8.4614,8.4614,8.4614,8.4614,8.4614,8.4614,8.4614,8.4614,8.4614,0.0,0.0,0.0,0.0,0.0,0.0,7.5134,0.0,7.5709,0.0,0.0,0.0,0.0,0.0,0.0,0.0,7.6724,7.7413,7.7515,7.8077,7.8889,8.0073,8.0209,8.0209,8.0209,8.0209,8.0209,8.0209,8.0209,8.0344,8.0661,8.1359,8.2103,8.2847,8.3592,8.4153,8.4614,8.4614,8.4614,8.4614,8.4614,8.4614,8.4614,8.4614,8.4614,8.4614,8.4614,8.4614,8.4614,8.4614,8.4614,8.4614,8.4614,8.4614,8.4614,8.4614,8.4614,8.4614,8.4614,8.4614,8.4614,8.4614,8.4614,8.4614,8.4614,8.4614,8.4614,8.4614,8.4614,8.4614,8.4614,8.4614,8.4614,8.4614,8.4614,8.4614,8.4614,8.4614,8.4614,8.4614,8.4614,8.4614,8.4614,8.4614,8.4614,8.4614,8.4614,8.4614,8.4614,8.4614,8.4614,8.4614,8.4614,8.4614,8.4614,8.4614,8.4614,8.4614,8.4614,8.4614,8.4614,8.4614,8.4614,8.4614,8.4614,8.4614,8.4614,8.4614,8.4614,8.4614,8.4614,8.4614,7.4097,0.0,0.0,0.0,0.0,0.0,0.0,0.0,0.0,0.0,0.0,0.0,0.0,0.0,0.0,0.0,0.0,7.669,7.7041,7.7447,7.8259,7.9735,8.0073,8.0209,8.0209,8.0209,8.0209,8.0209,8.0209,8.0209,8.0209,8.0898,8.1642,8.2395,8.3118,8.3849,8.458,8.4614,8.4614,8.4614,8.4614,8.4614,8.4614,8.4614,8.4614,8.4614,8.4614,8.4614,8.4614,8.4614,8.4614,8.4614,8.4614,8.4614,8.4614,8.4614,8.4614,8.4614,8.4614,8.4614,8.4614,8.4614,8.4614,8.4614,8.4614,8.4614,8.4614,8.4614,8.4614,8.4614,8.4614,8.4614,8.4614,8.4614,8.4614,8.4614,8.4614,8.4614,8.4614,8.4614,8.4614,8.4614,8.4614,8.4614,8.4614,8.4614,8.4614,8.4614,8.4614,8.4614,8.4614,8.4614,8.4614,8.4614,8.4614,8.4614,8.4614,8.4614,8.4614,8.4614,8.4614,8.4614,8.4614,8.4614,8.4614,8.4614,8.4614,8.4614,8.4614,8.4614,8.4614,8.4614,0.0,0.0,0.0,7.5676,0.0,0.0,0.0,0.0,7.5709,0.0,0.0,0.0,0.0,0.0,0.0,0.0,0.0,0.0,0.0,7.6002,7.7468,7.8945,7.9769,8.0209,8.0209,8.0209,8.0209,0.0,8.0209,8.0209,8.0209,8.0898,8.1642,8.2395,8.3118,8.3849,8.458,8.4614,8.4614,8.4614,8.4614,8.4614,8.4614,8.4614,8.4614,8.4614,8.4614,8.4614,8.4614,8.4614,8.4614,8.4614,8.4614,8.4614,8.4614,8.4614,8.4614,8.4614,8.4614,8.4614,8.4614,8.4614,8.4614,8.4614,8.4614,8.4614,8.4614,8.4614,8.4614,8.4614,8.4614,8.4614,8.4614,8.4614,8.4614,8.4614,8.4614,8.4614,8.4614,8.4614,8.4614,8.4614,8.4614,8.4614,8.4614,8.4614,8.4614,8.4614,8.4614,8.4614,8.4614,8.4614,8.4614,8.4614,8.4614,8.4614,8.4614,8.4614,8.4614,8.4614,8.4614,8.4614,8.4614,8.4614,8.4614,8.4614,8.4614,8.4614,8.4614,8.4614,8.4614,8.4614,0.0,0.0,7.5709,7.5709,0.0,0.0,0.0,0.0,0.0,0.0,0.0,0.0,0.0,0.0,0.0,0.0,0.0,0.0,0.0,7.6251,7.7096,7.757,7.8708,7.9655,8.0141,8.0209,8.0209,8.0209,8.0209,0.0,8.0209,8.0445,8.0919,8.1642,8.2408,8.3152,8.3862,8.4356,8.4614,8.4614,8.4614,8.4614,8.4614,8.4614,8.4614,8.4614,8.4614,8.4614,8.4614,8.4614,8.4614,8.4614,8.4614,8.4614,8.4614,8.4614,8.4614,8.4614,8.4614,8.4614,8.4614,8.4614,8.4614,8.4614,8.4614,8.4614,8.4614,8.4614,8.4614,8.4614,8.4614,8.4614,8.4614,8.4614,8.4614,8.4614,8.4614,8.4614,8.4614,8.4614,8.4614,8.4614,8.4614,8.4614,8.4614,8.4614,8.4614,8.4614,8.4614,8.4614,8.4614,8.4614,8.4614,8.4614,8.4614,8.4614,8.4614,8.4614,8.4614,8.4614,8.4614,8.4614,8.4614,8.4614,8.4614,8.4614,8.4614,8.4614,8.4614,8.4614,8.4614,8.4614,7.7299,7.6906,0.0,7.6533,7.6533,0.0,7.6533,0.0,0.0,0.0,0.0,0.0,0.0,0.0,0.0,0.0,0.0,0.0,0.0,7.6149,7.6589,7.686,7.82,7.9283,7.9769,8.004,8.0209,8.0209,8.0209,8.0209,0.0,8.0209,8.056,8.127,8.2035,8.2746,8.349,8.4221,8.4614,8.4614,8.4614,8.4614,8.4614,8.4614,8.4614,8.4614,8.4614,8.4614,8.4614,8.4614,8.4614,8.4614,8.4614,8.4614,8.4614,8.4614,8.4614,8.4614,8.4614,8.4614,8.4614,8.4614,8.4614,8.4614,8.4614,8.4614,8.4647,8.4931,8.483,8.4661,8.4965,8.483,8.4614,8.4614,8.4614,8.4614,8.4614,8.4614,8.4614,8.4614,8.4614,8.4614,8.4614,8.4614,8.4614,8.4614,8.4614,8.4614,8.4614,8.4614,8.4614,8.4614,8.4614,8.4614,8.4614,8.4614,8.4614,8.4614,8.4614,8.4614,8.4614,8.4614,8.4614,8.4614,8.4614,8.4614,8.4614,8.4614,8.4614,8.4614,8.4614,8.4614]},{"header":{"parameterUnit":"m.s-1","parameterCategory":1,"la1":30.6,"la2":29.2853,"lo1":-89.7004,"lo2":-87.6739,"dy":0.0162,"dx":0.0183,"nx":112,"ny":82,"refTime":"2023-03-16T18:00:00:Z","depth":0,"parameterNumber":3,"parameterNumberName":"V-component_of_WINDS"},"data":[0.0,0.0,0.0,0.0,0.0,0.0,0.0,0.0,0.0,0.0,0.0,0.0,0.0,0.0,0.0,0.0,0.0,0.0,0.0,0.0,0.0,0.0,0.0,0.0,0.0,0.0,0.0,0.0,0.0,0.0,0.0,0.0,0.0,0.0,0.0,0.0,0.0,0.0,0.0,0.0,0.0,0.0,0.0,0.0,0.0,0.0,0.0,0.0,0.0,0.0,0.0,0.0,0.0,0.0,0.0,0.0,0.0,0.0,0.0,0.0,0.0,0.0,0.0,0.0,0.0,0.0,0.0,0.0,0.0,0.0,0.0,0.0,0.0,0.0,0.0,0.0,0.0,0.0,0.0,0.0,0.0,0.0,0.0,0.0,0.0,0.0,0.0,0.0,0.0,0.0,0.0,1.9016,1.9032,1.9032,1.9032,1.9032,1.8936,1.8662,0.0,0.0,0.0,0.0,0.0,0.0,0.0,0.0,0.0,0.0,0.0,0.0,0.0,0.0,0.0,0.0,0.0,0.0,0.0,0.0,0.0,0.0,0.0,0.0,0.0,0.0,0.0,0.0,0.0,0.0,0.0,0.0,0.0,0.0,0.0,0.0,0.0,0.0,0.0,0.0,0.0,0.0,0.0,0.0,0.0,0.0,0.0,0.0,0.0,0.0,0.0,0.0,0.0,0.0,0.0,0.0,0.0,0.0,0.0,0.0,0.0,0.0,0.0,0.0,0.0,0.0,0.0,0.0,0.0,0.0,0.0,0.0,0.0,0.0,0.0,0.0,0.0,0.0,0.0,0.0,0.0,0.0,0.0,0.0,0.0,0.0,0.0,0.0,0.0,0.0,0.0,0.0,0.0,0.0,0.0,0.0,0.0,0.0,0.0,0.0,0.0,0.0,0.0,0.0,1.9589,2.128,2.1467,2.1467,2.1467,2.1467,2.0846,1.9357,0.0,0.0,0.0,0.0,0.0,0.0,0.0,0.0,0.0,0.0,0.0,0.0,0.0,0.0,0.0,0.0,0.0,0.0,0.0,0.0,0.0,0.0,0.0,0.0,0.0,0.0,0.0,0.0,0.0,0.0,0.0,0.0,0.0,0.0,0.0,0.0,0.0,0.0,0.0,0.0,0.0,0.0,0.0,0.0,0.0,0.0,0.0,0.0,0.0,0.0,0.0,0.0,0.0,0.0,0.0,0.0,0.0,0.0,0.0,0.0,0.0,0.0,0.0,0.0,0.0,0.0,0.0,0.0,0.0,0.0,0.0,0.0,0.0,0.0,0.0,0.0,0.0,0.0,0.0,0.0,0.0,0.0,0.0,0.0,0.0,0.0,0.0,0.0,0.0,0.0,0.0,0.0,0.0,0.0,0.0,0.0,0.0,0.0,0.0,0.0,0.0,0.0,0.0,1.9144,1.9853,2.1783,2.2007,2.2007,2.2007,2.2007,2.1664,2.0862,2.0539,0.0,0.0,0.0,0.0,0.0,0.0,0.0,0.0,0.0,0.0,0.0,0.0,0.0,0.0,0.0,0.0,0.0,0.0,0.0,0.0,0.0,0.0,0.0,0.0,0.0,0.0,0.0,0.0,0.0,0.0,0.0,0.0,0.0,0.0,0.0,0.0,0.0,0.0,0.0,0.0,0.0,0.0,0.0,0.0,0.0,0.0,0.0,0.0,0.0,0.0,0.0,0.0,0.0,0.0,0.0,0.0,0.0,0.0,0.0,0.0,0.0,0.0,0.0,0.0,0.0,0.0,0.0,0.0,0.0,0.0,0.0,0.0,0.0,0.0,0.0,0.0,0.0,0.0,0.0,0.0,0.0,0.0,0.0,0.0,0.0,0.0,0.0,0.0,0.0,0.0,0.0,0.0,0.0,0.0,0.0,0.0,0.0,0.0,0.0,0.0,0.0,0.0,2.083,2.0539,2.2045,2.2208,2.2208,2.2208,2.2208,2.2208,2.2208,2.2141,0.0,0.0,0.0,0.0,0.0,0.0,0.0,0.0,0.0,0.0,0.0,0.0,0.0,0.0,0.0,0.0,0.0,0.0,0.0,0.0,0.0,0.0,0.0,0.0,0.0,0.0,0.0,0.0,0.0,0.0,0.0,0.0,0.0,0.0,0.0,0.0,0.0,0.0,0.0,0.0,0.0,0.0,0.0,0.0,0.0,0.0,0.0,0.0,0.0,0.0,0.0,0.0,0.0,0.0,0.0,0.0,0.0,0.0,0.0,0.0,0.0,0.0,0.0,0.0,0.0,0.0,0.0,0.0,0.0,0.0,0.0,0.0,0.0,0.0,0.0,0.0,0.0,0.0,0.0,0.0,0.0,0.0,0.0,0.0,0.0,0.0,0.0,0.0,0.0,0.0,0.0,0.0,0.0,0.0,0.0,0.0,0.0,0.0,0.0,0.0,0.0,0.0,2.2274,2.235,2.2783,2.284,2.284,2.284,2.284,2.284,2.284,2.2539,0.0,0.0,0.0,0.0,0.0,0.0,0.0,0.0,0.0,0.0,0.0,0.0,0.0,0.0,0.0,0.0,0.0,0.0,0.0,0.0,0.0,0.0,0.0,0.0,0.0,0.0,0.0,0.0,0.0,0.0,0.0,0.0,0.0,0.0,0.0,0.0,0.0,0.0,0.0,0.0,0.0,0.0,0.0,0.0,0.0,0.0,0.0,0.0,0.0,0.0,0.0,0.0,0.0,0.0,0.0,0.0,0.0,0.0,0.0,0.0,0.0,0.0,0.0,0.0,0.0,0.0,0.0,0.0,0.0,0.0,0.0,0.0,0.0,0.0,0.0,0.0,0.0,0.0,0.0,0.0,0.0,0.0,0.0,0.0,0.0,0.0,0.0,0.0,0.0,0.0,0.0,0.0,0.0,0.0,0.0,0.0,0.0,0.0,0.0,0.0,0.0,0.0,2.1684,2.1529,0.0,2.3153,2.322,2.3438,2.3277,2.3153,2.3153,0.0,0.0,0.0,0.0,0.0,0.0,0.0,0.0,0.0,0.0,0.0,0.0,0.0,0.0,0.0,0.0,0.0,0.0,0.0,0.0,0.0,0.0,0.0,0.0,0.0,0.0,0.0,0.0,0.0,0.0,0.0,0.0,0.0,0.0,0.0,0.0,0.0,0.0,0.0,0.0,0.0,0.0,0.0,0.0,0.0,0.0,0.0,0.0,0.0,0.0,0.0,0.0,0.0,0.0,0.0,0.0,0.0,0.0,0.0,0.0,0.0,0.0,0.0,0.0,0.0,0.0,0.0,0.0,0.0,0.0,0.0,0.0,0.0,0.0,0.0,0.0,0.0,0.0,0.0,0.0,0.0,0.0,0.0,0.0,0.0,0.0,0.0,0.0,0.0,0.0,0.0,0.0,0.0,0.0,0.0,0.0,0.0,0.0,0.0,0.0,0.0,0.0,2.2992,2.2066,2.1845,0.0,2.3474,2.3554,2.379,2.3581,2.3474,2.3474,0.0,0.0,0.0,0.0,0.0,0.0,0.0,0.0,0.0,0.0,0.0,0.0,0.0,0.0,0.0,0.0,0.0,0.0,0.0,0.0,0.0,0.0,0.0,0.0,0.0,0.0,0.0,0.0,0.0,0.0,0.0,0.0,0.0,0.0,0.0,0.0,0.0,0.0,0.0,0.0,0.0,0.0,0.0,0.0,0.0,0.0,0.0,0.0,0.0,0.0,0.0,0.0,0.0,0.0,0.0,0.0,0.0,0.0,0.0,0.0,0.0,0.0,0.0,0.0,0.0,0.0,0.0,0.0,0.0,0.0,0.0,0.0,0.0,0.0,0.0,0.0,0.0,0.0,0.0,0.0,0.0,0.0,0.0,0.0,0.0,0.0,0.0,0.0,0.0,0.0,0.0,0.0,0.0,0.0,0.0,0.0,0.0,0.0,0.0,0.0,0.0,0.0,2.3745,2.3803,2.3803,2.3785,2.3785,2.3817,2.3817,2.3817,2.3785,0.0,0.0,0.0,0.0,0.0,0.0,0.0,0.0,0.0,0.0,0.0,0.0,0.0,0.0,0.0,0.0,0.0,0.0,0.0,0.0,0.0,0.0,0.0,0.0,0.0,0.0,0.0,0.0,0.0,0.0,0.0,0.0,0.0,0.0,0.0,0.0,0.0,0.0,0.0,0.0,0.0,0.0,0.0,0.0,0.0,0.0,0.0,0.0,0.0,0.0,0.0,0.0,0.0,0.0,0.0,0.0,0.0,0.0,0.0,0.0,0.0,0.0,0.0,0.0,0.0,0.0,0.0,0.0,0.0,0.0,0.0,0.0,0.0,0.0,0.0,0.0,0.0,0.0,0.0,0.0,0.0,0.0,0.0,0.0,0.0,0.0,0.0,0.0,0.0,0.0,0.0,0.0,0.0,0.0,0.0,0.0,0.0,0.0,0.0,0.0,0.0,0.0,0.0,2.379,2.3803,2.3866,2.4062,2.4075,2.4155,2.4351,2.4195,2.4075,2.4075,0.0,0.0,0.0,0.0,0.0,0.0,0.0,0.0,0.0,0.0,0.0,0.0,0.0,0.0,0.0,0.0,0.0,0.0,0.0,0.0,0.0,0.0,0.0,0.0,0.0,0.0,0.0,0.0,0.0,0.0,0.0,0.0,0.0,0.0,0.0,0.0,0.0,0.0,0.0,0.0,0.0,0.0,0.0,0.0,0.0,0.0,0.0,0.0,0.0,0.0,0.0,0.0,0.0,0.0,0.0,0.0,0.0,0.0,0.0,0.0,0.0,0.0,0.0,0.0,0.0,0.0,0.0,0.0,0.0,0.0,0.0,0.0,0.0,0.0,0.0,0.0,0.0,0.0,0.0,0.0,0.0,0.0,0.0,0.0,0.0,0.0,0.0,0.0,0.0,0.0,0.0,0.0,0.0,0.0,0.0,0.0,0.0,0.0,0.0,0.0,0.0,0.0,2.4102,2.4115,2.4182,2.4337,2.4364,2.4431,2.4586,2.4457,2.4364,2.4364,0.0,0.0,0.0,0.0,0.0,0.0,0.0,0.0,0.0,0.0,0.0,0.0,0.0,0.0,0.0,0.0,0.0,0.0,0.0,0.0,0.0,0.0,0.0,0.0,0.0,0.0,0.0,0.0,0.0,0.0,0.0,0.0,0.0,0.0,0.0,0.0,0.0,0.0,0.0,0.0,0.0,0.0,0.0,0.0,0.0,0.0,0.0,0.0,0.0,0.0,0.0,0.0,0.0,0.0,0.0,0.0,0.0,0.0,0.0,0.0,0.0,0.0,0.0,0.0,0.0,0.0,0.0,0.0,0.0,0.0,0.0,0.0,0.0,0.0,0.0,0.0,0.0,0.0,0.0,0.0,0.0,0.0,0.0,0.0,0.0,0.0,0.0,0.0,0.0,0.0,0.0,0.0,0.0,0.0,0.0,0.0,0.0,0.0,0.0,0.0,0.0,0.0,2.4599,2.4658,2.4653,2.4679,2.4679,2.4679,2.4679,2.4679,2.4679,2.4679,0.0,0.0,0.0,0.0,0.0,0.0,0.0,0.0,0.0,0.0,0.0,0.0,0.0,0.0,0.0,0.0,0.0,0.0,0.0,0.0,0.0,0.0,0.0,0.0,0.0,0.0,0.0,0.0,0.0,0.0,0.0,0.0,0.0,0.0,0.0,0.0,0.0,0.0,0.0,0.0,0.0,0.0,0.0,0.0,0.0,0.0,0.0,0.0,0.0,0.0,0.0,0.0,0.0,0.0,0.0,0.0,0.0,0.0,0.0,0.0,2.1737,0.0,0.0,0.0,0.0,0.0,0.0,0.0,0.0,0.0,0.0,0.0,0.0,0.0,0.0,0.0,0.0,0.0,0.0,0.0,0.0,0.0,0.0,0.0,0.0,0.0,0.0,0.0,0.0,0.0,0.0,0.0,0.0,0.0,0.0,0.0,0.0,0.0,0.0,0.0,0.0,0.0,2.4943,2.4983,2.5077,2.5285,2.5312,2.5312,2.5312,2.5312,2.5312,2.5312,0.0,0.0,0.0,0.0,0.0,0.0,0.0,0.0,0.0,0.0,0.0,0.0,0.0,0.0,0.0,0.0,0.0,0.0,0.0,0.0,0.0,0.0,0.0,0.0,0.0,0.0,0.0,0.0,0.0,0.0,0.0,0.0,0.0,0.0,0.0,0.0,0.0,0.0,0.0,0.0,0.0,0.0,0.0,0.0,0.0,0.0,0.0,0.0,0.0,0.0,0.0,0.0,0.0,0.0,0.0,0.0,0.0,0.0,0.0,0.0,0.0,2.2007,0.0,0.0,0.0,0.0,0.0,0.0,0.0,0.0,0.0,0.0,0.0,0.0,0.0,0.0,0.0,0.0,0.0,0.0,0.0,0.0,0.0,0.0,0.0,0.0,0.0,0.0,0.0,0.0,0.0,0.0,0.0,0.0,0.0,0.0,0.0,0.0,0.0,0.0,0.0,0.0,2.5264,2.5291,2.5344,2.5504,2.5499,2.5499,2.5499,2.5499,2.5499,2.5499,2.5371,0.0,0.0,0.0,0.0,0.0,0.0,0.0,0.0,0.0,0.0,0.0,0.0,0.0,0.0,0.0,0.0,0.0,0.0,0.0,0.0,0.0,0.0,0.0,0.0,0.0,0.0,0.0,0.0,0.0,0.0,0.0,0.0,0.0,0.0,0.0,0.0,0.0,0.0,0.0,0.0,0.0,0.0,0.0,0.0,0.0,0.0,0.0,0.0,0.0,0.0,0.0,0.0,0.0,2.3137,2.3289,2.3303,2.3521,2.343,2.3126,2.2897,2.2591,2.2231,0.0,0.0,0.0,0.0,0.0,0.0,0.0,0.0,0.0,0.0,0.0,0.0,0.0,0.0,0.0,0.0,0.0,0.0,0.0,0.0,0.0,0.0,0.0,0.0,0.0,2.3866,2.3892,0.0,0.0,0.0,0.0,0.0,0.0,0.0,0.0,0.0,0.0,0.0,0.0,2.5585,2.5585,2.5611,2.5665,2.5665,2.5665,2.5665,2.5665,2.5665,2.5665,2.5625,2.5585,0.0,0.0,0.0,0.0,0.0,0.0,0.0,0.0,0.0,0.0,0.0,0.0,0.0,0.0,0.0,0.0,0.0,0.0,0.0,0.0,0.0,0.0,0.0,0.0,0.0,0.0,0.0,0.0,0.0,0.0,0.0,0.0,2.1173,2.4057,0.0,0.0,0.0,0.0,0.0,0.0,0.0,0.0,0.0,0.0,0.0,0.0,0.0,2.2982,2.5015,2.5148,2.5481,2.601,2.7663,2.8414,2.8431,2.8462,2.7589,2.6035,2.6007,0.0,2.3149,2.3451,0.0,0.0,0.0,0.0,0.0,0.0,0.0,0.0,0.0,0.0,0.0,0.0,0.0,0.0,0.0,0.0,0.0,0.0,0.0,0.0,0.0,0.0,2.3852,2.4088,2.4142,2.4289,0.0,2.432,2.3866,2.4102,0.0,0.0,0.0,0.0,0.0,0.0,0.0,0.0,2.5904,2.5931,2.6018,2.6272,2.6266,2.6266,2.6266,2.6266,2.6266,2.6266,2.6058,2.5931,2.5931,2.5651,0.0,0.0,0.0,0.0,0.0,0.0,0.0,0.0,0.0,0.0,0.0,0.0,0.0,0.0,0.0,0.0,0.0,0.0,0.0,0.0,0.0,0.0,0.0,0.0,0.0,0.0,0.0,0.0,0.0,2.0946,2.1926,2.2746,2.2407,2.2165,0.0,0.0,0.0,0.0,0.0,0.0,0.0,0.0,0.0,2.693,2.6454,2.6652,2.7677,2.7745,2.7921,2.819,2.8998,2.9391,2.9391,2.9391,2.8963,2.8172,2.8379,2.7892,2.6843,2.4695,2.3803,2.3803,0.0,0.0,0.0,0.0,0.0,2.3803,2.3803,0.0,0.0,0.0,0.0,0.0,0.0,0.0,0.0,0.0,0.0,0.0,0.0,0.0,0.0,2.4877,2.4943,2.4991,2.5264,2.5024,2.4783,0.0,2.5018,2.5152,2.5304,0.0,0.0,0.0,0.0,0.0,2.6205,2.6219,2.6272,2.6393,2.6406,2.6406,2.6406,2.6406,2.6406,2.6406,2.6286,2.6219,2.6219,2.6079,2.5932,0.0,0.0,0.0,0.0,0.0,0.0,0.0,0.0,0.0,0.0,0.0,0.0,0.0,0.0,0.0,0.0,0.0,0.0,0.0,0.0,0.0,0.0,0.0,0.0,0.0,0.0,0.0,0.0,2.222,2.2956,2.2621,2.375,2.4213,0.0,0.0,0.0,0.0,0.0,0.0,2.8113,2.8477,2.896,2.9631,2.9479,2.9663,3.019,3.0225,3.0344,3.0531,3.1029,3.1322,3.1426,3.1426,3.1167,3.0718,3.0973,3.0793,3.0073,2.6813,2.546,2.546,2.546,2.5171,2.4739,2.4739,2.443,2.4026,2.4093,2.412,2.4133,2.4213,0.0,2.424,2.424,0.0,0.0,0.0,0.0,2.4583,2.4791,0.0,2.5251,2.5445,2.5499,2.5512,2.5611,2.5625,2.5598,0.0,2.5571,2.5625,2.5625,0.0,0.0,0.0,0.0,2.6406,2.6406,2.6406,2.6406,2.6406,2.6406,2.6406,2.6406,2.6406,2.6406,2.6406,2.6406,2.6406,2.6406,2.6406,2.6312,2.6118,0.0,0.0,0.0,0.0,0.0,0.0,0.0,0.0,0.0,0.0,0.0,0.0,0.0,0.0,0.0,0.0,0.0,0.0,0.0,0.0,0.0,0.0,0.0,0.0,0.0,0.0,0.0,0.0,0.0,2.6406,2.6914,0.0,0.0,0.0,0.0,2.8179,2.8527,2.8892,2.9291,2.9341,3.0139,3.1878,3.0292,3.0344,3.2334,3.2471,3.29,3.3604,3.5466,3.6534,3.6902,3.6902,3.5929,3.4252,3.427,3.3208,3.143,3.0396,2.9977,2.9977,2.9977,2.8889,2.7316,2.7316,2.615,2.4618,2.4917,2.5029,2.5082,2.5331,2.5405,2.5405,2.5405,2.5405,0.0,0.0,2.5419,2.5432,2.5445,2.5459,2.5472,2.5504,2.5499,2.5585,2.5917,2.5971,2.5891,0.0,2.5764,2.5971,2.5971,0.0,2.6393,2.6393,2.6393,2.6406,2.6406,2.6406,2.6406,2.6406,2.6406,2.6406,2.6406,2.6406,2.6406,2.6406,2.6406,2.6406,2.6406,2.6406,2.6386,2.6393,2.6131,0.0,0.0,0.0,0.0,0.0,0.0,0.0,0.0,0.0,0.0,0.0,0.0,0.0,0.0,0.0,0.0,0.0,0.0,0.0,0.0,0.0,0.0,0.0,0.0,0.0,0.0,0.0,0.0,2.7436,2.8681,0.0,2.8278,2.9604,3.061,3.0767,3.1923,3.2666,3.2814,3.3349,3.3935,3.46,3.4544,3.4846,3.5574,3.5643,3.5796,3.6065,3.6753,3.7148,3.7305,3.7305,3.6932,3.6292,3.6292,3.5919,3.5257,3.4925,3.3358,3.1001,2.9705,2.8802,2.8059,2.6711,2.5768,2.5192,2.5317,2.5358,2.5371,2.5459,2.5499,2.5499,2.5499,2.5499,2.5499,2.5499,2.5499,2.5558,2.5764,2.5818,2.5858,2.6026,2.6079,2.6106,2.6232,2.6259,2.6272,2.6333,2.6293,2.6259,2.6259,2.648,2.6667,2.6667,2.6847,2.6968,2.6968,2.6968,2.6968,2.6968,2.6968,2.6968,2.6968,2.6968,2.6887,2.668,2.6667,2.6587,2.6419,2.6406,2.6406,2.6406,2.6312,2.6259,0.0,0.0,0.0,0.0,0.0,0.0,0.0,0.0,0.0,0.0,0.0,0.0,0.0,0.0,0.0,0.0,0.0,0.0,0.0,0.0,0.0,0.0,0.0,0.0,0.0,0.0,2.9618,2.8243,3.0463,3.154,3.005,3.1767,3.3113,3.3391,3.4485,3.5273,3.5566,3.6116,3.6428,3.6428,3.6992,3.7305,3.7305,3.7305,3.7363,3.75,3.75,3.7578,3.7752,3.7752,3.7752,3.7752,3.7752,3.7752,3.7752,3.7752,3.6261,3.3791,3.2177,3.114,3.0346,2.8256,2.7079,2.6458,2.5874,2.5732,2.5812,2.5812,2.5812,2.5812,2.5812,2.5812,2.5812,2.5812,2.5812,2.5852,2.6072,2.6192,2.6312,2.6493,2.6613,2.67,2.67,2.67,2.6767,2.6934,2.6734,2.656,2.6687,2.6841,2.6974,2.6974,2.7155,2.7309,2.7309,2.7309,2.7309,2.7309,2.7309,2.7309,2.7309,2.7309,2.7208,2.6987,2.6974,2.6841,2.6547,2.6533,2.6493,2.6386,2.6406,2.6406,2.6406,0.0,0.0,0.0,0.0,0.0,0.0,0.0,0.0,0.0,0.0,0.0,0.0,0.0,0.0,0.0,0.0,0.0,0.0,0.0,0.0,0.0,0.0,0.0,2.8139,2.9738,3.058,2.9144,3.2377,3.4066,3.2386,3.3754,3.5117,3.5979,3.6038,3.6408,3.7246,3.7305,3.7324,3.7324,3.7324,3.7344,3.7344,3.7344,3.7541,3.7951,3.7951,3.8203,3.8631,3.8631,3.8631,3.8631,3.8631,3.8631,3.8631,3.8631,3.8631,3.8553,3.7622,3.6135,3.4288,3.2202,3.0269,2.8458,2.6722,2.6283,2.6485,2.6426,2.6406,2.6406,2.6406,2.6419,2.64,2.64,2.6413,2.6433,2.6433,2.6627,2.682,2.682,2.7054,2.7309,2.7309,2.7309,2.7322,2.7336,2.7068,2.6941,2.7248,2.7322,2.7336,2.7349,2.7362,0.0,2.7342,2.7342,2.7342,2.7342,2.7342,2.7342,2.7342,2.7349,2.7349,2.7336,2.7322,2.7168,2.6834,2.682,2.6694,2.6433,2.64,2.6419,2.6406,0.0,0.0,0.0,0.0,0.0,0.0,0.0,0.0,0.0,0.0,0.0,0.0,0.0,0.0,0.0,0.0,0.0,0.0,0.0,0.0,0.0,0.0,3.1586,3.0981,3.2491,3.3524,3.3127,3.434,3.5129,3.4947,3.5665,3.6365,3.6894,3.6953,3.7051,3.7285,3.7598,3.7736,3.7736,3.8066,3.8241,3.8241,3.8535,3.873,3.8848,3.9199,3.9414,3.9531,3.9531,3.9531,3.9531,3.9531,3.9531,3.9531,3.9531,3.9531,3.9303,3.6903,3.5669,3.4987,3.2943,3.1871,3.1147,2.9149,2.8516,2.8335,2.6866,2.6406,2.6406,2.6406,2.6533,2.6687,2.6687,2.6874,2.7048,2.7048,2.7101,2.7168,2.7168,2.7222,2.7309,2.7309,2.7449,2.7663,2.7898,2.8037,2.8003,2.7642,2.7804,2.8018,2.8203,2.8417,0.0,2.8529,2.8529,2.8529,2.8529,2.8529,2.8529,2.8529,2.8364,2.8158,2.7951,2.7716,2.7476,2.7168,2.7168,2.7001,2.6687,2.6687,2.66,0.0,0.0,0.0,0.0,0.0,0.0,0.0,0.0,0.0,0.0,0.0,0.0,0.0,0.0,0.0,0.0,0.0,0.0,0.0,0.0,0.0,0.0,3.2974,3.361,3.3981,3.4578,3.5059,3.5218,3.5644,3.6094,3.6523,3.6777,3.7127,3.7521,3.7541,3.7637,3.7832,3.8223,3.8439,3.8439,3.8887,3.9139,3.9139,3.9375,3.9492,3.9492,3.9766,3.9902,3.9902,3.9902,3.9902,0.0,3.9902,3.9902,3.9902,3.9902,3.9902,0.0,0.0,0.0,0.0,0.0,3.3777,3.2874,3.1654,3.1246,3.1051,2.9872,2.8861,2.8117,2.8117,2.7597,2.7001,2.7001,2.7155,2.7309,2.7309,2.7496,2.767,2.767,2.785,2.8003,2.8003,2.8115,2.8289,2.8505,0.0,0.0,2.8484,2.8505,2.8577,2.8743,2.8916,2.9358,0.0,3.0478,3.083,3.1774,3.1881,3.151,3.0564,3.0309,0.0,0.0,0.0,2.807,2.7697,2.7443,0.0,0.0,0.0,2.6921,0.0,0.0,0.0,0.0,2.6346,2.6213,0.0,0.0,0.0,0.0,0.0,0.0,0.0,0.0,0.0,0.0,0.0,0.0,0.0,0.0,0.0,0.0,3.455,3.5879,3.6658,3.6111,3.5742,3.6096,3.6504,3.6931,3.7324,3.7363,3.7559,3.8009,3.8048,3.8262,3.871,0.0,0.0,0.0,0.0,3.9902,3.9902,4.0019,4.0039,4.0039,4.0137,4.0176,4.0176,4.0176,4.0176,4.0176,4.0176,4.0176,4.0176,4.0176,4.0176,4.0156,3.9961,3.9902,3.9675,3.7833,3.6011,0.0,0.0,0.0,0.0,3.3873,3.2297,3.05,3.0545,2.9086,2.7444,2.7737,2.7675,2.7551,2.7825,2.8093,2.837,2.861,2.9052,2.9401,2.9401,2.9455,2.9496,2.9518,2.9572,2.9795,3.0384,2.9663,2.9177,2.9515,2.9572,0.0,3.2811,3.3132,3.3908,3.5913,0.0,0.0,3.2873,3.265,3.1698,2.9572,2.9415,2.905,2.8334,2.7791,2.7449,2.7403,2.7403,2.7376,2.7309,2.7309,2.7309,2.7296,2.6754,2.6513,0.0,0.0,0.0,0.0,0.0,0.0,0.0,0.0,0.0,0.0,0.0,0.0,0.0,0.0,0.0,3.5661,3.6491,3.6992,3.7148,3.7031,3.6953,3.7051,3.7129,3.7344,3.7736,3.7795,3.8107,3.8887,3.8945,3.916,3.9609,3.9726,3.9766,3.9766,3.9844,3.9902,3.9902,4.0605,4.0937,4.0957,0.0,0.0,4.1914,4.1914,4.1914,4.1914,4.1914,4.1914,4.1914,4.1914,4.1914,4.1777,4.043,3.9902,3.9845,3.9448,3.9051,3.8481,3.68,3.6224,3.5953,3.4323,3.2297,3.0545,3.0815,2.9556,0.0,3.05,2.9923,2.9114,3.1013,3.0175,2.9333,3.1208,3.1743,3.1825,3.1825,3.2214,3.258,3.2675,3.3065,3.4015,3.6089,3.2521,3.0224,3.2667,3.3036,3.4011,3.6667,3.703,3.7184,3.7628,3.7671,3.6609,3.3936,3.3526,3.3038,3.2199,3.1935,3.0923,2.8936,2.8729,2.847,2.8018,2.8039,2.7777,2.7309,2.7309,2.7309,2.7309,2.7188,2.7135,0.0,0.0,0.0,0.0,0.0,0.0,0.0,0.0,0.0,0.0,0.0,3.3864,3.5709,0.0,3.5882,3.6833,3.7185,3.7363,3.756,3.7599,3.7599,3.7599,3.7599,3.7853,3.8478,3.8536,3.8828,3.9492,3.9551,3.9648,3.9883,4.0293,4.0546,4.0546,4.0937,4.1133,4.1133,4.1582,4.1797,4.1816,4.2207,4.2402,4.2402,4.2402,4.2402,4.2402,4.2402,4.2402,4.2402,4.2402,4.2402,4.2324,4.1484,4.1133,4.1133,4.1133,4.1133,4.0997,3.9943,3.961,3.9434,3.8429,3.6642,3.4887,3.5049,3.3689,3.2314,3.3584,3.3224,3.2719,3.3891,3.2697,3.1495,3.2663,3.3206,3.3446,3.3446,3.4657,3.5772,3.5838,3.6079,3.6635,3.7881,3.5696,3.4322,3.5822,3.6047,3.6976,3.9536,3.9838,4.0276,4.1445,4.1554,4.0533,3.8008,3.6595,3.5224,3.3745,3.328,3.1961,2.9539,2.9148,2.8876,2.8625,2.8591,2.8444,2.815,2.815,2.815,2.815,2.815,2.785,0.0,0.0,0.0,0.0,0.0,0.0,0.0,3.2396,3.3589,3.3925,3.5499,3.6832,3.6832,3.7166,3.7422,3.7422,3.748,3.7695,3.8087,3.8146,3.8185,3.8283,3.8205,3.8458,3.9258,3.9336,3.9531,3.998,4.0098,4.0176,4.0254,4.1015,4.1445,4.1445,4.205,4.2402,4.2402,4.248,4.2577,4.2656,4.2753,4.2831,4.2909,4.2909,4.2909,4.2909,4.2909,4.2909,4.2909,4.2909,4.2909,4.2909,4.2909,4.2909,4.287,4.2518,4.2402,4.2402,4.2402,4.2402,4.2402,4.2402,4.0955,3.9227,3.9369,3.7861,3.6229,3.6841,3.6686,3.6433,3.6875,3.5676,3.4419,3.4881,3.5396,3.5801,3.5801,3.7397,3.8884,3.8884,3.8935,3.9118,3.9605,3.9694,3.9522,3.8972,3.8906,3.9779,4.2203,4.2504,4.3217,4.5059,4.5252,4.4296,4.192,3.9895,3.7726,3.5261,3.4688,3.3331,3.087,2.9863,2.9282,2.9183,2.9161,2.9108,2.9001,2.9001,2.9001,2.9001,2.9001,2.8503,3.4775,3.4994,3.4871,3.32,3.4028,3.5378,0.0,3.6107,3.6344,3.6753,3.7047,3.7226,3.7226,3.756,3.7834,3.7834,3.8184,3.8592,3.9004,3.9062,3.9219,3.9629,3.9316,3.9258,3.9766,3.9824,4.0,4.0391,4.082,4.1211,4.1562,4.2011,4.2265,4.2265,4.2363,4.2402,4.2402,4.2812,4.3203,4.3574,4.3984,4.4354,4.4705,4.4705,4.4705,4.4705,4.4705,4.4705,4.4705,4.4705,4.4705,4.4705,4.4705,4.4705,4.453,4.2968,4.2402,4.2402,4.2402,4.2402,4.2402,4.2402,4.0955,3.9315,3.9979,3.8619,3.7449,4.0184,3.9448,3.8315,4.0422,3.9276,3.8097,4.0193,4.0743,4.0796,4.0796,4.1194,4.1598,4.1708,4.1933,4.2802,4.4998,4.5371,4.4539,4.2092,4.173,4.2711,4.542,4.5762,4.5869,4.613,4.6152,4.5064,4.2356,4.1556,4.0206,3.7837,3.7527,3.6346,3.3999,3.1761,3.0354,2.9811,2.9797,2.9544,2.9001,2.9001,2.9001,2.9001,2.9001,2.8921,3.6504,3.6641,3.6567,3.5778,3.6182,3.6816,3.6992,3.7049,3.7107,3.7266,3.75,3.7638,3.7638,3.8008,3.8301,3.8301,3.8652,3.9004,3.918,3.9434,3.9766,4.0215,4.0312,4.0332,4.0273,4.0488,4.082,4.123,4.166,4.1973,4.2128,4.2578,4.291,4.3144,4.3417,4.3671,4.3905,4.4121,4.4297,4.4452,4.4647,4.4842,4.4998,4.4998,4.4998,4.4998,4.4998,4.4998,4.4998,4.4998,4.4998,4.4998,4.4998,4.4998,4.492,4.4178,4.3924,4.3924,4.3924,4.3924,4.3924,4.3924,4.3303,4.2631,4.293,4.2388,4.191,4.3222,4.2867,4.2352,4.3316,4.1996,4.061,4.1595,4.1994,4.2197,4.2197,4.3401,4.4536,4.458,4.469,4.5087,4.6114,4.6308,4.5902,4.4752,4.4602,4.5006,4.6138,4.6308,4.6308,4.6308,4.6308,4.5839,4.4686,4.4428,4.3293,4.0876,3.916,3.7186,3.4795,3.2185,3.0675,3.0434,3.0421,3.0301,3.006,3.006,3.006,3.006,3.006,3.006,3.7305,3.7305,3.7305,3.7305,3.7305,3.7324,3.7441,3.7461,3.75,3.7617,3.7891,3.8087,3.8087,3.8359,3.8631,3.8749,3.9004,3.9277,3.9531,3.9961,4.041,4.0801,4.125,4.1406,4.1055,4.1328,4.1641,4.1953,4.2363,4.2636,4.2753,4.3203,4.3633,4.4062,4.4394,4.4726,4.4998,4.4998,4.5057,4.5174,4.5174,4.5252,4.535,4.535,4.535,4.535,4.535,4.535,4.535,4.535,4.535,4.535,4.535,4.535,4.535,4.535,4.5213,4.4998,4.4998,4.4998,4.4998,4.4998,4.4998,4.5018,4.5154,4.5174,4.5213,4.533,4.535,4.535,4.535,4.4272,4.3191,4.3191,4.3413,4.3615,4.3615,4.5043,4.6308,4.6308,4.6308,4.6308,4.6308,4.6308,4.6308,4.6308,4.6308,4.6308,4.6308,4.6308,4.6308,4.6308,4.6308,4.6308,4.6308,4.6308,4.5546,4.3727,4.1108,3.8535,3.6135,3.3476,3.1664,3.0939,3.0915,3.0875,3.0795,3.0795,3.0795,3.0795,3.0795,3.0795,3.7305,3.7305,3.7305,3.7305,3.7305,3.7402,3.7795,3.7892,3.8009,3.8475,3.8573,3.8573,3.8573,3.8573,3.8729,3.9121,3.9199,3.9492,4.0332,4.0859,4.1308,4.1719,4.2109,4.2363,0.0,4.2363,4.2382,4.2382,4.2812,4.3263,4.3652,4.4101,4.453,4.4959,4.4979,4.4998,4.4998,4.4998,4.5234,4.5686,4.5686,4.5881,4.6269,4.6269,4.6269,4.6269,4.6269,4.6269,4.6269,4.6269,4.6269,4.6269,4.6269,4.6269,4.6269,4.6269,4.5742,4.4998,4.4998,4.4998,4.4998,4.4998,4.4998,4.5076,4.5549,4.5686,4.5764,4.6152,4.6269,4.6269,4.6269,4.6226,4.616,4.616,4.618,4.618,4.618,4.6245,4.6308,4.6308,4.6308,4.6308,4.6308,4.6308,4.6308,4.6308,4.6308,4.6308,4.6308,4.6308,4.6308,4.6308,4.6308,4.6308,4.6308,4.6308,4.6287,4.618,4.386,4.1376,3.8977,3.6498,3.392,3.1246,3.1186,3.1052,3.0795,3.0795,3.0795,3.0795,3.0795,3.0795,3.8162,3.8162,3.8162,3.8162,3.8162,3.8202,3.832,3.8359,3.8416,3.8573,3.8592,3.8671,3.8964,3.8984,3.9141,3.959,3.9902,4.0254,4.0879,4.1348,4.1738,4.2148,4.2598,4.2969,0.0,0.0,0.0,4.3222,4.3691,4.4141,4.453,4.4705,4.4998,4.5449,4.5449,4.5586,4.5859,4.5857,4.5937,4.6094,4.6094,4.6172,4.6308,4.6308,4.6308,4.6308,4.6308,4.6308,4.6308,4.6308,4.6308,4.6308,4.6308,4.6308,4.6308,4.6308,4.6113,4.5857,4.5857,4.5857,4.5857,4.5857,4.5857,4.5877,4.6055,4.6094,4.6113,4.6269,4.6308,4.6308,4.6308,4.6308,4.6308,4.6308,4.6308,4.6308,4.6308,4.6308,4.6308,4.6308,4.6308,4.6308,4.6308,4.6308,4.6308,4.6308,4.6308,4.6308,4.6308,4.6308,4.6308,4.6308,4.6308,4.6308,4.6308,4.6308,4.6308,4.6308,4.397,4.2241,4.1416,3.9045,3.656,3.3981,3.3911,3.3089,3.1393,3.1393,3.1393,3.1393,3.1393,3.1393,3.8592,3.8592,3.8592,3.8592,3.8592,3.8592,3.8592,3.8592,3.8592,3.8592,3.871,3.8887,3.9141,3.9336,3.959,4.0039,4.0469,4.0898,4.1348,4.1914,4.2363,4.2637,4.3183,4.3673,4.3926,0.0,4.3887,4.416,4.4432,4.4805,4.5234,4.5254,4.5449,4.59,4.592,4.6035,4.6308,4.6308,4.6308,4.6308,4.6308,4.6308,4.6308,4.6308,4.6308,4.6308,4.6308,4.6308,4.6308,4.6308,4.6308,4.6308,4.6308,4.6308,4.6308,4.6308,4.6308,4.6308,4.6308,4.6308,4.6308,4.6308,4.6308,4.6308,4.6308,4.6308,4.6308,4.6308,4.6308,4.6308,4.6308,4.6308,4.6308,4.6308,4.6308,4.6308,4.6308,4.6308,4.6308,4.6308,4.6308,4.6308,4.6308,4.6426,4.6582,4.6738,4.6758,4.6641,4.6348,4.6308,4.6308,4.6308,4.6308,4.6308,4.6308,4.6308,4.6308,4.6308,4.4804,4.313,4.1394,4.065,3.8314,3.4093,3.4849,3.4116,3.1687,3.1687,3.1687,3.1687,3.1687,3.1687,3.8592,3.8592,3.8592,3.8592,3.8592,3.8592,3.8592,3.8592,3.8592,3.8592,3.8925,3.9199,3.9238,3.9609,4.0078,4.0508,4.0937,4.1387,4.1797,4.2579,4.3126,4.3165,4.3907,4.4414,0.0,0.0,0.0,4.5057,0.0,4.5254,4.5705,4.5725,4.592,4.6289,4.6308,4.6308,4.6308,4.6308,4.6308,4.6308,4.6308,4.6308,4.6308,4.6308,4.6308,4.6308,4.6308,4.6308,4.6308,4.6308,4.6308,4.6308,4.6308,4.6308,4.6308,4.6308,4.6308,4.6308,4.6308,4.6308,4.6308,4.6308,4.6308,4.6308,4.6308,4.6308,4.6308,4.6308,4.6308,4.6308,4.6308,4.6308,4.6308,4.6308,4.6308,4.6308,4.6308,4.6328,4.6328,4.6328,4.6348,4.6367,4.6367,4.6677,4.7087,4.7542,4.76,4.7307,4.6465,4.6367,4.6367,4.6367,4.6367,4.6367,4.6328,4.6328,4.6328,4.6308,4.6308,4.4211,3.9585,4.1551,3.9409,3.2219,3.4327,3.4233,3.1687,3.1687,3.1687,3.1687,3.1687,3.1687,3.8592,3.8592,3.8592,3.8592,3.8592,3.8592,3.8592,3.8592,3.8592,3.8592,3.8925,3.9316,3.9648,4.0059,4.0586,4.1348,4.1562,4.1894,4.2676,4.295,4.3341,4.3984,4.4258,4.4648,4.5314,4.5471,0.0,0.0,4.5683,4.5703,4.6113,4.6152,4.6191,4.6289,4.6308,4.6308,4.6308,4.6308,4.6308,4.6308,4.6308,4.6308,4.6308,4.6308,4.6308,4.6308,4.6308,4.6308,4.6308,4.6308,4.6308,4.6308,4.6308,4.6308,4.6308,4.6308,4.6308,4.6308,4.6308,4.6308,4.6308,4.6308,4.6308,4.6308,4.6308,4.6308,4.6308,4.6308,4.6308,4.6308,4.6308,4.6308,4.6308,4.6308,4.6308,4.6308,4.6308,4.6543,4.6755,4.6755,4.7031,4.7268,4.7268,4.7344,4.7441,4.7581,4.76,4.7522,4.7307,4.7268,4.7268,4.7268,4.7268,4.7129,4.6775,4.6755,4.6618,4.6328,4.6308,4.5744,4.4495,4.5043,4.2773,3.7252,3.7734,3.595,3.1687,3.1687,3.1687,3.1687,3.1687,3.1687,3.8592,3.8592,3.8592,3.8592,3.8592,3.8592,3.8592,3.8592,3.8651,3.8827,3.9218,3.9648,4.0098,4.0527,4.1035,4.1699,4.1953,4.2305,4.3008,4.3438,4.3848,4.4336,4.4726,4.5177,4.5646,4.5861,4.6076,0.0,4.6094,4.6055,4.6289,4.6308,4.6308,4.6308,4.6308,4.6308,4.6308,4.6308,4.6308,4.6308,4.6308,4.6308,4.6308,4.6308,4.6308,4.6308,0.0,4.6308,4.6308,4.6308,4.6406,4.656,4.656,4.6699,4.6855,4.6855,4.6855,4.6855,4.6855,4.6855,4.6797,4.6426,4.6308,4.6308,4.6308,4.6308,4.6308,4.6308,4.6308,4.6348,4.6523,4.656,4.6621,4.6816,4.6855,4.6855,4.6855,4.7051,4.7207,4.7207,4.7422,4.7659,4.7832,4.7851,4.7933,4.8128,4.8167,4.8167,4.8167,4.7835,4.76,4.76,4.76,4.748,4.7246,4.7207,4.7109,4.6875,4.6855,4.6293,4.5043,4.6011,4.4179,3.9107,3.9016,3.7114,3.3276,3.2219,3.1687,3.1687,3.1687,3.1687,3.8592,3.8631,3.8671,3.8671,3.8729,3.8768,3.8768,3.8768,3.8866,3.9219,3.9668,4.0098,4.043,4.0879,4.1348,4.1816,4.2167,4.2597,4.3204,4.3906,4.4433,4.4551,4.5236,4.5725,4.5783,4.6115,4.6308,4.6308,4.6308,4.6308,4.6308,4.6308,4.6308,4.6308,4.6308,4.6308,4.6308,4.6308,4.6308,4.6308,4.6308,4.6308,4.6308,4.6367,4.6387,4.6387,0.0,0.0,4.6465,4.6465,4.668,4.6989,4.6989,4.7246,4.76,4.76,4.76,4.76,4.76,4.76,4.7483,4.6719,4.6465,4.6465,4.6465,4.6465,4.6465,4.6465,4.6465,4.6562,4.6892,4.6989,4.7087,4.75,4.76,4.76,4.76,4.764,4.7698,4.7757,4.7776,4.7894,4.8223,4.8301,4.8418,4.8855,4.8913,4.8913,4.8913,4.8226,4.7776,4.7776,4.7776,4.7757,4.7679,4.7679,4.7659,4.76,4.76,4.6466,4.3977,4.5881,4.4689,3.9759,3.9651,3.8437,3.5956,3.3464,3.2287,3.2249,3.188,3.1687,3.8592,3.8846,3.9101,3.9101,3.9375,3.9668,3.9668,3.9668,3.9687,3.9766,4.0117,4.041,4.0489,4.0879,4.1445,4.2167,4.2363,4.2812,4.4004,4.4297,4.4668,4.5392,4.5607,4.5842,4.6152,4.625,4.6308,4.6308,4.6308,4.6308,4.6308,4.6308,4.6308,4.6308,4.6308,4.6308,4.6308,4.6308,4.6308,4.6308,4.6308,4.6308,4.6308,4.6638,4.6794,4.6814,4.7207,0.0,4.7386,4.7386,4.7425,4.7483,4.7483,4.7542,4.76,4.76,4.76,4.76,4.76,4.76,4.7581,4.7425,4.7386,4.7386,4.7386,4.7386,4.7386,4.7386,4.7386,4.7405,4.7441,4.7483,4.7503,4.7581,4.76,4.76,4.76,4.7851,4.8203,4.8597,4.8656,4.8698,4.8776,4.8773,4.8815,4.8894,4.8913,4.8913,4.8913,4.8776,4.8656,4.8656,4.8656,4.8519,4.8125,4.8105,4.7949,4.762,4.76,4.7382,4.688,4.7259,4.6082,4.3115,4.3046,4.1856,3.9424,3.6616,3.5247,3.52,3.2825,3.1687,3.8592,3.8887,3.9199,3.9199,3.9551,3.9902,3.9902,3.9902,3.9961,4.0176,4.0371,4.0567,4.082,4.1211,4.1699,4.2304,4.2597,4.3144,4.4238,4.459,4.4961,4.5627,4.5881,4.6074,4.6289,4.6308,4.6308,4.6308,4.6308,4.6308,4.6308,4.6308,4.6308,4.6308,4.6308,4.6308,4.6308,4.6308,4.6308,4.6308,4.6501,4.6599,4.6618,4.7048,4.7266,4.7285,4.75,0.0,4.76,4.76,4.7715,4.791,4.791,4.8069,4.8288,4.8288,4.8288,4.8288,4.8288,4.8288,4.8288,4.8288,4.7972,4.76,4.76,4.76,4.76,4.76,4.76,4.7659,4.7851,4.791,4.7969,4.8206,4.8288,4.8288,4.8288,4.8421,4.8636,4.8855,4.8913,4.8913,4.8913,4.8913,4.8913,4.8913,4.8913,4.8913,4.8913,4.8913,4.8913,4.8913,4.8913,4.8815,4.8578,4.8558,4.848,4.8284,4.8288,4.8167,4.791,4.791,4.7253,4.5853,4.3265,4.135,4.0183,3.6169,3.4229,3.4205,3.2797,3.2179,3.8592,3.8887,3.9219,3.9316,3.9687,4.0039,4.0039,4.0098,4.0234,4.045,4.0586,4.0762,4.1133,4.1543,4.1933,4.2343,4.2793,4.3438,4.4394,4.4803,4.5215,4.5764,4.6113,4.6308,4.6308,4.6308,4.6308,4.6308,4.6308,4.6308,4.6308,4.6308,4.6308,4.6308,4.6308,4.6308,4.6308,4.6308,4.6348,4.6445,4.6755,4.695,4.7067,4.7519,4.7737,4.7737,4.7835,0.0,0.0,4.7874,4.8069,4.834,4.834,4.8578,4.8913,4.8913,4.8913,4.8913,4.8913,4.8913,4.8913,4.8913,4.8444,4.7874,4.7874,4.7874,4.7874,4.7874,4.7874,4.7952,4.8262,4.834,4.8437,4.8815,4.8913,4.8913,4.8913,4.8913,4.8913,4.8913,4.8913,4.8913,4.8913,4.8913,4.8913,4.8913,4.8913,4.8913,4.8913,4.8913,4.8913,4.8913,4.8913,4.8913,4.8913,4.8913,4.8913,4.8913,4.8913,4.8734,4.8359,4.834,4.8183,4.7874,4.3995,4.1986,4.1963,3.6828,3.4337,3.4313,3.3143,3.2594,3.8592,3.8887,3.9297,3.9726,4.0137,4.045,4.045,4.0781,4.0976,4.0567,4.084,4.1152,4.1191,4.1543,4.1933,4.2343,4.2793,4.3536,4.4764,4.4979,4.5311,4.6152,4.6289,4.6308,4.6308,4.6308,4.6308,4.6308,4.6308,4.6308,4.6308,4.6308,4.6308,4.6308,4.6308,4.6308,4.6308,4.6308,4.6482,4.6853,4.6892,4.7107,4.7561,4.7949,4.8144,4.8164,4.8597,0.0,0.0,4.8796,4.8815,4.8855,4.8855,4.8874,4.8913,4.8913,4.8913,4.8913,4.8913,4.8913,4.8913,4.8913,4.8855,4.8796,4.8796,4.8796,4.8796,4.8796,4.8796,4.8796,4.8835,4.8855,4.8855,4.8894,4.8913,4.8913,4.8913,4.8913,4.8913,4.8913,4.8913,4.8913,4.8913,4.8913,4.8913,4.8913,4.8913,4.8913,4.8913,4.8913,4.8913,4.8913,4.8913,4.8913,4.8913,4.8913,4.8913,4.8913,4.8913,4.8894,4.8855,4.8855,4.8835,4.8796,4.8319,4.8088,4.8088,4.2605,3.9951,3.9856,3.4898,3.2594,3.8592,3.8887,3.9238,3.9434,3.9805,4.0156,4.0156,4.0273,4.043,4.0489,4.0664,4.0859,4.1152,4.1543,4.1933,4.2343,4.2793,4.3535,4.4822,4.4998,4.533,4.6191,4.6308,4.6308,4.6308,4.6308,4.6308,4.6308,4.6308,4.6308,4.6308,4.6308,4.6308,4.6308,4.6308,4.6426,4.6658,4.6658,4.6872,4.7324,4.7578,4.7793,4.7969,4.8421,4.8617,4.8636,4.8835,0.0,0.0,4.8913,4.8913,4.8913,4.8913,4.8913,4.8913,4.8913,4.8913,4.8913,4.8913,4.8913,4.8913,4.8913,4.8913,4.8913,4.8913,4.8913,4.8913,4.8913,4.8913,4.8913,4.8913,4.8913,4.8913,4.8913,4.8913,4.8913,4.8913,4.8913,4.8913,4.8913,4.8913,4.8913,4.8913,4.8913,4.8913,4.8913,4.8913,4.8913,4.8913,4.8913,4.8913,4.8913,4.8913,4.8913,4.8913,4.8913,4.8913,4.8913,4.8913,4.8913,4.8913,4.8913,4.8913,4.8913,4.7353,4.6546,4.6523,4.2773,4.0133,3.8589,3.6432,3.458,3.8592,3.8807,3.9043,3.918,3.9453,3.9687,3.9687,3.9805,3.998,4.0254,4.041,4.0645,4.1113,4.1543,4.1933,4.2343,4.2793,4.3535,4.4822,4.4998,4.533,4.6191,4.6308,4.6308,4.6308,4.6308,4.6308,4.6308,4.6308,4.6308,4.6308,4.6308,4.6308,4.6308,4.6426,4.6599,4.6911,4.7028,4.7344,4.7796,4.8066,4.8281,4.8418,4.8734,4.8913,4.8913,0.0,0.0,0.0,4.8913,4.8913,4.8913,4.8913,4.8913,4.8913,4.8913,4.8913,4.8913,4.8913,4.8913,4.8913,4.8913,4.8913,4.8913,4.8913,4.8913,4.8913,4.8913,4.8913,4.8913,4.8913,4.8913,4.8913,4.8913,4.8913,4.8913,4.8913,4.8913,4.8913,4.8913,4.8913,4.8913,4.8913,4.8913,4.8913,4.8913,4.8913,4.8913,4.8913,4.8913,4.8913,4.8913,4.8913,4.8913,4.8913,4.8913,4.8913,4.8913,4.8913,4.8913,4.8913,4.8913,4.8913,4.8913,4.7078,4.6149,4.6149,4.3523,4.1332,3.9545,3.8002,3.5907,3.8592,3.8592,3.871,3.9101,3.9199,3.9199,3.9199,3.957,3.9902,3.9902,4.0215,4.0645,4.1113,4.1543,4.1933,4.2343,4.2793,4.3535,4.4822,4.4998,4.533,4.6191,4.6308,4.6308,4.6308,4.6308,4.6308,4.6308,4.6308,0.0,4.6308,4.6308,4.6308,4.6308,4.6677,4.6911,4.6911,4.7363,4.7815,4.8203,4.8203,4.8437,4.8894,4.8913,4.8913,0.0,0.0,0.0,0.0,4.8913,4.8913,4.8913,4.8913,4.8913,4.8913,4.8913,4.8913,4.8913,4.8913,4.8913,4.8913,4.8913,4.8913,4.8913,4.8913,4.8913,4.8913,4.8913,4.8913,4.8913,4.8913,4.8913,4.8913,4.8913,4.8913,4.8913,4.8913,4.8913,4.8913,4.8913,4.8913,4.8913,4.8913,4.8913,4.8913,4.8913,4.8913,4.8913,4.8913,4.8913,4.8913,4.8913,4.8913,4.8913,4.8913,4.8913,4.8913,4.8913,4.8913,4.8913,4.8913,4.8913,4.8913,4.8913,4.8871,4.8848,4.8848,4.6242,4.4961,4.4819,3.969,3.5907,3.8592,3.8592,3.8631,3.8768,3.8788,3.8788,3.8788,3.8905,3.9179,3.9766,4.0,4.0312,4.1054,4.1308,4.1601,4.2285,4.2519,4.3163,4.4783,4.4998,4.533,4.6191,4.6308,4.6308,4.6308,4.6308,4.6308,4.6308,4.6308,4.6308,4.6308,4.6308,4.6426,4.6697,4.6833,4.7185,4.777,4.7949,4.8223,4.8675,4.8675,4.8776,4.8913,4.8913,4.8913,0.0,0.0,0.0,0.0,4.8913,4.8913,4.8913,4.8913,4.8913,4.8913,4.8913,4.8913,4.8913,4.8913,4.8913,4.8913,4.8913,4.8913,4.8913,4.8913,4.8913,4.8913,4.8913,4.8913,4.8913,4.8913,4.8913,4.8913,4.8913,4.8913,4.8913,4.8913,4.8913,4.8913,4.8913,4.8913,4.8913,4.8913,4.8913,4.8913,4.8913,4.8913,4.8913,4.8913,4.8913,4.8913,4.8913,4.8913,4.8913,4.8913,4.8913,4.8913,4.8913,4.8913,4.8913,4.8913,4.8913,4.8913,4.8913,4.8913,4.8913,4.8913,4.8069,4.5849,4.2314,3.8904,3.6864,3.8592,3.8592,3.8592,3.8592,3.8592,3.8592,3.8592,3.8592,3.8846,3.9707,3.9902,4.0175,4.1035,4.1328,4.1641,4.2304,4.2538,4.3202,4.4783,4.4998,4.533,4.6191,4.6308,4.6308,4.6308,4.6308,4.6308,4.6308,4.6308,4.6308,4.6308,4.6308,4.6582,4.7148,4.7146,4.75,4.8203,4.8379,4.8617,4.8913,4.8913,4.8913,4.8913,4.8913,4.8913,0.0,0.0,0.0,0.0,4.8913,4.8913,4.8913,4.8913,4.8913,4.8913,4.8913,4.8913,4.8913,4.8913,4.8913,4.8913,4.8913,4.8913,4.8913,4.8913,4.8913,4.8913,4.8913,4.8913,4.8913,4.8913,4.8913,4.8913,4.8913,4.8913,4.8913,4.8913,4.8913,4.8913,4.8913,4.8913,4.8913,4.8913,4.8913,4.8913,4.8913,4.8913,4.8913,4.8913,4.8913,4.8913,4.8913,4.8913,4.8913,4.8913,4.8913,4.8913,4.8913,4.8913,4.8913,4.8913,4.8913,4.8913,4.8913,4.8913,4.8913,4.8913,4.8913,4.6752,4.2577,4.0971,3.969,0.0,3.8592,3.8592,3.8592,3.8592,3.8592,3.8592,3.8592,0.0,3.9707,3.9902,4.0175,4.1035,4.1543,4.1933,4.2343,4.2812,4.3574,4.4822,4.5057,4.5389,4.6211,4.6308,4.6308,4.6308,4.6308,4.6308,4.6308,4.6308,4.6308,4.6308,4.6308,4.6699,4.7581,4.76,4.7815,4.8242,4.8675,4.8913,4.8913,4.8913,4.8913,4.8913,4.8913,4.8913,0.0,0.0,0.0,0.0,4.8913,4.8913,4.8913,4.8913,4.8913,4.8913,4.8913,4.8913,4.8913,4.8913,4.8913,4.8913,4.8913,4.8913,4.8913,4.8913,4.8913,4.8913,4.8913,4.8913,4.8913,4.8913,4.8913,4.8913,4.8913,4.8913,4.8913,4.8913,4.8913,4.8913,4.8913,4.8913,4.8913,4.8913,4.8913,4.8913,4.8913,4.8913,4.8913,4.8913,4.8913,4.8913,4.8913,4.8913,4.8913,4.8913,4.8913,4.8913,4.8913,4.8913,4.8913,4.8913,4.8913,4.8913,4.8913,4.8913,4.8913,4.8913,4.8913,4.7563,4.5008,4.5008,4.3737,3.8592,0.0,3.8592,3.8592,3.8592,3.8592,0.0,3.8592,3.8846,3.9707,3.9902,4.0175,4.1035,4.1543,4.1933,4.2343,4.3046,4.3906,4.4862,4.5564,4.6074,4.6289,4.6308,4.6308,4.6308,4.6308,4.6308,4.6308,4.6308,4.6308,4.6308,4.6308,4.6699,4.7581,4.76,4.7972,4.8714,4.8855,4.8913,4.8913,4.8913,4.8913,4.8913,4.8913,4.8913,0.0,0.0,0.0,4.8913,4.8913,4.8913,4.8913,4.8913,4.8913,4.8913,4.8913,4.8913,4.8913,4.8913,4.8913,4.8913,4.8913,4.8913,4.8913,4.8913,4.8913,4.8913,4.8913,4.8913,4.8913,4.8913,4.8913,4.8913,4.8913,4.8913,4.8913,4.8913,4.8913,4.8913,4.8913,4.8913,4.8913,4.8913,4.8913,4.8913,4.8913,4.8913,4.8913,4.8913,4.8913,4.8913,4.8913,4.8913,4.8913,4.8913,4.8913,4.8913,4.8913,4.8913,4.8913,4.8913,4.8913,4.8913,4.8913,4.8913,4.8913,4.8913,4.8913,4.7563,4.5008,4.5008,4.466,3.8592,3.8592,3.8592,3.8592,3.8592,3.8592,3.8592,3.8749,3.9062,3.9746,4.0059,4.0449,4.1308,4.1797,4.2226,4.2656,4.3457,4.4336,4.5195,4.5879,4.6308,4.6308,4.6308,4.6308,4.6308,4.6308,4.6308,4.6308,4.6308,4.6308,4.6308,4.6308,4.6699,4.7581,4.76,4.8011,4.8894,4.8913,4.8913,4.8913,4.8913,4.8913,4.8913,4.8913,4.8913,0.0,0.0,0.0,4.8913,4.8913,4.8913,4.8913,4.8913,4.8913,4.8913,4.8913,4.8913,4.8913,4.8913,4.8913,4.8913,4.8913,4.8913,4.8913,4.8913,4.8913,4.8913,4.8913,4.8913,4.8913,4.8913,4.8913,4.8913,4.8913,4.8913,4.8913,4.8913,4.8913,4.8913,4.8913,4.8913,4.8913,4.8913,4.8913,4.8913,4.8913,4.8913,4.8913,4.8913,4.8913,4.8913,4.8913,4.8913,4.8913,4.8913,4.8913,4.8913,4.8913,4.8913,4.8913,4.8913,4.8913,4.8913,4.8913,4.8913,4.8913,4.8913,4.8913,4.8181,4.6798,4.6798,4.6798,3.8592,3.8592,3.8592,3.8592,3.8592,3.8592,3.8592,3.8925,3.9336,3.9805,4.0215,4.0762,4.1641,4.2128,4.2538,4.3028,4.3867,4.4785,4.5666,4.6074,4.6308,4.6308,4.6308,4.6308,4.6308,4.6308,4.6308,4.6308,4.6308,4.6308,4.6308,4.6367,4.6758,4.7581,4.7659,4.8069,4.8894,4.8913,4.8913,4.8913,4.8913,4.8913,4.8913,4.8913,4.8913,0.0,0.0,0.0,4.8913,4.8913,4.8913,4.8913,4.8913,4.8913,4.8913,4.8913,4.8913,4.8913,4.8913,4.8913,4.8913,4.8913,4.8913,4.8913,4.8913,4.8913,4.8913,4.8913,4.8913,4.8913,4.8913,4.8913,4.8913,4.8913,4.8913,4.8913,4.8913,4.8913,4.8913,4.8913,4.8913,4.8913,4.8913,4.8913,4.8913,4.8913,4.8913,4.8913,4.8913,4.8913,4.8913,4.8913,4.8913,4.8913,4.8913,4.8913,4.8913,4.8913,4.8913,4.8913,4.8913,4.8913,4.8913,4.8913,4.8913,4.8913,4.8913,4.8913,4.8913,4.8913,4.8913,4.8913,3.8592,3.8592,3.8592,3.8592,3.8592,3.8592,3.8592,3.8925,3.9336,3.9805,4.0215,4.0762,4.1641,4.2128,4.2538,4.3028,4.4121,4.5213,4.6094,4.6269,4.6308,4.6308,4.6308,4.6308,4.6308,4.6308,4.6308,4.6308,4.6308,4.6308,4.6308,4.6618,4.7048,4.7581,4.793,4.8359,4.8894,4.8913,4.8913,4.8913,4.8913,4.8913,4.8913,4.8913,4.8913,0.0,0.0,4.8913,4.8913,4.8913,4.8913,4.8913,4.8913,4.8913,4.8913,4.8913,4.8913,4.8913,4.8913,4.8913,4.8913,4.8913,4.8913,4.8913,4.8913,4.8913,4.8913,4.8913,4.8913,4.8913,4.8913,4.8913,4.8913,4.8913,4.8913,4.8913,4.8913,4.8913,4.8913,4.8913,4.8913,4.8913,4.8913,4.8913,4.8913,4.8913,4.8913,4.8913,4.8913,4.8913,4.8913,4.8913,4.8913,4.8913,4.8913,4.8913,4.8913,4.8913,4.8913,4.8913,4.8913,4.8913,4.8913,4.8913,4.8913,4.8913,4.8913,4.8913,4.8913,4.8913,4.8913,4.8913,3.8592,3.8592,3.8592,3.8592,3.8592,3.8651,3.8885,3.9258,3.9707,4.0118,4.0762,4.1387,4.2011,4.248,4.3066,4.3984,4.4824,4.5586,4.6211,4.6308,4.6308,4.6308,4.6308,4.6308,4.6308,4.6308,4.6308,4.6308,4.6308,4.6308,4.6308,4.6677,4.7107,4.76,4.7988,4.8441,4.8894,4.8913,4.8913,4.8913,4.8913,4.8913,4.8913,4.8913,4.8913,4.8913,0.0,4.8913,4.8913,4.8913,4.8913,4.8913,4.8913,4.8913,4.8913,4.8913,4.8913,4.8913,4.8913,4.8913,4.8913,4.8913,4.8913,4.8913,4.8913,4.8913,4.8913,4.8913,4.8913,4.8913,4.8913,4.8913,4.8913,4.8913,4.8913,4.8913,4.8913,4.8913,4.8913,4.8913,4.8913,4.8913,4.8913,4.8913,4.8913,4.8913,4.8913,4.8913,4.8913,4.8913,4.8913,4.8913,4.8913,4.8913,4.8913,4.8913,4.8913,4.8913,4.8913,4.8913,4.8913,4.8913,4.8913,4.8913,4.8913,4.8913,4.8913,4.8913,4.8913,4.8913,4.8913,4.8913,3.8592,3.8592,3.8592,3.8592,0.0,3.8827,3.9121,3.9648,4.0156,4.0567,4.1269,4.1953,4.246,4.3027,4.375,4.4822,4.5391,4.5842,4.625,4.6308,4.6308,4.6308,4.6308,4.6308,4.6308,4.6308,4.6308,4.6308,4.6308,4.6308,4.6308,4.6797,4.7246,4.76,4.8109,4.8538,4.8894,4.8913,4.8913,4.8913,4.8913,4.8913,4.8913,4.8913,4.8913,4.8913,4.8913,4.8913,4.8913,4.8913,4.8913,4.8913,4.8913,4.8913,4.8913,4.8913,4.8913,4.8913,4.8913,4.8913,4.8913,4.8913,4.8913,4.8913,4.8913,4.8913,4.8913,4.8913,4.8913,4.8913,4.8913,4.8913,4.8913,4.8913,4.8913,4.8913,4.8913,4.8913,4.8913,4.8913,4.8913,4.8913,4.8913,4.8913,4.8913,4.8913,4.8913,4.8913,4.8913,4.8913,4.8913,4.8913,4.8913,4.8913,4.8913,4.8913,4.8913,4.8913,4.8913,4.8913,4.8913,4.8913,4.8913,4.8913,4.8913,4.8913,4.8913,4.8913,4.8913,4.8913,4.8913,4.8913,3.8592,3.8592,3.8592,3.8592,3.8885,3.916,3.9199,3.9844,0.0,4.1054,0.0,4.2051,4.2891,4.3751,4.4453,4.492,4.5391,4.5842,4.625,4.6308,4.6308,4.6308,4.6308,4.6308,4.6308,4.6308,4.6308,4.6308,4.6308,4.6308,4.6308,4.709,4.7581,4.76,4.8402,4.8874,4.8913,4.8913,4.8913,4.8913,4.8913,4.8913,4.8913,4.8913,4.8913,4.8913,4.8913,4.8913,4.8913,4.8913,4.8913,4.8913,4.8913,4.8913,4.8913,4.8913,4.8913,4.8913,4.8913,4.8913,4.8913,4.8913,4.8913,4.8913,4.8913,4.8913,4.8913,4.8913,4.8913,4.8913,4.8913,4.8913,4.8913,4.8913,4.8913,4.8913,4.8913,4.8913,4.8913,4.8913,4.8913,4.8913,4.8913,4.8913,4.8913,4.8913,4.8913,4.8913,4.8913,4.8913,4.8913,4.8913,4.8913,4.8913,4.8913,4.8913,4.8913,4.8913,4.8913,4.8913,4.8913,4.8913,4.8913,4.8913,4.8913,4.8913,4.8913,4.8913,4.8913,4.8913,4.8913,4.8913,3.8592,3.8592,3.8651,3.8925,3.9297,0.0,0.0,4.0312,4.1074,4.1465,4.2129,0.0,0.0,4.4394,4.4901,4.5351,4.5781,4.6113,4.6289,4.6308,4.6308,4.6308,4.6308,4.6308,4.6308,4.6308,4.6308,4.6308,4.6308,4.6308,4.6308,4.7132,4.76,4.76,4.8464,4.8913,4.8913,4.8913,4.8913,4.8913,4.8913,4.8913,4.8913,4.8913,4.8913,4.8913,4.8913,4.8913,4.8913,4.8913,4.8913,4.8913,4.8913,4.8913,4.8913,4.8913,4.8913,4.8913,4.8913,4.8913,4.8913,4.8913,4.8913,4.8913,4.8913,4.8913,4.8913,4.8913,4.8913,4.8913,4.8913,4.8913,4.8913,4.8913,4.8913,4.8913,4.8913,4.8913,4.8913,4.8913,4.8913,4.8913,4.8913,4.8913,4.8913,4.8913,4.8913,4.8913,4.8913,4.8913,4.8913,4.8913,4.8913,4.8913,4.8913,4.8913,4.8913,4.8913,4.8913,4.8913,4.8913,4.8913,4.8913,4.8913,4.8913,4.8913,4.8913,4.8913,4.8913,4.8913,4.8913,4.8913,3.8592,3.8592,3.869,3.9101,0.0,0.0,4.0253,4.0879,4.1484,4.1914,4.2793,4.3672,4.4297,0.0,4.5332,4.5646,4.6035,4.6308,4.6308,4.6308,4.6308,4.6308,4.6308,4.6308,4.6308,4.6308,4.6308,4.6308,4.6308,4.6367,4.6484,4.7187,4.7659,4.7796,4.8499,4.8913,4.8913,4.8913,4.8913,4.8913,4.8913,4.8913,4.8913,4.8913,4.8913,4.8913,4.8913,4.8913,4.8913,4.8913,4.8913,4.8913,4.8913,4.8913,4.8913,4.8913,4.8913,4.8913,4.8913,4.8913,4.8913,4.8913,4.8913,4.8913,4.8913,4.8913,4.8913,4.8913,4.8913,4.8913,4.8913,4.8913,4.8913,4.8913,4.8913,4.8913,4.8913,4.8913,4.8913,4.8913,4.8913,4.8913,4.8913,4.8913,4.8913,4.8913,4.8913,4.8913,4.8913,4.8913,4.8913,4.8913,4.8913,4.8913,4.8913,4.8913,4.8913,4.8913,4.8913,4.8913,4.8913,4.8913,4.8913,4.8913,4.8913,4.8913,4.8913,4.8913,4.8913,4.8913,4.8913,4.8913,3.8592,3.8592,3.871,3.9101,3.9551,4.0117,4.0996,4.1523,4.1933,4.2343,4.3496,4.4394,4.4414,4.5119,0.0,4.5705,4.6035,4.6308,4.6308,4.6308,4.6308,4.6308,4.6308,4.6308,4.6308,4.6308,4.6308,4.6308,4.6308,4.6484,4.6892,4.7344,4.7773,4.8203,4.8656,4.8913,4.8913,4.8913,4.8913,4.8913,4.8913,4.8913,4.8913,4.8913,4.8913,4.8913,4.8913,4.8913,4.8913,4.8913,4.8913,4.8913,4.8913,4.8913,4.8913,4.8913,4.8913,4.8913,4.8913,4.8913,4.8913,4.8913,4.8913,4.8913,4.8913,4.8913,4.8913,4.8913,4.8913,4.8913,4.8913,4.8913,4.8913,4.8913,4.8913,4.8913,4.8913,4.8913,4.8913,4.8913,4.8913,4.8913,4.8913,4.8913,4.8913,4.8913,4.8913,4.8913,4.8913,4.8913,4.8913,4.8913,4.8913,4.8913,4.8913,4.8913,4.8913,4.8913,4.8913,4.8913,4.8913,4.8913,4.8913,4.8913,4.8913,4.8913,4.8913,4.8913,4.8913,4.8913,4.8913,4.8913,3.8592,3.8807,3.9121,3.957,4.0019,4.0547,4.1426,4.1933,4.2519,4.3594,4.4121,4.459,4.5217,4.5529,0.0,4.6074,4.623,4.6308,4.6308,4.6308,4.6308,4.6308,4.6308,4.6308,4.6308,4.6308,4.6308,4.6308,4.6308,4.6484,4.6892,4.7344,4.7773,4.8203,4.8656,4.8913,4.8913,4.8913,4.8913,4.8913,4.8913,4.8913,4.8913,4.8913,4.8913,4.8913,4.8913,4.8913,4.8913,4.8913,4.8913,4.8913,4.8913,4.8913,4.8913,4.8913,4.8913,4.8913,4.8913,4.8913,4.8913,4.8913,4.8913,4.8913,4.8913,4.8913,4.8913,4.8913,4.8913,4.8913,4.8913,4.8913,4.8913,4.8913,4.8913,4.8913,4.8913,4.8913,4.8913,4.8913,4.8913,4.8913,4.8913,4.8913,4.8913,4.8913,4.8913,4.8913,4.8913,4.8913,4.8913,4.8913,4.8913,4.8913,4.8913,4.8913,4.8913,4.8913,4.8913,4.8913,4.8913,4.8913,4.8913,4.8913,4.8913,4.8913,4.8913,4.8913,4.8913,4.8913,4.8913,4.8913,3.8592,3.8887,3.9316,3.9785,4.0332,4.1055,4.207,4.25,4.3008,4.416,4.4531,4.4863,4.5568,4.5842,0.0,4.6269,4.6308,4.6308,4.6308,4.6308,4.6308,4.6308,4.6308,4.6308,4.6308,4.6308,4.6308,4.6308,4.6308,4.6562,0.0,4.7441,4.7874,4.846,4.8753,4.8913,4.8913,4.8913,4.8913,4.8913,4.8913,4.8913,4.8913,4.8913,4.8913,4.8913,4.8913,4.8913,4.8913,4.8913,4.8913,4.8913,4.8913,4.8913,4.8913,4.8913,4.8913,4.8913,4.8913,4.8913,4.8913,4.8913,4.8913,4.8913,4.8913,4.8913,4.8913,4.8913,4.8913,4.8913,4.8913,4.8913,4.8913,4.8913,4.8913,4.8913,4.8913,4.8913,4.8913,4.8913,4.8913,4.8913,4.8913,4.8913,4.8913,4.8913,4.8913,4.8913,4.8913,4.8913,4.8913,4.8913,4.8913,4.8913,4.8913,4.8913,4.8913,4.8913,4.8913,4.8913,4.8913,4.8913,4.8913,4.8913,4.8913,4.8913,4.8913,4.8913,4.8913,4.8913,4.8913,4.8913,3.8592,3.8925,3.9375,3.9785,4.0625,4.1621,4.2833,4.3165,4.3458,4.4277,4.4764,4.5215,4.5666,4.6055,4.6308,4.6308,4.6308,4.6308,4.6308,4.6308,4.6308,4.6308,4.6308,4.6308,4.6308,4.6308,4.6308,4.6308,4.6308,4.668,4.7561,4.76,4.7991,4.8874,4.8913,4.8913,4.8913,4.8913,4.8913,4.8913,4.8913,4.8913,4.8913,4.8913,4.8913,4.8913,4.8913,4.8913,4.8913,4.8913,4.8913,4.8913,4.8913,4.8913,4.8913,4.8913,4.8913,4.8913,4.8913,4.8913,4.8913,4.8913,4.8913,4.8913,4.8913,4.8913,4.8913,4.8913,4.8913,4.8913,4.8913,4.8913,4.8913,4.8913,4.8913,4.8913,4.8913,4.8913,4.8913,4.8913,4.8913,4.8913,4.8913,4.8913,4.8913,4.8913,4.8913,4.8913,4.8913,4.8913,4.8913,4.8913,4.8913,4.8913,4.8913,4.8913,4.8913,4.8913,4.8913,4.8913,4.8913,4.8913,4.8913,4.8913,4.8913,4.8913,4.8913,4.8913,4.8913,4.8913,4.8913,4.8913,3.8592,3.9159,3.9766,3.9863,4.1035,4.2324,4.295,4.3634,4.4258,4.4764,4.5234,4.5686,4.6094,4.623,4.6308,4.6308,4.6308,4.6308,4.6308,4.6308,4.6308,4.6308,4.6308,4.6308,4.6308,4.6308,4.6308,4.6308,4.6308,4.668,4.7561,4.76,4.7991,4.8874,4.8913,4.8913,4.8913,4.8913,4.8913,0.0,4.8913,4.8913,4.8913,4.8913,4.8913,4.8913,4.8913,4.8913,4.8913,4.8913,4.8913,4.8913,4.8913,4.8913,4.8913,4.8913,4.8913,4.8913,4.8913,4.8913,4.8913,4.8913,4.8913,4.8913,4.8913,4.8913,4.8913,4.8913,4.8913,4.8913,4.8913,4.8913,4.8913,4.8913,4.8913,4.8913,4.8913,4.8913,4.8913,4.8913,4.8913,4.8913,4.8913,4.8913,4.8913,4.8913,4.8913,4.8913,4.8913,4.8913,4.8913,4.8913,4.8913,4.8913,4.8913,4.8913,4.8913,4.8913,4.8913,4.8913,4.8913,4.8913,4.8913,4.8913,4.8913,4.8913,4.8913,4.8913,4.8913,4.8913,4.8913,4.8913,3.8592,3.9237,4.0098,4.0898,4.1758,4.2577,4.3242,4.4062,4.4744,4.4959,4.5371,4.5822,4.623,4.6308,4.6308,4.6308,4.6308,4.6308,4.6308,4.6308,4.6308,4.6308,4.6308,4.6308,4.6308,4.6308,4.6308,4.6308,4.6484,4.6894,4.7561,4.7796,4.8206,4.8874,4.8913,4.8913,4.8913,4.8913,4.8913,4.8913,4.8913,4.8913,4.8913,4.8913,4.8913,4.8913,4.8913,4.8913,4.8913,4.8913,4.8913,4.8913,4.8913,4.8913,4.8913,4.8913,4.8913,4.8913,4.8913,4.8913,4.8913,4.8913,4.8913,4.8913,4.8913,4.8913,4.8913,4.8913,4.8913,4.8913,4.8913,4.8913,4.8913,4.8913,4.8913,4.8913,4.8913,4.8913,4.8913,4.8913,4.8913,4.8913,4.8913,4.8913,4.8913,4.8913,4.8913,4.8913,4.8913,4.8913,4.8913,4.8913,4.8913,4.8913,4.8913,4.8913,4.8913,4.8913,4.8913,4.8913,4.8913,4.8913,4.8913,4.8913,4.8913,4.8913,4.8913,4.8913,4.8913,4.8913,4.8913,4.8913,3.8592,3.9237,4.0312,4.1972,4.2402,4.2636,4.3516,4.4373,4.4998,4.4998,4.543,4.592,4.623,4.6308,4.6308,4.6308,4.6308,4.6308,4.6308,4.6308,4.6308,4.6308,4.6308,4.6308,4.6308,4.6308,4.6308,4.6308,4.6677,4.7087,4.7581,4.7969,4.8418,4.8894,4.8913,4.8913,4.8913,4.8913,4.8913,4.8913,4.8913,4.8913,4.8913,4.8913,4.8913,4.8913,4.8913,4.8913,4.8913,4.8913,4.8913,4.8913,4.8913,4.8913,4.8913,4.8913,4.8913,4.8913,4.8913,4.8913,4.8913,4.8913,4.8913,4.8913,4.8913,4.8913,4.8913,4.8913,4.8913,4.8913,4.8913,4.8913,4.8913,4.8913,4.8913,4.8913,4.8913,4.8913,4.8913,4.8913,4.8913,4.8913,4.8913,4.8913,4.8913,4.8913,4.8913,4.8913,4.8913,4.8913,4.8913,4.8913,4.8913,4.8913,4.8913,4.8913,4.8913,4.8913,4.8913,4.8913,4.8913,4.8913,4.8913,4.8913,4.8913,4.8913,4.8913,4.8913,4.8913,4.8913,4.8913,4.8913,3.8592,3.9237,4.0312,4.1972,4.2402,4.2636,4.3516,4.4373,4.4998,4.4998,4.5664,4.623,4.6289,4.6308,4.6308,4.6308,4.6308,4.6308,4.6308,4.6308,4.6308,4.6308,4.6308,4.6308,4.6308,4.6308,4.6308,4.6308,4.6677,4.7087,4.7581,4.7969,4.8418,4.8894,4.8913,4.8913,4.8913,4.8913,4.8913,4.8913,4.8913,4.8913,4.8913,4.8913,4.8913,4.8913,4.8913,4.8913,4.8913,4.8913,4.8913,4.8913,4.8913,4.8913,4.8913,4.8913,4.8913,4.8913,4.8913,4.8913,4.8913,4.8913,4.8913,4.8913,4.8913,4.8913,4.8913,4.8913,4.8913,4.8913,4.8913,4.8913,4.8913,4.8913,4.8913,4.8913,4.8913,4.8913,4.8913,4.8913,4.8913,4.8913,4.8913,4.8913,4.8913,4.8913,4.8913,4.8913,4.8913,4.8913,4.8913,4.8913,4.8913,4.8913,4.8913,4.8913,4.8913,4.8913,4.8913,4.8913,4.8913,4.8913,4.8913,4.8913,4.8913,4.8913,4.8913,4.8913,4.8913,4.8913,4.8913,4.8913,3.9198,3.9608,4.0312,4.1972,4.2402,4.2636,4.3516,4.4373,4.4998,4.4998,4.5681,4.6308,4.6308,4.6308,4.6308,4.6308,4.6308,4.6308,4.6308,4.6308,4.6308,4.6308,4.6308,4.6308,4.6308,4.6308,4.6308,4.6308,4.6914,4.7383,4.76,4.8226,4.8675,4.8894,4.8913,4.8913,4.8913,4.8913,4.8913,4.8913,4.8913,4.8913,4.8913,4.8913,4.8913,4.8913,4.8913,4.8913,4.8913,4.8913,4.8913,4.8913,4.8913,4.8913,4.8913,4.8913,4.8913,4.8913,4.8913,4.8913,4.8913,4.8913,4.8913,4.8913,4.8913,4.8913,4.8913,4.8913,4.8913,4.8913,4.8913,4.8913,4.8913,4.8913,4.8913,4.8913,4.8913,4.8913,4.8913,4.8913,4.8913,4.8913,4.8913,4.8913,4.8913,4.8913,4.8913,4.8913,4.8913,4.8913,4.8913,4.8913,4.8913,4.8913,4.8913,4.8913,4.8913,4.8913,4.8913,4.8913,4.8913,4.8913,4.8913,4.8913,4.8913,4.8913,4.8913,4.8913,4.8913,4.8913,4.8913,4.8913,3.9648,3.9902,4.0312,4.1972,4.2402,4.2636,4.3516,4.4373,4.4998,4.4998,4.5681,4.6308,4.6308,4.6308,4.6308,4.6308,4.6308,4.6308,4.6308,4.6308,4.6308,4.6308,4.6308,4.6308,4.6308,4.6308,4.6308,4.6308,4.6992,4.7461,4.76,4.8304,4.8773,4.8894,4.8913,4.8913,4.8913,4.8913,4.8913,4.8913,4.8913,4.8913,4.8913,4.8913,4.8913,4.8913,4.8913,4.8913,4.8913,4.8913,4.8913,4.8913,4.8913,4.8913,4.8913,4.8913,4.8913,4.8913,4.8913,4.8913,4.8913,4.8913,4.8913,4.8913,4.8913,4.8913,4.8913,4.8913,4.8913,4.8913,4.8913,4.8913,4.8913,4.8913,4.8913,4.8913,4.8913,4.8913,4.8913,4.8913,4.8913,4.8913,4.8913,4.8913,4.8913,4.8913,4.8913,4.8913,4.8913,4.8913,4.8913,4.8913,4.8913,4.8913,4.8913,4.8913,4.8913,4.8913,4.8913,4.8913,4.8913,4.8913,4.8913,4.8913,4.8913,4.8913,4.8913,4.8913,4.8913,4.8913,4.8913,4.8913,3.9648,3.9902,4.0312,4.1972,4.2402,4.2636,4.3516,4.4373,4.4998,4.4998,4.5681,4.6308,4.6308,4.6308,4.6308,4.6308,4.6308,4.6308,4.6308,4.6308,4.6308,4.6308,4.6308,4.6308,4.6308,4.6308,4.6308,4.6308,4.6697,4.7126,4.7581,4.8008,4.8437,4.8894,4.8913,4.8913,4.8913,4.8913,4.8913,4.8913,4.8913,4.8913,4.8913,4.8913,4.8913,4.8913,4.8913,4.8913,4.8913,4.8913,4.8913,4.8913,4.8913,4.8913,4.8913,4.8913,4.8913,4.8913,4.8913,4.8913,4.8913,4.8913,4.8913,4.8913,4.8913,4.8913,4.8913,4.8913,4.8913,4.8913,4.8913,4.8913,4.8913,4.8913,4.8913,4.8913,4.8913,4.8913,4.8913,4.8913,4.8913,4.8913,4.8913,4.8913,4.8913,4.8913,4.8913,4.8913,4.8913,4.8913,4.8913,4.8913,4.8913,4.8913,4.8913,4.8913,4.8913,4.8913,4.8913,4.8913,4.8913,4.8913,4.8913,4.8913,4.8913,4.8913,4.8913,4.8913,4.8913,4.8913,4.8913,4.8913,3.9648,3.9902,4.0312,4.1972,4.2402,4.2636,4.3516,4.4159,4.4686,4.494,4.5488,4.5976,4.625,4.6308,4.6308,4.6308,4.6308,4.6308,4.6308,4.6308,4.6308,4.6308,4.6308,4.6308,4.6308,4.6308,4.6308,4.6308,4.6677,4.7087,4.7581,4.7969,4.8418,4.8894,4.8913,4.8913,4.8913,4.8913,4.8913,4.8913,4.8913,4.8913,4.8913,4.8913,4.8913,4.8913,4.8913,4.8913,4.8913,4.8913,4.8913,4.8913,4.8913,4.8913,4.8913,4.8913,4.8913,4.8913,4.8913,4.8913,4.8913,4.8913,4.8913,4.8913,4.8913,4.8913,4.8913,4.8913,4.8913,4.8913,4.8913,4.8913,4.8913,4.8913,4.8913,4.8913,4.8913,4.8913,4.8913,4.8913,4.8913,4.8913,4.8913,4.8913,4.8913,4.8913,4.8913,4.8913,4.8913,4.8913,4.8913,4.8913,4.8913,4.8913,4.8913,4.8913,4.8913,4.8913,4.8913,4.8913,4.8913,4.8913,4.8913,4.8913,4.8913,4.8913,4.8913,4.8913,4.8913,4.8913,4.8913,4.8913,3.9687,4.0,4.0449,4.1836,4.2304,4.2597,4.334,4.3965,4.4512,4.492,4.5371,4.5822,4.623,4.6308,4.6308,4.6308,4.6308,4.6308,4.6308,4.6308,4.6308,4.6308,4.6308,4.6308,4.6308,4.6308,4.6308,4.6308,4.6562,0.0,4.7581,4.7851,4.8284,4.8894,4.8913,4.8913,4.8913,4.8913,4.8913,4.8913,4.8913,4.8913,4.8913,4.8913,4.8913,4.8913,4.8913,4.8913,4.8913,4.8913,4.8913,4.8913,4.8913,4.8913,4.8913,4.8913,4.8913,4.8913,4.8913,4.8913,4.8913,4.8913,4.8913,4.8913,4.8913,4.8913,4.8913,4.8913,4.8913,4.8913,4.8913,4.8913,4.8913,4.8913,4.8913,4.8913,4.8913,4.8913,4.8913,4.8913,4.8913,4.8913,4.8913,4.8913,4.8913,4.8913,4.8913,4.8913,4.8913,4.8913,4.8913,4.8913,4.8913,4.8913,4.8913,4.8913,4.8913,4.8913,4.8913,4.8913,4.8913,4.8913,4.8913,4.8913,4.8913,4.8913,4.8913,4.8913,4.8913,4.8913,4.8913,4.8913,0.0,0.0,0.0,4.1582,4.2089,4.2519,4.2989,4.3771,4.4492,4.4901,4.5351,4.5803,4.6211,4.6289,4.6308,4.6308,4.6308,4.6308,4.6308,4.6308,4.6308,4.6308,4.6308,4.6308,4.6308,4.6308,4.6308,4.6308,4.6308,4.666,4.7542,4.76,4.8011,4.8874,4.8913,4.8913,4.8913,4.8913,4.8913,4.8913,4.8913,4.8913,4.8913,4.8913,4.8913,4.8913,4.8913,4.8913,4.8913,4.8913,4.8913,4.8913,4.8913,4.8913,4.8913,4.8913,4.8913,4.8913,4.8913,4.8913,4.8913,4.8913,4.8913,4.8913,4.8913,4.8913,4.8913,4.8913,4.8913,4.8913,4.8913,4.8913,4.8913,4.8913,4.8913,4.8913,4.8913,4.8913,4.8913,4.8913,4.8913,4.8913,4.8913,4.8913,4.8913,4.8913,4.8913,4.8913,4.8913,4.8913,4.8913,4.8913,4.8913,4.8913,4.8913,4.8913,4.8913,4.8913,4.8913,4.8913,4.8913,4.8913,4.8913,4.8913,4.8913,4.8913,4.8913,4.8913,4.8913,4.8913,4.8913,4.8913,4.0118,0.0,0.0,0.0,0.0,0.0,4.2989,4.3496,4.4023,4.4473,4.4902,4.5332,4.5762,4.6094,4.6308,4.6308,4.6308,4.6308,4.6308,4.6308,4.6308,4.6308,4.6308,4.6308,4.6308,4.6308,4.6308,0.0,4.6308,4.6543,4.707,4.7695,4.8304,4.8894,4.8913,4.8913,4.8913,4.8913,4.8913,4.8913,4.8913,4.8913,4.8913,4.8913,4.8913,4.8913,4.8913,4.8913,4.8913,4.8913,4.8913,4.8913,4.8913,4.8913,4.8913,4.8913,4.8913,4.8913,4.8913,4.8913,4.8913,4.8913,4.8913,4.8913,4.8913,4.8913,4.8913,4.8913,4.8913,4.8913,4.8913,4.8913,4.8913,4.8913,4.8913,4.8913,4.8913,4.8913,4.8913,4.8913,4.8913,4.8913,4.8913,4.8913,4.8913,4.8913,4.8913,4.8913,4.8913,4.8913,4.8913,4.8913,4.8913,4.8913,4.8913,4.8913,4.8913,4.8913,4.8913,4.8913,4.8913,4.8913,4.8913,4.8913,4.8913,4.8913,4.8913,4.8913,4.8913,4.8913,4.8913,4.8913,0.0,0.0,0.0,0.0,0.0,0.0,4.2754,4.3281,4.3828,4.4297,4.459,4.4941,4.5588,4.59,4.6094,4.6269,4.6308,4.6308,4.6308,4.6308,4.6308,4.6308,4.6308,4.6308,4.6308,4.6308,4.6308,4.6308,4.6308,4.6562,4.7168,4.7832,4.8418,4.8894,4.8913,4.8913,4.8913,4.8913,4.8913,4.8913,4.8913,4.8913,4.8913,4.8913,4.8913,4.8913,4.8913,4.8913,4.8913,4.8913,4.8913,4.8913,4.8913,4.8913,4.8913,4.8913,4.8913,4.8913,4.8913,4.8913,4.8913,4.8913,4.8913,4.8913,4.8913,4.8913,4.8913,4.8913,4.8913,4.8913,4.8913,4.8913,4.8913,4.8913,4.8913,4.8913,4.8913,4.8913,4.8913,4.8913,4.8913,4.8913,4.8913,4.8913,4.8913,4.8913,4.8913,4.8913,4.8913,4.8913,4.8913,4.8913,4.8913,4.8913,4.8913,4.8913,4.8913,4.8913,4.8913,4.8913,4.8913,4.8913,4.8913,4.8913,4.8913,4.8913,4.8913,4.8913,4.8913,4.8913,4.8913,4.8913,0.0,0.0,0.0,0.0,0.0,0.0,4.2402,4.3065,4.3828,4.4238,4.4355,4.4629,4.5412,4.5627,4.5822,4.6172,4.6269,4.6308,4.6308,4.6308,4.6308,4.6308,4.6308,4.6308,4.6308,4.6308,4.6308,4.6308,4.6308,4.668,4.7561,4.793,4.8382,4.8894,4.8913,4.8913,4.8913,4.8913,4.8913,4.8913,4.8913,4.8913,4.8913,4.8913,4.8913,4.8913,4.8913,4.8913,4.8913,4.8913,4.8913,4.8913,4.8913,4.8913,4.8913,4.8913,4.8913,4.8913,4.8913,4.8913,4.8913,4.8913,4.8913,4.8913,4.8913,4.8913,4.8913,4.8913,4.8913,4.8913,4.8913,4.8913,4.8913,4.8913,4.8913,4.8913,4.8913,4.8913,4.8913,4.8913,4.8913,4.8913,4.8913,4.8913,4.8913,4.8913,4.8913,4.8913,4.8913,4.8913,4.8913,4.8913,4.8913,4.8913,4.8913,4.8913,4.8913,4.8913,4.8913,4.8913,4.8913,4.8913,4.8913,4.8913,4.8913,4.8913,4.8913,4.8913,4.8913,4.8913,4.8913,4.8913,0.0,0.0,0.0,0.0,0.0,0.0,4.2402,4.3065,4.373,4.3828,4.4141,4.4453,4.4609,4.5236,4.5725,4.5803,4.6074,4.6308,4.6308,4.6308,4.6308,4.6308,4.6308,4.6308,4.6308,4.6308,4.6308,4.6308,4.6308,4.668,4.7561,4.7679,4.8069,4.8874,4.8913,4.8913,4.8913,4.8913,4.8913,4.8913,4.8913,4.8913,4.8913,4.8913,4.8913,4.8913,4.8913,4.8913,4.8913,4.8913,4.8913,4.8913,4.8913,4.8913,4.8913,4.8913,4.8913,4.8913,4.8913,4.8913,4.8913,4.8913,4.8913,4.8913,4.8913,4.8913,4.8913,4.8913,4.8913,4.8913,4.8913,4.8913,4.8913,4.8913,4.8913,4.8913,4.8913,4.8913,4.8913,4.8913,4.8913,4.8913,4.8913,4.8913,4.8913,4.8913,4.8913,4.8913,4.8913,4.8913,4.8913,4.8913,4.8913,4.8913,4.8913,4.8913,4.8913,4.8913,4.8913,4.8913,4.8913,4.8913,4.8913,4.8913,4.8913,4.8913,4.8913,4.8913,4.8913,4.8913,4.8913,4.8913,0.0,0.0,0.0,4.1445,0.0,0.0,0.0,4.3242,4.3711,4.3711,4.3887,4.4121,4.4355,4.4767,4.5197,4.5627,4.5881,4.6055,4.6269,4.6308,4.6308,4.6308,4.6308,4.6308,4.6308,4.6308,4.6308,4.6308,4.6308,4.6582,4.7226,4.7461,4.7894,4.8538,4.8773,4.8913,4.8913,4.8913,4.8913,4.8913,4.8913,4.8913,4.8913,4.8913,4.8913,4.8913,4.8913,4.8913,4.8913,4.8913,4.8913,4.8913,4.8913,4.8913,4.8913,4.8913,4.8913,4.8913,4.8913,4.8913,4.8913,4.8913,4.8913,4.8913,4.8913,4.8913,4.8913,4.8913,4.8913,4.8913,4.8913,4.8913,4.8913,4.8913,4.8913,4.8913,4.8913,4.8913,4.8913,4.8913,4.8913,4.8913,4.8913,4.8913,4.8913,4.8913,4.8913,4.8913,4.8913,4.8913,4.8913,4.8913,4.8913,4.8913,4.8913,4.8913,4.8913,4.8913,4.8913,4.8913,4.8913,4.8913,4.8913,4.8913,4.8913,4.8913,4.8913,4.8913,4.8913,4.8913,4.8913,4.8913,0.0,0.0,0.0,0.0,0.0,4.2616,0.0,0.0,0.0,4.3711,4.3711,4.3828,4.4199,4.4336,4.4591,4.5119,4.5412,4.5644,4.5898,4.6074,4.6211,4.6289,4.6308,4.6308,4.6308,4.6308,4.6308,4.6308,4.6308,4.6484,4.6892,4.7344,4.7773,4.8203,4.8656,4.8913,4.8913,4.8913,4.8913,4.8913,4.8913,4.8913,4.8913,4.8913,4.8913,4.8913,4.8913,4.8913,4.8913,4.8913,4.8913,4.8913,4.8913,4.8913,4.8913,4.8913,4.8913,4.8913,4.8913,4.8913,4.8913,4.8913,4.8913,4.8913,4.8913,4.8913,4.8913,4.8913,4.8913,4.8913,4.8913,4.8913,4.8913,4.8913,4.8913,4.8913,4.8913,4.8913,4.8913,4.8913,4.8913,4.8913,4.8913,4.8913,4.8913,4.8913,4.8913,4.8913,4.8913,4.8913,4.8913,4.8913,4.8913,4.8913,4.8913,4.8913,4.8913,4.8913,4.8913,4.8913,4.8913,4.8913,4.8913,4.8913,4.8913,4.8913,4.8913,4.8913,4.8913,4.8913,4.8913,4.8913,0.0,0.0,0.0,0.0,4.2676,0.0,0.0,0.0,4.3711,4.3711,0.0,4.373,4.3769,0.0,0.0,4.3497,4.4336,4.4959,4.4668,4.5295,4.59,4.625,4.6308,4.6308,4.6308,4.6308,4.6308,4.6308,4.6308,4.6484,4.6892,4.7344,4.7773,4.8203,4.8656,4.8913,4.8913,4.8913,4.8913,4.8913,4.8913,4.8913,4.8913,4.8913,4.8913,4.8913,4.8913,4.8913,4.8913,4.8913,4.8913,4.8913,4.8913,4.8913,4.8913,4.8913,4.8913,4.8913,4.8913,4.8913,4.8913,4.8913,4.8913,4.8913,4.8913,4.8913,4.8913,4.8913,4.8913,4.8913,4.8913,4.8913,4.8913,4.8913,4.8913,4.8913,4.8913,4.8913,4.8913,4.8913,4.8913,4.8913,4.8913,4.8913,4.8913,4.8913,4.8913,4.8913,4.8913,4.8913,4.8913,4.8913,4.8913,4.8913,4.8913,4.8913,4.8913,4.8913,4.8913,4.8913,4.8913,4.8913,4.8913,4.8913,4.8913,4.8913,4.8913,4.8913,4.8913,4.8913,4.8913,4.8913,0.0,0.0,0.0,0.0,0.0,0.0,4.3379,0.0,4.3711,0.0,0.0,0.0,0.0,0.0,0.0,0.0,4.4297,4.4666,4.4725,4.5078,4.5547,4.623,4.6308,4.6308,4.6308,4.6308,4.6308,4.6308,4.6308,4.6387,4.654,4.6973,4.7402,4.7832,4.8262,4.8617,4.8913,4.8913,4.8913,4.8913,4.8913,4.8913,4.8913,4.8913,4.8913,4.8913,4.8913,4.8913,4.8913,4.8913,4.8913,4.8913,4.8913,4.8913,4.8913,4.8913,4.8913,4.8913,4.8913,4.8913,4.8913,4.8913,4.8913,4.8913,4.8913,4.8913,4.8913,4.8913,4.8913,4.8913,4.8913,4.8913,4.8913,4.8913,4.8913,4.8913,4.8913,4.8913,4.8913,4.8913,4.8913,4.8913,4.8913,4.8913,4.8913,4.8913,4.8913,4.8913,4.8913,4.8913,4.8913,4.8913,4.8913,4.8913,4.8913,4.8913,4.8913,4.8913,4.8913,4.8913,4.8913,4.8913,4.8913,4.8913,4.8913,4.8913,4.8913,4.8913,4.8913,4.8913,4.8913,4.8913,4.2753,0.0,0.0,0.0,0.0,0.0,0.0,0.0,0.0,0.0,0.0,0.0,0.0,0.0,0.0,0.0,0.0,4.4277,4.4452,4.4686,4.5154,4.6035,4.623,4.6308,4.6308,4.6308,4.6308,4.6308,4.6308,4.6308,4.6308,4.6677,4.7107,4.76,4.7988,4.8441,4.8894,4.8913,4.8913,4.8913,4.8913,4.8913,4.8913,4.8913,4.8913,4.8913,4.8913,4.8913,4.8913,4.8913,4.8913,4.8913,4.8913,4.8913,4.8913,4.8913,4.8913,4.8913,4.8913,4.8913,4.8913,4.8913,4.8913,4.8913,4.8913,4.8913,4.8913,4.8913,4.8913,4.8913,4.8913,4.8913,4.8913,4.8913,4.8913,4.8913,4.8913,4.8913,4.8913,4.8913,4.8913,4.8913,4.8913,4.8913,4.8913,4.8913,4.8913,4.8913,4.8913,4.8913,4.8913,4.8913,4.8913,4.8913,4.8913,4.8913,4.8913,4.8913,4.8913,4.8913,4.8913,4.8913,4.8913,4.8913,4.8913,4.8913,4.8913,4.8913,4.8913,4.8913,4.8913,4.8913,0.0,0.0,0.0,4.3691,0.0,0.0,0.0,0.0,4.3711,0.0,0.0,0.0,0.0,0.0,0.0,0.0,0.0,0.0,0.0,4.3907,4.4726,4.5607,4.6055,4.6308,4.6308,4.6308,4.6308,0.0,4.6308,4.6308,4.6308,4.6677,4.7107,4.76,4.7988,4.8441,4.8894,4.8913,4.8913,4.8913,4.8913,4.8913,4.8913,4.8913,4.8913,4.8913,4.8913,4.8913,4.8913,4.8913,4.8913,4.8913,4.8913,4.8913,4.8913,4.8913,4.8913,4.8913,4.8913,4.8913,4.8913,4.8913,4.8913,4.8913,4.8913,4.8913,4.8913,4.8913,4.8913,4.8913,4.8913,4.8913,4.8913,4.8913,4.8913,4.8913,4.8913,4.8913,4.8913,4.8913,4.8913,4.8913,4.8913,4.8913,4.8913,4.8913,4.8913,4.8913,4.8913,4.8913,4.8913,4.8913,4.8913,4.8913,4.8913,4.8913,4.8913,4.8913,4.8913,4.8913,4.8913,4.8913,4.8913,4.8913,4.8913,4.8913,4.8913,4.8913,4.8913,4.8913,4.8913,4.8913,0.0,0.0,4.3711,4.3711,0.0,0.0,0.0,0.0,0.0,0.0,0.0,0.0,0.0,0.0,0.0,0.0,0.0,0.0,0.0,4.4023,4.4512,4.4785,4.5471,4.6018,4.6269,4.6308,4.6308,4.6308,4.6308,0.0,4.6308,4.6445,4.6719,4.7107,4.7578,4.8008,4.8418,4.8734,4.8913,4.8913,4.8913,4.8913,4.8913,4.8913,4.8913,4.8913,4.8913,4.8913,4.8913,4.8913,4.8913,4.8913,4.8913,4.8913,4.8913,4.8913,4.8913,4.8913,4.8913,4.8913,4.8913,4.8913,4.8913,4.8913,4.8913,4.8913,4.8913,4.8913,4.8913,4.8913,4.8913,4.8913,4.8913,4.8913,4.8913,4.8913,4.8913,4.8913,4.8913,4.8913,4.8913,4.8913,4.8913,4.8913,4.8913,4.8913,4.8913,4.8913,4.8913,4.8913,4.8913,4.8913,4.8913,4.8913,4.8913,4.8913,4.8913,4.8913,4.8913,4.8913,4.8913,4.8913,4.8913,4.8913,4.8913,4.8913,4.8913,4.8913,4.8913,4.8913,4.8913,4.8913,4.4629,4.4373,0.0,4.4159,4.4159,0.0,4.4159,0.0,0.0,0.0,0.0,0.0,0.0,0.0,0.0,0.0,0.0,0.0,0.0,4.3965,4.4219,4.4375,4.5177,4.5803,4.6055,4.6211,4.6308,4.6308,4.6308,4.6308,0.0,4.6308,4.6482,4.6892,4.7363,4.7773,4.8203,4.8656,4.8913,4.8913,4.8913,4.8913,4.8913,4.8913,4.8913,4.8913,4.8913,4.8913,4.8913,4.8913,4.8913,4.8913,4.8913,4.8913,4.8913,4.8913,4.8913,4.8913,4.8913,4.8913,4.8913,4.8913,4.8913,4.8913,4.8913,4.8913,4.8933,4.9066,4.9007,4.891,4.9086,4.9007,4.8913,4.8913,4.8913,4.8913,4.8913,4.8913,4.8913,4.8913,4.8913,4.8913,4.8913,4.8913,4.8913,4.8913,4.8913,4.8913,4.8913,4.8913,4.8913,4.8913,4.8913,4.8913,4.8913,4.8913,4.8913,4.8913,4.8913,4.8913,4.8913,4.8913,4.8913,4.8913,4.8913,4.8913,4.8913,4.8913,4.8913,4.8913,4.8913,4.8913]}]]